     2              OBSERVATION DATA    GPS                 RINEX VERSION / TYPE
teqc 1997Jul24 19970814                                     PGM / RUN BY / DATE
                                                            COMMENT
Original Marker Name: 0706                                  COMMENT
Campaign Name: HPGN 1991                                    COMMENT
4-Character Station Name: 0706                              COMMENT
6-Character Antenna Code: TRMSST                            COMMENT
Vertical Measurement Point: BPA                             COMMENT
Vertical Offset to Rinex Ref. Point: 0.0000                 COMMENT
Radial Measurement Point: RRP                               COMMENT
Radial Offset to Rinex Ref. Point: 0.0000                   COMMENT
Antenna Height from Field Measurement: 2.2200 m             COMMENT
Original XYZ: -2549506.3294 -4610866.9792 3582621.7269      COMMENT
New XYZ position is based on association with SCEC monument COMMENT
E1E9H7F7+0011. Position of that monument is believed to be  COMMENT
valid to within 1 m horizontally; vertical accuracy         COMMENT
should be no worse than 3-times this value.                 COMMENT
                                                            COMMENT
Revised Rinex header created by UCSD GPS archive for        COMMENT
GSAC on 19-Apr-1999 (1999:109) 05:00:04 GMT                 COMMENT
For assistance contact dagnew@ucsd.edu or hjohnson@ucsd.edu COMMENT
                                                            COMMENT
HPGN-CALIF STA 07-06 1991                                   MARKER NAME
unknown CALIF DEPT TRANSPORTATION                           OBSERVER / AGENCY
621 TRIMBLE 4000 SST NP 4.30 / SP 4.20                      REC # / TYPE / VERS
9 TR 4000SST L1/L2 GEO                                      ANT # / TYPE
 -2549512.0000 -4610866.0000  3582624.0000                  APPROX POSITION XYZ
        2.2200        0.0000        0.0000                  ANTENNA: DELTA H/E/N
     1     1     0                                          WAVELENGTH FACT L1/2
     3    C1    L1    L2                                    # / TYPES OF OBSERV
     0                                                      INTERVAL
  1991     4    25    19    45   45.000000                  TIME OF FIRST OBS
  1991     4    26     1    49   60.000000                  TIME OF LAST OBS
     0                                                      # OF SATELLITES
                                                            END OF HEADER
 91  4 25 19 45 45.0000000  0  4G18G 2G11G19
  20795976.867          -0.59217
  23924344.703          -0.36516
  23972493.1254         -0.25456
  21016626.8284         -0.22157
 91  4 25 19 46  0.0000000  0  4G18G 2G11G19
  20797414.188        7553.444 7        -0.37833
  23913498.0634     -57003.02046        -0.43471
  23964574.563      -41606.939 6
  21014322.328      -12099.493 7
 91  4 25 19 46 15.0000000  0  4G18G 2G11G19
  20798858.469       15141.394 7      5912.29323
  23902644.297     -114036.536 5    -44441.87821
  23956661.680      -83198.263 6        -0.18131
  21012014.375      -24232.663 7        -0.18932
 91  4 25 19 46 30.0000000  0  4G18G 2G11G19
  20800313.430       22781.479 8     11865.58623
  23891789.0394    -171082.26446    -88892.83161
  23948752.461     -124755.395 6    -32382.34721
  21009701.8674     -36381.32447     -9466.66963
 91  4 25 19 46 45.0000000  0  4G18G 2G11G19
  20801781.492       30506.834 8     17885.32323
  23880937.211     -228106.792 5   -133327.27321
  23940858.891     -166244.693 6    -64711.65221
  21007394.195      -48512.252 7    -18919.32322
 91  4 25 19 47  0.0000000  0  4G18G 2G11G19
  20803271.563       38336.919 8     23986.67223
  23870092.328     -285090.455 5   -177729.86421
  23932980.1884    -207646.20646    -96972.55861
  21005093.063      -60605.952 7    -28342.96823
 91  4 25 19 47 15.0000000  0  4G18G 2G11G19
  20804778.711       46255.677 8     30157.11223
  23859251.4304    -342049.32545   -222113.12861
  23925112.4454    -248976.01646   -129177.58361
  21002794.8054     -72678.85547    -37750.41363
 91  4 25 19 47 30.0000000  0  4G18G 2G11G19
  20806303.859       54265.841 8     36398.78523
  23848416.2974    -398980.51945   -266474.83761
  23917263.930     -290230.826 6   -161324.17421
  21000504.2894     -84728.07547    -47139.40363
 91  4 25 19 47 45.0000000  0  4G18G 2G11G19
  20807847.547       62377.113 8     42719.24323
  23837593.063     -455874.173 5   -310807.29321
  23909427.781     -331400.760 6   -193404.62721
  20998216.0084     -96744.01547    -56502.46063
 91  4 25 19 48  0.0000000  0  4G18G 2G11G19
  20809411.328       70594.540 8     49122.41523
  23826775.4304    -512724.85646   -355106.26961
  23901611.9534    -372480.03646   -225414.44061
  20995935.3754    -108721.33047    -65835.42763
 91  4 25 19 48 15.0000000  0  4G18G 2G11G19
  20811000.047       78941.083 8     55626.19723
  23815969.023     -569509.537 6   -399353.82721
  23893817.125     -413445.464 6   -257335.54421
  20993667.4064    -120637.19547    -75120.50662
 91  4 25 19 48 30.0000000  0  4G18G 2G11G19
  20812609.703       87402.759 8     62219.69923
  23805173.7664    -626241.89546   -443560.59661
  23886038.172     -454310.581 6   -289178.47221
  20991409.7584    -132505.58047    -84368.58962
 91  4 25 19 48 45.0000000  0  4G18G 2G11G19
  20814240.609       95970.624 8     68895.94023
  23794388.555     -682930.547 5   -487733.30921
  23878282.234     -495083.903 6   -320949.86721
  20989158.8284    -144335.40047    -93586.62362
 91  4 25 19 49  0.0000000  0  4G18G 2G11G19
  20815890.492      104644.263 8     75654.61023
  23783604.2584    -739575.88345   -531872.26061
  23870538.2114    -535765.63546   -352649.90561
  20986918.234     -156127.139 7   -102774.97723
 91  4 25 19 49 15.0000000  0  4G18G 2G11G19
  20817562.688      113427.475 8     82498.65123
  23772834.367     -796174.047 5   -575974.46221
  23862818.2894    -576351.70646   -384275.40661
  20984679.1024    -167877.31347   -111930.95163
 91  4 25 19 49 30.0000000  0  4G18G 2G11G19
  20819253.227      122319.813 8     89427.72623
  23762073.398     -852725.024 5   -620039.90221
  23855110.781     -616841.856 6   -415826.16121
  20982451.3594    -179585.88647   -121054.50563
 91  4 25 19 49 45.0000000  0  4G18G 2G11G19
  20820967.047      131313.675 8     96435.90723
  23751315.680     -909236.189 5   -664074.32521
  23847424.250     -657243.202 6   -447307.71521
  20980228.9144    -191260.43647   -130151.54962
 91  4 25 19 50  0.0000000  0  4G18G 2G11G19
  20822698.359      140419.250 7    103531.14223
  23740574.9924    -965697.37845   -708069.81261
  23839754.648     -697545.336 6   -478711.95421
  20978019.9064    -202890.95147   -139214.27863
 91  4 25 19 50 15.0000000  0  4G18G 2G11G19
  20824451.266      149641.296 7    110717.12823
  23729843.500    -1022103.676 6   -752022.51821
  23832103.266     -737743.243 6   -510034.97321
  20975811.7734    -214472.55147   -148238.89463
 91  4 25 19 50 30.0000000  0  4G18G 2G11G19
  20826232.742      158988.242 7    118000.44123
  23719117.719    -1078446.229 6   -795925.54021
  23824476.445     -777827.928 6   -541269.78721
  20973619.539     -225996.856 7   -157218.86022
 91  4 25 19 50 45.0000000  0  4G18G 2G11G19
  20828032.992      168454.980 7    125377.09723
  23708407.055    -1134730.082 5   -839782.86321
  23816869.695     -817804.174 6   -572420.08321
  20971437.9694    -237469.05747   -166158.22762
 91  4 25 19 51  0.0000000  0  4G18G 2G11G19
  20829858.305      178040.068 7    132845.97523
  23697707.5704   -1190956.41146   -883595.35761
  23809284.242     -857672.862 6   -603486.58321
  20969265.289     -248890.507 7   -175058.05222
 91  4 25 19 51 15.0000000  0  4G18G 2G11G19
  20831702.344      187738.116 7    140402.87623
  23687016.977    -1247130.450 6   -927367.09621
  23801714.1024    -897439.20546   -634473.33961
  20967098.5704    -260266.59047   -183922.52562
 91  4 25 19 51 30.0000000  0  4G18G 2G11G19
  20833570.039      197548.593 8    148047.37923
  23676336.4844   -1303252.20045   -971098.07161
  23794170.016     -937103.011 6   -665380.18521
  20964942.2584    -271597.59547   -192751.87263
 91  4 25 19 51 45.0000000  0  4G18G 2G11G19
  20835460.188      207481.652 8    155787.40223
  23665669.4614   -1359311.52846  -1014780.41761
  23786639.914     -976654.002 5   -696199.11321
  20962796.5314    -282873.60147   -201538.36563
 91  4 25 19 52  0.0000000  0  4G18G 2G11G19
  20837375.070      217544.989 8    163628.93923
  23655014.3284   -1415300.66546  -1058408.09061
  23779138.297    -1016084.130 5   -726923.86521
  20960664.3364    -294086.97847   -210276.06063
 91  4 25 19 52 15.0000000  0  4G18G 2G11G19
  20839315.641      227741.877 8    171574.54823
  23644372.695    -1471216.314 6  -1101978.48221
  23771660.3834   -1055389.86045   -757551.68861
  20958540.1724    -305234.52247   -218962.45063
 91  4 25 19 52 30.0000000  0  4G18G 2G11G19
  20841281.242      238069.898 8    179622.34023
  23633744.867    -1527060.516 6  -1145493.22921
  23764203.867    -1094573.045 5   -788084.01621
  20956431.7504    -316318.47747   -227599.29463
 91  4 25 19 52 45.0000000  0  4G18G 2G11G19
  20843271.984      248531.372 8    187774.11823
  23623135.180    -1582830.881 6  -1188950.42121
  23756769.2274   -1133631.09145   -818518.84361
  20954336.1804    -327336.56947   -236184.81963
 91  4 25 19 53  0.0000000  0  4G18G 2G11G19
  20845286.133      259117.250 8    196022.83723
  23612534.711    -1638536.011 6  -1232356.79421
  23749358.7194   -1172572.31045   -848862.62161
  20952249.6644    -338297.56347   -244725.84662
 91  4 25 19 53 15.0000000  0  4G18G 2G11G19
  20847324.688      269832.886 8    204372.65923
  23601948.4924   -1694170.11146  -1275707.80761
  23741970.8984   -1211390.94445   -879110.87061
  20950175.7584    -349195.81147   -253217.98162
 91  4 25 19 53 30.0000000  0  4G18G 2G11G19
  20849388.305      280673.675 8    212820.01223
  23591373.813    -1749737.824 6  -1319007.09021
  23734610.477    -1250091.398 5   -909267.04321
  20948114.2734    -360036.35647   -261665.15662
 91  4 25 19 53 45.0000000  0  4G18G 2G11G19
  20851476.328      291647.085 8    221370.70223
  23580812.086    -1805231.611 6  -1362248.78721
  23727272.3754   -1288665.90345   -939325.08161
  20946063.9454    -370811.64747   -270061.48363
 91  4 25 19 54  0.0000000  0  4G18G 2G11G19
  20853588.266      302736.817 8    230012.03223
  23570266.266    -1860667.559 6  -1405445.39821
  23719949.250    -1327130.409 5   -969297.39821
  20944021.6334    -381538.03847   -278419.70762
 91  4 25 19 54 15.0000000  0  4G18G 2G11G19
  20855719.430      313939.301 8    238741.22223
  23559722.7974   -1916048.99046  -1448599.52361
  23712650.4064   -1365488.06945   -999186.45861
  20941989.0164    -392219.06947   -286742.58562
 91  4 25 19 54 30.0000000  0  4G18G 2G11G19
  20857875.422      325263.466 8    247565.22823
  23549196.1804   -1971366.70346  -1491704.00361
  23705372.133    -1403729.552 5  -1028984.98821
  20939967.4614    -402845.76347   -295023.12462
 91  4 25 19 54 45.0000000  0  4G18G 2G11G19
  20860051.648      336710.985 8    256485.35123
  23538685.6094   -2026618.69346  -1534757.26661
  23698117.7344   -1441852.60745  -1058691.25861
  20937956.7034    -413416.15647   -303259.79262
 91  4 25 19 55  0.0000000  0  4G18G 2G11G19
  20862253.805      348277.801 8    265498.42623
  23528179.648    -2081808.822 6  -1577762.33421
  23690884.7974   -1479860.94345  -1088308.10261
  20935951.8444    -423934.38647   -311455.81463
 91  4 25 19 55 15.0000000  0  4G18G 2G11G19
  20864478.063      359967.694 8    274607.41123
  23517693.8054   -2136933.27246  -1620716.23861
  23683675.602    -1517750.431 5  -1117832.37021
  20933961.5474    -434396.66847   -319608.23462
 91  4 25 19 55 30.0000000  0  4G18G 2G11G19
  20866725.109      371778.157 8    283810.34423
  23507215.6644   -2191994.68446  -1663621.01961
  23676488.398    -1555523.305 6  -1147265.75321
  20931981.1254    -444805.76347   -327719.21863
 91  4 25 19 55 45.0000000  0  4G18G 2G11G19
  20868995.648      383708.829 7    293106.95323
  23496744.2504   -2246992.70346  -1706476.40061
  23669321.711    -1593179.343 6  -1176608.09921
  20930011.0234    -455161.70847   -335788.77462
 91  4 25 19 56  0.0000000  0  4G18G 2G11G19
  20871287.219      395752.328 7    302491.47223
  23486290.633    -2301934.556 6  -1749288.01321
  23662177.688    -1630725.470 6  -1205864.81421
  20928053.0554    -465471.80447   -343822.61163
 91  4 25 19 56 15.0000000  0  4G18G 2G11G19
  20873601.555      407907.637 7    311963.11523
  23475841.844    -2356821.262 6  -1792056.65421
  23655052.164    -1668162.512 6  -1235036.50921
  20926095.0944    -475737.06847   -351821.51462
 91  4 25 19 56 30.0000000  0  4G18G 2G11G19
  20875933.430      420175.862 7    321522.74623
  23465410.641    -2411651.289 6  -1834781.12821
  23647947.1174   -1705488.99546  -1264122.06661
  20924149.6564    -485956.50647   -359784.71062
 91  4 25 19 56 45.0000000  0  4G18G 2G11G19
  20878291.008      432556.770 7    331170.18523
  23454992.391    -2466424.542 6  -1877461.36921
  23640867.6174   -1742704.64146  -1293121.26161
  20922214.0234    -496130.12247   -367712.19762
 91  4 25 19 57  0.0000000  0  4G18G 2G11G19
  20880670.102      445052.771 7    340907.30823
  23444579.570    -2521138.477 6  -1920095.37821
  23633807.664    -1779806.497 6  -1322031.78621
  20920287.8364    -506255.38847   -375602.00563
 91  4 25 19 57 15.0000000  0  4G18G 2G11G19
  20883068.109      457659.963 7    350731.06923
  23434181.5474   -2575796.67646  -1962685.96261
  23626766.9064   -1816798.04946  -1350856.35961
  20918371.8594    -516336.15447   -383457.14262
 91  4 25 19 57 30.0000000  0  4G18G 2G11G19
  20885488.648      470378.862 7    360641.87623
  23423788.4144   -2630398.45946  -2005232.58861
  23619748.8754   -1853678.43446  -1379594.31761
  20916461.0704    -526371.85647   -391277.16162
 91  4 25 19 57 45.0000000  0  4G18G 2G11G19
  20887930.141      483207.082 7    370637.86523
  23413409.7424   -2684945.97046  -2047736.93361
  23612753.8204   -1890449.62446  -1408247.18361
  20914560.2974    -536364.87547   -399063.92462
 91  4 25 19 58  0.0000000  0  4G18G 2G11G19
  20890392.430      496146.737 8    380720.69323
  23403038.3984   -2739437.06446  -2090197.31261
  23605776.4384   -1927109.29846  -1436813.15261
  20912666.3984    -546313.07747   -406815.75862
 91  4 25 19 58 15.0000000  0  4G18G 2G11G19
  20892874.875      509197.476 8    390890.07823
  23392677.828    -2793872.001 6  -2132613.94421
  23598823.1484   -1963657.63746  -1465292.38561
  20910780.2274    -556216.86447   -414532.99062
 91  4 25 19 58 30.0000000  0  4G18G 2G11G19
  20895381.3444     522361.22848    401147.52063
  23382333.7274   -2848248.66846  -2174985.15461
  23591888.0864   -2000092.13546  -1493682.90661
  20908904.3284    -566074.18647   -422214.01563
 91  4 25 19 58 45.0000000  0  4G18G 2G11G19
  20897909.234      535647.244 8    411500.23023
  23371996.0784   -2902557.34946  -2217303.39361
  23584978.4924   -2036402.90946  -1521977.00761
  20907041.7424    -575875.61447   -429851.48563
 91  4 25 19 59  0.0000000  0  5G18G 2G11G16G19
  20900458.0474     549042.85648    421938.34263
  23361672.9064   -2956810.42946  -2259578.31661
  23578090.5004   -2072602.27546  -1550184.31361
  24337597.1254         -0.86054
  20905184.1024    -585633.88547   -437455.33062
 91  4 25 19 59 15.0000000  0  5G18G 2G11G16G19
  20903028.320      562551.190 8    432464.29723
  23351360.3054   -3011004.41246  -2301807.17961
  23571222.2504   -2108686.67346  -1578302.01861
  24330315.3054     -38288.55445
  20903335.4144    -595345.62946   -445022.92463
 91  4 25 19 59 30.0000000  0  5G18G 2G11G16G19
  20905621.156      576173.378 8    443078.96523
  23341058.9534   -3065138.18646  -2343989.13561
  23564378.8754   -2144654.83846  -1606329.16761
  24323050.0394     -76455.80744
  20901495.5004    -605009.92646   -452553.53862
 91  4 25 19 59 45.0000000  0  5G18G 2G11G16G19
  20908234.945      589908.841 8    453781.90423
  23330767.2734   -3119211.97446  -2386124.33961
  23557557.578    -2180506.619 6  -1634265.60421
  24315818.961     -114502.830 5
  20899666.6414    -614627.06947   -460047.41062
 91  4 25 20  0  0.0000000  0  5G18G 2G11G16G19
  20910870.148      603758.546 7    464573.85623
  23320490.6724   -3173224.90146  -2428212.12261
  23550756.6804   -2216241.10246  -1662110.65761
  24308602.297     -152428.697 5
  20897844.4384    -624196.17847   -467503.84862
 91  4 25 20  0 15.0000000  0  5G18G 2G11G16G19
  20913525.0634     617713.14047    475447.53663
  23310223.2114   -3227185.95446  -2470259.48061
  23543978.5084   -2251866.95546  -1689871.05561
  24301399.6804    -190242.35445
  20896034.1024    -633726.42547   -474930.00662
 91  4 25 20  0 30.0000000  0  5G18G 2G11G16G19
  20916200.414      631776.115 7    486405.67323
  23299962.961    -3281091.195 6  -2512263.36721
  23537220.4534   -2287380.11246  -1717543.63961
  24294232.5864    -227939.66545
  20894225.8834    -643214.11247   -482323.00362
 91  4 25 20  0 45.0000000  0  5G18G 2G11G16G19
  20918898.281      645950.902 7    497450.93523
  23289715.484    -3334937.147 6  -2554221.06021
  23530483.7734   -2322776.88346  -1745125.53461
  24287080.523     -265516.980 5        -0.25831
  20892429.9144    -652655.86947   -489680.21062
 91  4 25 20  1  0.0000000  0  5G18G 2G11G16G19
  20921620.602      660243.583 7    508588.06323
  23279484.117    -3388717.710 6  -2596127.79421
  23523770.6414   -2358051.14246  -1772611.97361
  24279950.141     -302968.171 5    -29182.96721
  20890642.7894    -662045.72747   -496996.97463
 91  4 25 20  1 15.0000000  0  5G18G 2G11G16G19
  20924360.930      674648.335 7    519812.52323
  23269256.992    -3442438.320 6  -2637987.81221
  23517080.477    -2393208.142 6  -1800007.01721
  24272846.734     -340298.907 5    -58271.75521
  20888865.2114    -671389.30147   -504277.67663
 91  4 25 20  1 30.0000000  0  5G18G 2G11G16G19
  20927127.055      689182.398 7    531137.74324
  23259049.133    -3496081.355 6  -2679787.38821
  23510415.578    -2428230.052 6  -1827296.80221
  24265767.922     -377491.488 4    -87252.94821
  20887101.1804    -680669.13347   -511508.71163
 91  4 25 20  1 45.0000000  0  5G18G 2G11G16G19
  20929911.086      703825.802 7    542548.15923
  23248854.602    -3549666.723 6  -2721542.02121
  23503773.109    -2463136.711 6  -1854496.78221
  24258712.781     -414565.532 5   -116141.76421
  20885342.1564    -689905.47547   -518705.85962
 91  4 25 20  2  0.0000000  0  5G18G 2G11G16G19
  20932720.031      718584.238 7    554048.21623
  23238669.3284   -3603188.46446  -2763247.07861
  23497153.8754   -2497921.87746  -1881602.09861
  24251681.8674    -451515.02945   -144933.51461
  20883592.6804    -699092.27947   -525864.39762
 91  4 25 20  2 15.0000000  0  5G18G 2G11G16G19
  20935555.203      733473.301 7    565650.06023
  23228496.555    -3656630.789 6  -2804890.27021
  23490561.359    -2532569.593 6  -1908600.30121
  24244679.664     -488324.124 5   -173615.83921
  20881858.0474    -708214.12247   -532972.32162
 91  4 25 20  2 30.0000000  0  5G18G 2G11G16G19
  20938411.8524     748490.27047    577351.56363
  23218343.7734   -3709996.07146  -2846473.42161
  23483993.789    -2567082.011 6  -1935493.08121
  24237699.1564    -524995.36845   -202190.75261
  20880134.6484    -717273.38847   -540031.48362
 91  4 25 20  2 45.0000000  0  5G18G 2G11G16G19
  20941294.797      763637.267 7    589154.39523
  23208205.445    -3763282.208 6  -2887994.90521
  23477451.281    -2601456.805 6  -1962278.61521
  24230750.688     -561526.524 5   -230656.49721
  20878422.0004    -726268.06347   -547040.31462
 91  4 25 20  3  0.0000000  0  5G18G 2G11G16G19
  20944200.227      778911.695 7    601056.52023
  23198074.9924   -3816491.23846  -2929456.30161
  23470935.805    -2635696.143 6  -1988958.59821
  24223822.523     -597919.604 5   -259014.66721
  20876722.8364    -735200.63647   -554000.75362
 91  4 25 20  3 15.0000000  0  5G18G 2G11G16G19
  20947130.211      794305.653 7    613051.79123
  23187968.313    -3869631.041 6  -2970863.77721
  23464443.9454   -2669807.45246  -2015538.82961
  24216920.9844    -634182.42745   -287271.35161
  20875033.6024    -744078.88547   -560918.87162
 91  4 25 20  3 30.0000000  0  5G18G 2G11G16G19
  20950082.938      809826.763 7    625146.13923
  23177865.4694   -3922693.87046  -3012211.24961
  23457981.203    -2703783.026 6  -2042013.28421
  24210047.1024    -670307.37545   -315420.58561
  20873357.4304    -752895.17947   -567788.70862
 91  4 25 20  3 45.0000000  0  5G18G 2G11G16G19
  20953088.6254     825616.76447    637450.00864
  23167811.3284   -3975537.66846  -3053388.05861
  23451565.836    -2737480.571 6  -2068271.09021
  24203229.422     -706152.114 5   -343351.44321
  20871717.3984    -761507.69547   -574499.75563
 91  4 25 20  4  0.0000000  0  5G18G 2G11G16G19
  20956141.3914     841657.22747    649949.03963
  23157796.172    -4028180.689 6  -3094408.41721
  23445205.656    -2770918.065 6  -2094326.27421
  24196456.156     -741734.691 5   -371078.03721
  20870111.3674    -769934.83147   -581066.35262
 91  4 25 20  4 15.0000000  0  5G18G 2G11G16G19
  20959218.047      857829.637 7    662550.88623
  23147790.797    -4080740.925 6  -3135364.26621
  23438868.3284   -2804213.42746  -2120270.69461
  24189713.7974    -777173.36645   -398692.53061
  20868523.602     -778294.482 7   -587580.36822
 91  4 25 20  4 30.0000000  0  5G18G 2G11G16G19
  20962321.1484     874126.89547    675250.02363
  23137805.008    -4133225.298 6  -3176261.00921
  23432557.164    -2837373.445 6  -2146109.65921
  24182991.969     -812475.315 5   -426200.48521
  20866941.2344    -786593.99047   -594047.50362
 91  4 25 20  4 45.0000000  0  5G18G 2G11G16G19
  20965445.1564     890549.87147    688047.11463
  23127830.0314   -4185632.72646  -3217097.78861
  23426274.9384   -2870396.82646  -2171842.14961
  24176308.0634    -847639.31845   -453600.93561
  20865373.5234    -794832.44146   -600467.06962
 91  4 25 20  5  0.0000000  0  5G18G 2G11G16G19
  20968591.4144     907088.34747    700934.21463
  23117872.305    -4237973.333 6  -3257882.50721
  23420015.031    -2903293.514 6  -2197475.91821
  24169637.531     -882675.075 5   -480901.44721
  20863814.8674    -803019.88147   -606846.89362
 91  4 25 20  5 15.0000000  0  5G18G 2G11G16G19
  20971761.656      923747.597 7    713915.41823
  23107925.547    -4290241.672 6  -3298610.90521
  23413780.383    -2936057.934 6  -2223006.62621
  24162992.5234    -917576.88545   -508097.61661
  20862270.1094    -811151.13546   -613182.92962
 91  4 25 20  5 30.0000000  0  5G18G 2G11G16G19
  20974954.1884     940517.07447    726982.51563
  23097989.9924   -4342448.07746  -3339291.04961
  23407566.3444   -2968700.21946  -2248442.16761
  24156374.891     -952355.355 5   -535197.68521
  20860729.6804    -819236.59647   -619483.28563
 91  4 25 20  5 45.0000000  0  5G18G 2G11G16G19
  20978166.1414     957397.74047    740136.25563
  23088067.9924   -4394591.10246  -3379921.80061
  23401380.258    -3001218.906 6  -2273781.38521
  24149777.4614    -987009.35745   -562200.76261
  20859202.4454    -827275.08447   -625747.04163
 91  4 25 20  6  0.0000000  0  5G18G 2G11G16G19
  20981399.5554     974385.12747    753373.15063
  23078154.9694   -4446675.17846  -3420506.62461
  23395213.867    -3033618.108 6  -2299027.51421
  24143214.7034   -1021542.92745   -589109.96261
  20857678.1724    -835271.14947   -631977.74363
 91  4 25 20  6 15.0000000  0  5G18G 2G11G16G19
  20984651.1254     991486.80947    766699.10763
  23068257.3754   -4498692.50046  -3461039.42661
  23389075.0394   -3065890.02646  -2324174.44461
  24136663.3134   -1055948.51445   -615919.44561
  20856167.5314    -843217.22246   -638169.49163
 91  4 25 20  6 30.0000000  0  5G18G 2G11G16G19
  20987928.0394    1008694.02047    780107.29163
  23058370.5634   -4550651.62346  -3501526.87361
  23382953.898    -3098043.102 6  -2349228.78321
  24130131.719    -1090234.341 5   -642635.60221
  20854662.0634    -851121.75847   -644328.86663
 91  4 25 20  6 45.0000000  0  5G18G 2G11G16G19
  20991222.148     1026009.999 7    793600.23123
  23048492.383    -4602548.856 6  -3541966.11321
  23376859.859    -3130073.318 6  -2374187.37721
  24123638.188    -1124396.614 5   -669255.47321
  20853167.7344    -858981.10847   -650453.03163
 91  4 25 20  7  0.0000000  0  5G18G 2G11G16G19
  20994541.3204    1043447.51947    807187.87863
  23038632.727    -4654371.582 6  -3582347.28421
  23370791.227    -3161967.748 6  -2399040.17821
  24117157.6174   -1158422.77445   -695769.28861
  20851681.9774    -866783.05047   -656532.46662
 91  4 25 20  7 15.0000000  0  5G18G 2G11G16G19
  20997885.0234    1061009.75348    820872.70663
  23028786.414    -4706116.032 6  -3622667.46621
  23364745.4454   -3193722.64446  -2423784.23661
  24110717.2664   -1192309.07645   -722174.14861
  20850209.8364    -874523.89447   -662564.29162
 91  4 25 20  7 30.0000000  0  5G18G 2G11G16G19
  21001247.5944    1078692.44147    834651.39663
  23018955.391    -4757786.115 6  -3662929.69721
  23358730.961    -3225341.816 6  -2448422.53721
  24104287.9924   -1226059.55645   -748473.16261
  20848745.0004    -882207.72947   -668551.69362
 91  4 25 20  7 45.0000000  0  5G18G 2G11G16G19
  21004636.8834    1096499.53347    848527.02163
  23009137.2504   -4809377.89646  -3703130.93161
  23352741.109    -3256821.102 6  -2472951.84321
  24097893.2584   -1259670.00845   -774663.07361
  20847297.3134    -889830.77147   -674491.72163
 91  4 25 20  8  0.0000000  0  5G18G 2G11G16G19
  21008050.2584    1114435.77447    862503.28463
  22999333.688    -4860886.432 6  -3743267.29421
  23346777.984    -3288155.473 6  -2497368.21021
  24091529.227    -1293135.912 5   -800740.32521
  20845857.5784    -897388.22747   -680380.64862
 91  4 25 20  8 15.0000000  0  5G18G 2G11G16G19
  21011484.8134    1132494.18147    876574.73663
  22989547.656    -4912318.537 6  -3783344.09321
  23340840.734    -3319351.414 6  -2521676.71321
  24085188.820    -1326463.595 5   -826709.87321
  20844430.3134    -904886.81347   -686223.70363
 91  4 25 20  8 30.0000000  0  5G18G 2G11G16G19
  21014944.0234    1150671.33348    890738.72563
  22979775.039    -4963677.199 6  -3823363.65121
  23334931.414    -3350411.993 6  -2545879.71421
  24078866.383    -1359656.526 5   -852574.42821
  20843017.3674    -912329.93547   -692023.54162
 91  4 25 20  8 45.0000000  0  5G18G 2G11G16G19
  21018429.1174    1168975.63548    905001.78563
  22970014.547    -5014953.786 6  -3863319.25821
  23329045.367    -3381328.387 6  -2569970.38821
  24072580.4844   -1392705.60245   -878326.88061
  20841610.1884    -919709.03847   -697773.48763
 91  4 25 20  9  0.0000000  0  5G18G 2G11G16G19
  21021934.8364    1187404.89548    919362.22163
  22960275.164    -5066150.307 6  -3903212.49221
  23323191.3444   -3412102.45446  -2593950.14261
  24066318.094    -1425612.530 5   -903968.61521
  20840217.5784    -927026.12047   -703475.10762
 91  4 25 20  9 15.0000000  0  5G18G 2G11G16G19
  21025464.2664    1205952.37148    933814.76563
  22950546.469    -5117273.498 6  -3943048.57421
  23317361.0944   -3442740.56446  -2617823.95861
  24060084.977    -1458384.117 5   -929504.84921
  20838837.0634    -934287.90147   -709133.63662
 91  4 25 20  9 30.0000000  0  5G18G 2G11G16G19
  21029015.1174    1224607.93448    948351.53463
  22940830.273    -5168332.967 6  -3982835.00621
  23311557.2504   -3473252.34146  -2641599.33361
  24053864.789    -1491030.261 5   -954943.34221
  20837462.7274    -941504.27547   -714756.78363
 91  4 25 20  9 45.0000000  0  5G18G 2G11G16G19
  21032586.6334    1243377.70548    962977.29663
  22931126.063    -5219322.425 6  -4022566.88121
  23305773.4304   -3503631.33646  -2665271.22961
  24047684.219    -1523544.750 5   -980279.23321
  20836101.6414    -948669.15146   -720339.80263
 91  4 25 20 10  0.0000000  0  5G18G 2G11G16G19
  21036188.5474    1262302.69747    977724.01263
  22921442.406    -5270200.507 6  -4062211.97721
  23300027.6414   -3533836.04646  -2688807.33361
  24041524.523    -1555885.665 5  -1005479.89721
  20834751.9144    -955741.24847   -725850.52663
 91  4 25 20 10 15.0000000  0  5G18G 2G11G16G19
  21039807.4224    1281323.70847    992545.54563
  22911771.492    -5321025.997 6  -4101816.09121
  23294299.4384   -3563925.23846  -2712253.42061
  24035394.7734   -1588112.28245  -1030591.52161
  20833416.8834    -962779.41947   -731334.81063
 91  4 25 20 10 30.0000000  0  5G18G 2G11G16G19
  21043445.4924    1300443.60947   1007444.14263
  22902109.594    -5371795.977 6  -4141376.95721
  23288597.3204   -3593895.70246  -2735606.98961
  24029281.9614   -1620221.67145  -1055611.79061
  20832080.6334    -969780.87947   -736790.49663
 91  4 25 20 10 45.0000000  0  5G18G 2G11G16G19
  21047105.031     1319666.056 7   1022422.64423
  22892458.3204   -5422506.55146  -4180891.51361
  23282916.7734   -3623743.46746  -2758864.96061
  24023196.6564   -1652209.82745  -1080537.58561
  20830759.3364    -976741.92146   -742214.68263
 91  4 25 20 11  0.0000000  0  5G18G 2G11G16G19
  21050782.141     1338991.892 7   1037481.71323
  22882818.219    -5473156.674 6  -4220358.97921
  23277260.500    -3653467.506 6  -2782026.52621
  24017126.1094   -1684075.87345  -1105368.18961
  20829440.2344    -983661.67447   -747606.69963
 91  4 25 20 11 15.0000000  0  5G18G 2G11G16G19
  21054479.1174    1358418.94547   1052619.64963
  22873192.641    -5523748.516 6  -4259781.03221
  23271629.141    -3683069.536 7  -2805093.02721
  24011092.047    -1715821.575 5  -1130105.07721
  20828132.3284    -990542.12146   -752968.08662
 91  4 25 20 11 30.0000000  0  5G18G 2G11G16G19
  21058194.8984    1377945.17447   1067834.85863
  22863573.1174   -5574283.73446  -4299158.97961
  23266019.5554   -3712551.13747  -2828065.67261
  24005070.219    -1747448.642 5  -1154749.48921
  20826829.7814    -997385.19647   -758300.34962
 91  4 25 20 11 45.0000000  0  5G18G 2G11G16G19
  21061929.6094    1397572.76447   1083129.05063
  22853971.344    -5624759.809 6  -4338490.82221
  23260431.320    -3741909.645 6  -2850942.41421
  23999075.5944   -1778954.49045  -1179299.41961
  20825535.9844   -1004188.58347   -763601.68862
 91  4 25 20 12  0.0000000  0  5G18G 2G11G16G19
  21065682.6954    1417299.36847   1098500.39463
  22844373.695    -5675178.733 6  -4377778.13221
  23254865.1254   -3771147.02546  -2873724.76061
  23993109.906    -1810340.967 5  -1203756.41121
  20824247.9534   -1010954.31747   -768873.68262
 91  4 25 20 12 15.0000000  0  5G18G 2G11G16G19
  21069455.7734    1437122.10347   1113946.64963
  22834789.7274   -5725543.22246  -4417023.03161
  23249327.648    -3800265.829 6  -2896414.71321
  23987151.6954   -1841611.05945  -1228122.67361
  20822967.8594   -1017685.34647   -774118.64163
 91  4 25 20 12 30.0000000  0  5G18G 2G11G16G19
  21073247.5004    1457049.05347   1129474.10963
  22825218.867    -5775845.173 6  -4456219.19721
  23243806.500    -3829257.494 6  -2919005.61021
  23981228.5394   -1872756.57145  -1252391.86761
  20821691.6644   -1024373.66547   -779330.31963
 91  4 25 20 12 45.0000000  0  5G18G 2G11G16G19
  21077059.1484    1477082.72747   1145084.73063
  22815659.8754   -5826081.46546  -4495364.20361
  23238317.7274   -3858119.15146  -2941495.19961
  23975322.2274   -1903774.46845  -1276561.63361
  20820431.3984   -1031016.44747   -784506.50963
 91  4 25 20 13  0.0000000  0  6G18G 2G11G16G19G 6
  21080891.9144    1497224.78447   1160779.80163
  22806112.2274   -5876250.49146  -4534456.79261
  23232849.148    -3886848.879 6  -2963881.98221
  23969450.1254   -1934663.05745  -1300630.62761
  20819174.9064   -1037612.08347   -789645.96663
  24393204.7664         -0.44453
 91  4 25 20 13 15.0000000  0  6G18G 2G11G16G19G 6
  21084747.2894    1517481.49247   1176564.21963
  22796579.0314   -5926345.69446  -4573491.86861
  23227410.211    -3915440.086 6  -2986160.83621
  23963594.2504   -1965415.85445  -1324593.80961
  20817931.8134   -1044154.01747   -794743.57963
  24385141.227      -42398.880 3
 91  4 25 20 13 30.0000000  0  6G18G 2G11G16G19G 6
  21088623.6564    1537849.31547   1192435.21263
  22787061.3204   -5976370.31246  -4612471.94361
  23221992.6564   -3943895.83546  -3008334.13561
  23957768.2894   -1996035.96545  -1348453.60061
  20816693.1254   -1050645.53547   -799801.90563
  24377077.3594     -84775.78844        -0.47871
 91  4 25 20 13 45.0000000  0  6G18G 2G11G16G19G 6
  21092522.2504    1558333.42147   1208396.81963
  22777556.8444   -6026318.86946  -4651392.73661
  23216605.3914   -3972210.57646  -3030397.56061
  23951971.3594   -2026517.92745  -1372205.74761
  20815470.7274   -1057081.37447   -804816.84363
  24369014.727     -127125.907 4    -33000.39321
 91  4 25 20 14  0.0000000  0  6G18G 2G11G16G19G 6
  21096442.6334    1578940.18347   1224453.99663
  22768066.0474   -6076184.69646  -4690249.07761
  23211246.195    -4000377.487 6  -3052345.80021
  23946188.211    -2056855.022 4  -1395845.02421
  20814259.1644   -1063454.99147   -809783.30062
  24360966.9844    -169442.64445    -65974.27361
 91  4 25 20 14 15.0000000  0  6G18G 2G11G16G19G 6
  21100387.7424    1599671.18447   1240607.99363
  22758593.3444   -6125966.18146  -4729039.68561
  23205915.125    -4028394.617 6  -3074177.31721
  23940452.836    -2087045.679 5  -1419370.15821
  20813058.2114   -1069764.82447   -814700.04863
  24352917.656     -211724.597 4    -98921.12621
 91  4 25 20 14 30.0000000  0  6G18G 2G11G16G19G 6
  21104356.3054    1620521.82947   1256855.21163
  22749134.8524   -6175667.48246  -4767767.82661
  23200612.117    -4056266.152 6  -3095895.37321
  23934732.9384   -2117093.93745  -1442784.35061
  20811864.2814   -1076015.10847   -819570.40063
  24344878.5634    -253976.27644   -131844.26961
 91  4 25 20 14 45.0000000  0  6G18G 2G11G16G19G 6
  21108348.6094    1641502.27347   1273203.57363
  22739694.3364   -6225278.10846  -4806425.31661
  23195337.2114   -4083981.58846  -3117491.80761
  23929044.0314   -2146989.15245  -1466079.28961
  20810691.7974   -1082195.51547   -824386.30663
  24336841.781     -296187.154 4   -164735.68621
 91  4 25 20 15  0.0000000  0  6G18G 2G11G16G19G 6
  21112363.2814    1662604.19047   1289646.59263
  22730271.1174   -6274806.22146  -4845018.50161
  23190090.766    -4111548.937 6  -3138972.84821
  23923379.2344   -2176739.63645  -1489261.44661
  20809526.5314   -1088314.31047   -829154.19963
  24328810.734     -338365.773 4   -197601.90921
 91  4 25 20 15 15.0000000  0  6G18G 2G11G16G19G 6
  21116401.9454    1683831.65247   1306187.43663
  22720863.5164   -6324247.69846  -4883544.18161
  23184875.2664   -4138963.74546  -3160335.02861
  23917751.023    -2206341.487 5  -1512327.80021
  20808375.5784   -1094367.40647   -833870.89663
  24320796.5704    -380507.99243   -230439.81061
 91  4 25 20 15 30.0000000  0  6G18G 2G11G16G19G 6
  21120465.1254    1705184.86147   1322826.26063
  22711470.7504   -6373602.21246  -4922002.09561
  23179686.273    -4166225.486 6  -3181577.92321
  23912145.0554   -2235794.24945  -1535277.98961
  20807235.3524   -1100354.56647   -838536.21863
  24312785.6724    -422613.73443   -263249.20661
 91  4 25 20 15 45.0000000  0  6G18G 2G11G16G19G 6
  21124552.8594    1726659.41347   1339559.63863
  22702095.8444   -6422873.48246  -4960395.16061
  23174527.7504   -4193337.98646  -3202704.53861
  23906568.7424   -2265101.75845  -1558115.00861
  20806109.1724   -1106279.72747   -843153.22963
  24304776.141     -464686.887 3   -296033.28621
 91  4 25 20 16  0.0000000  0  6G18G 2G11G16G19G 6
  21128662.8054    1748252.29347   1356385.21763
  22692734.461    -6472064.429 6  -4998725.62821
  23169396.531    -4220304.003 6  -3223717.00521
  23901020.0314   -2294266.69345  -1580840.93461
  20804994.0944   -1112145.80647   -847724.20063
  24296770.6804    -506730.57143   -328794.36261
 91  4 25 20 16 15.0000000  0  6G18G 2G11G16G19G 6
  21132796.0314    1769968.30047   1373306.74263
  22683390.969    -6521169.780 6  -5036989.40221
  23164293.5004   -4247118.21346  -3244611.18261
  23895498.1334   -2323283.97145  -1603451.78961
  20803887.8444   -1117947.93646   -852245.34463
  24288780.6804    -548739.82543   -361528.65861
 91  4 25 20 16 30.0000000  0  6G18G 2G11G16G19G 6
  21136952.1804    1791810.17847   1390326.34563
  22674062.6954   -6570187.04946  -5075184.54461
  23159220.9384   -4273777.72346  -3265384.83461
  23890001.672    -2352150.701 5  -1625945.33621
  20802796.1484   -1123683.27847   -856714.44163
  24280792.7664    -590711.97343   -394234.04961
 91  4 25 20 16 45.0000000  0  6G18G 2G11G16G19G 6
  21141131.2584    1813769.79147   1407437.69163
  22664750.5164   -6619124.09346  -5113317.18461
  23154173.7734   -4300290.59146  -3286044.20161
  23884536.7114   -2380875.28445  -1648328.11861
  20801716.0784   -1129359.93846   -861137.80763
  24272816.2344    -632655.34044   -426917.00761
 91  4 25 20 17  0.0000000  0  6G18G 2G11G16G19G 6
  21145330.0634    1835842.44547   1424637.12263
  22655453.398    -6667985.051 6  -5151390.52422
  23149158.3444   -4326660.83146  -3306592.42861
  23879098.633    -2409461.698 5  -1670603.23021
  20800643.4534   -1134982.30147   -865518.87563
  24264837.320     -674574.323 4   -459580.98421
 91  4 25 20 17 15.0000000  0  6G18G 2G11G16G19G 6
  21149552.039     1858028.880 7   1441925.20923
  22646167.336    -6716769.051 6  -5189403.89921
  23144165.070    -4352887.318 6  -3327028.63921
  23873683.5474   -2437909.11045  -1692770.01161
  20799587.1414   -1140549.46746   -869856.92863
  24256867.9534    -716468.17344   -492225.34561
 91  4 25 20 17 30.0000000  0  6G18G 2G11G16G19G 6
  21153794.266     1880326.121 7   1459299.63723
  22636901.500    -6765478.745 6  -5227359.37821
  23139201.188    -4378972.529 6  -3347354.76621
  23868296.9534   -2466219.95045  -1714830.38161
  20798536.5314   -1146064.21647   -874154.13663
  24248900.648     -758339.495 4   -524852.16921
 91  4 25 20 17 45.0000000  0  6G18G 2G11G16G19G 6
  21158060.227     1902737.106 7   1476762.69723
  22627645.1254   -6814110.91646  -5265254.44661
  23134263.563    -4404913.154 6  -3367568.21421
  23862937.328    -2494391.190 5  -1736781.95521
  20797499.6644   -1151523.31647   -878407.98163
  24240934.9774    -800185.46943   -557459.19461
 91  4 25 20 18  0.0000000  0  6G18G 2G11G16G19G 6
  21162344.570     1925245.825 8   1494301.91323
  22618402.1954   -6862681.28846  -5303101.36561
  23129351.648    -4430724.806 6  -3387681.17521
  23857595.906    -2522438.397 5  -1758636.89921
  20796467.7114   -1156942.72447   -882630.90063
  24232968.344     -842021.846 3   -590058.76321
 91  4 25 20 18 15.0000000  0  6G18G 2G11G16G19G 6
  21166645.828     1947856.023 7   1511920.20123
  22609171.2034   -6911186.17046  -5340897.25361
  23124466.266    -4456403.614 6  -3407690.61321
  23852288.5944   -2550357.91045  -1780392.34461
  20795444.1414   -1162318.88347   -886820.12163
  24225015.688     -883845.107 3   -622648.12921
 91  4 25 20 18 30.0000000  0  6G18G 2G11G16G19G 6
  21170966.961     1970567.793 7   1529617.64123
  22599953.2194   -6959625.05246  -5378641.71861
  23119601.938    -4481948.970 6  -3427596.06321
  23846996.3914   -2578149.07145  -1802047.76761
  20794430.0944   -1167651.31947   -890975.26363
  24217059.5864    -925654.95544   -655226.98361
 91  4 25 20 18 45.0000000  0  6G18G 2G11G16G19G 6
  21175307.570     1993373.648 7   1547388.38923
  22590746.9534   -7008005.06646  -5416340.31561
  23114768.1414   -4507367.76046  -3447402.90861
  23841730.617    -2605819.085 5  -1823608.79921
  20793423.1094   -1172947.16647   -895101.89663
  24209105.1094    -967458.62444   -687801.08961
 91  4 25 20 19  0.0000000  0  6G18G 2G11G16G19G 6
  21179664.859     2016278.163 7   1565236.01423
  22581551.8524   -7056321.40546  -5453989.29561
  23109956.266    -4532655.329 6  -3467107.49821
  23836486.3834   -2633363.47145  -1845071.99161
  20792419.8524   -1178201.92047   -899196.50963
  24201152.6334   -1009251.60744   -720366.82461
 91  4 25 20 19 15.0000000  0  6G18G 2G11G16G19G 6
  21184043.297     2039287.607 7   1583165.40623
  22572369.8524   -7104567.40746  -5491583.45861
  23105171.883    -4557804.828 6  -3486704.49021
  23831278.2424   -2660775.19245  -1866431.74961
  20791432.2584   -1183408.80847   -903253.82763
  24193196.641    -1051027.351 4   -752919.13621
 91  4 25 20 19 30.0000000  0  6G18G 2G11G16G19G 6
  21188442.0004    2062393.81347   1601170.20063
  22563203.7584   -7152751.02846  -5529129.01761
  23100408.781    -4582824.100 6  -3506200.01021
  23826082.477    -2688062.556 5  -1887694.61921
  20790448.3524   -1188576.04747   -907280.24863
  24185253.531    -1092794.093 4   -785464.48421
 91  4 25 20 19 45.0000000  0  6G18G 2G11G16G19G 6
  21192858.813     2085598.706 7   1619251.88323
  22554043.852    -7200870.347 6  -5566624.48221
  23095675.4534   -4607711.04446  -3525592.43661
  23820909.328    -2715223.476 5  -1908858.97121
  20789470.8134   -1193701.59047   -911274.18063
  24177299.8284   -1134550.02344   -818001.37261
 91  4 25 20 20  0.0000000  0  6G18G 2G11G16G19G 6
  21197290.672     2108903.079 7   1637411.09323
  22544901.9534   -7248924.35446  -5604069.04861
  23090964.4694   -4632464.53046  -3544880.86461
  23815767.883    -2742256.798 5  -1929923.86121
  20788505.1094   -1198784.70947   -915235.04963
  24169359.5944   -1176294.12444   -850529.06761
 91  4 25 20 20 15.0000000  0  6G18G 2G11G16G19G 6
  21201742.5784    2132297.10347   1655640.16763
  22535766.6484   -7296922.53346  -5641470.10161
  23086277.1334   -4657093.95746  -3564072.62061
  23810646.492    -2769172.245 5  -1950896.92121
  20787545.7344   -1203834.89347   -919170.25763
  24161414.7424   -1218036.17644   -883055.16661
 91  4 25 20 20 30.0000000  0  6G18G 2G11G16G19G 6
  21206213.570     2155783.252 7   1673941.01223
  22526645.180    -7344862.018 6  -5678825.43321
  23081613.125    -4681596.356 6  -3583165.38921
  23805543.8364   -2795966.84345  -1971775.83061
  20786588.0704   -1208849.39447   -923077.65963
  24153480.750    -1259773.482 4   -915577.56921
 91  4 25 20 20 45.0000000  0  6G18G 2G11G16G19G 6
  21210702.008     2179368.630 7   1692319.18623
  22517535.547    -7392735.486 6  -5716129.31721
  23076976.992    -4705964.414 6  -3602153.46921
  23800471.9844   -2822633.12245  -1992554.73861
  20785643.1414   -1213821.01747   -926951.65363
  24145532.492    -1301498.923 3   -948090.73421
 91  4 25 20 21  0.0000000  0  6G18G 2G11G16G19G 6
  21215207.344     2203046.927 7   1710769.76323
  22508434.969    -7440548.908 6  -5753386.41721
  23072363.188    -4730203.884 6  -3621041.35321
  23795422.4454   -2849177.25745  -2013238.46161
  20784706.4924   -1218755.76847   -930796.90963
  24137588.758    -1343218.553 4   -980599.35821
 91  4 25 20 21 15.0000000  0  6G18G 2G11G16G19G 6
  21219728.750     2226808.196 7   1729284.99523
  22499344.852    -7488312.429 6  -5790604.63321
  23067773.852    -4754324.743 6  -3639836.81621
  23790387.2894   -2875609.40045  -2033834.95661
  20783769.8834   -1223663.78047   -934621.33362
  24129655.039    -1384942.692 4  -1013111.48021
 91  4 25 20 21 30.0000000  0  6G18G 2G11G16G19G 6
  21224267.305     2250649.561 7   1747862.63823
  22490264.156    -7536028.239 6  -5827785.66521
  23063205.297    -4778329.026 6  -3658541.43721
  23785383.4774   -2901931.81645  -2054345.93061
  20782840.5004   -1228547.38047   -938426.73262
  24121717.5634   -1426673.54944  -1045628.85361
 91  4 25 20 21 45.0000000  0  6G18G 2G11G16G19G 6
  21228820.063     2274582.458 7   1766511.60323
  22481197.031    -7583684.632 6  -5864920.41221
  23058662.773    -4802205.041 6  -3677146.10521
  23780396.9064   -2928132.86745  -2074762.31761
  20781918.1024   -1233395.11647   -942204.18962
  24113768.0944   -1468399.86943  -1078142.65661
 91  4 25 20 22  0.0000000  0  6G18G 2G11G16G19G 6
  21233390.805     2298601.248 7   1785227.49623
  22472139.063    -7631287.146 6  -5902013.17022
  23054142.5704   -4825958.12146  -3695654.97761
  23775430.7114   -2954217.66945  -2095088.12461
  20781001.9304   -1238212.38147   -945957.89662
  24105837.586    -1510127.089 5  -1110657.13921
 91  4 25 20 22 15.0000000  0  6G18G 2G11G16G19G 6
  21237978.609     2322713.535 7   1804016.24023
  22463092.5634   -7678828.03946  -5939057.90662
  23049648.6644   -4849580.42146  -3714061.94361
  23770494.3594   -2980178.96545  -2115317.71261
  20780093.5704   -1242991.64547   -949682.00062
  24097895.1024   -1551847.92945  -1143166.73761
 91  4 25 20 22 30.0000000  0  6G18G 2G11G16G19G 6
  21242584.422     2346915.802 7   1822875.10523
  22454055.836    -7726310.095 6  -5976056.80122
  23045176.453    -4873074.775 6  -3732369.20421
  23765578.5164   -3006019.68845  -2135453.30661
  20779188.0634   -1247735.86447   -953378.79662
  24089959.141    -1593565.155 5  -1175673.50021
 91  4 25 20 22 45.0000000  0  6G18G 2G11G16G19G 6
  21247210.219     2371214.590 7   1841809.18323
  22445034.367    -7773726.883 6  -6013004.83521
  23040732.953    -4896434.506 6  -3750571.57721
  23760685.656    -3031733.183 5  -2155489.78321
  20778296.3674   -1252438.49447   -957043.17862
  24082017.672    -1635272.568 5  -1208172.54821
 91  4 25 20 22 59.9990000  0  6G18G 2G11G16G19G 6
  21251849.917     2395598.522 7   1860809.60623
  22436019.909    -7821084.450 6  -6049906.72722
  23036309.659    -4919667.405 6  -3768675.11921
  23755812.9404   -3057326.83845  -2175432.88161
  20777406.2304   -1257108.67847   -960682.28362
  24074085.565    -1676976.802 5  -1240669.16821
 91  4 25 20 23 14.9990000  0  6G18G 2G11G16G19G 6
  21256508.9724    2420085.33647   1879890.20363
  22427020.097    -7868374.243 6  -6086755.80722
  23031916.472    -4942761.543 6  -3786670.53621
  23750969.292    -3082789.405 5  -2195273.87221
  20776528.1204   -1261732.29447   -964285.09662
  24066151.980    -1718668.637 5  -1273156.12921
 91  4 25 20 23 29.9990000  0  6G18G 2G11G16G19G 6
  21261184.683     2444662.536 7   1899041.22023
  22418035.987    -7915604.198 6  -6123558.26322
  23027544.292    -4965726.125 6  -3804564.99921
  23746145.050    -3108130.215 5  -2215019.93621
  20775652.8234   -1266319.91447   -967859.86462
  24058218.5034   -1760356.42145  -1305639.90361
 91  4 25 20 23 44.9990000  0  6G18G 2G11G16G19G 6
  21265878.589     2469324.409 7   1918258.22223
  22409054.144    -7962779.845 6  -6160318.40322
  23023200.542    -4988566.523 6  -3822362.69621
  23741337.9954   -3133354.53945  -2234675.25461
  20774787.5194   -1270877.08747   -971410.90962
  24050288.2764   -1802045.76245  -1338124.92561
 91  4 25 20 23 59.9990000  0  6G18G 2G11G16G19G 6
  21270587.980     2494074.116 7   1937543.65723
  22400091.386    -8009897.623 6  -6197033.44822
  23018878.2694   -5011279.17146  -3840060.85361
  23736568.0504   -3158459.09245  -2254237.22661
  20773925.5974   -1275400.37647   -974935.55062
  24042350.2924   -1843733.39544  -1370608.60461
 91  4 25 20 24 14.9990000  0  6G18G 2G11G16G19G 6
  21275315.784     2518920.682 7   1956904.56623
  22391137.815    -8056948.195 6  -6233696.12022
  23014581.2534   -5033854.74846  -3857652.21261
  23731811.425    -3183434.649 5  -2273698.70221
  20773073.4254   -1279880.57247   -978426.61562
  24034419.6284   -1885410.16044  -1403083.81761
 91  4 25 20 24 29.9990000  0  6G18G 2G11G16G19G 6
  21280062.292     2543857.636 7   1976335.90423
  22382193.987    -8103937.776 6  -6270311.27122
  23010309.5264   -5056299.40946  -3875141.55861
  23727092.230    -3208287.324 5  -2293064.41321
  20772226.8234   -1284324.21947   -981889.19962
  24026491.605    -1927082.546 4  -1435555.61421
 91  4 25 20 24 44.9990000  0  6G18G 2G11G16G19G 6
  21284825.347     2568891.509 7   1995842.76823
  22373267.019    -8150859.263 6  -6306873.37022
  23006062.2144   -5078606.12646  -3892523.41161
  23722382.347    -3233010.189 5  -2312328.99421
  20771390.4644   -1288724.42147   -985317.92662
  24018563.2924   -1968743.67344  -1468018.64961
 91  4 25 20 24 59.9990000  0  6G18G 2G11G16G19G 6
  21289604.417     2594012.820 7   2015417.76923
  22364349.136    -8197722.233 6  -6343389.86122
  23001845.4724   -5100783.96646  -3909804.83461
  23717695.690    -3257612.721 5  -2331499.79621
  20770558.0894   -1293090.26047   -988719.88362
  24010634.214    -2010402.856 4  -1500480.17021
 91  4 25 20 25 14.9990000  0  6G18G 2G11G16G19G 6
  21294402.206     2619220.882 7   2035060.36923
  22355443.667    -8244527.043 6  -6379861.03421
  22997649.2764   -5122833.47646  -3926986.27961
  23713039.7534   -3282095.28245  -2350577.10961
  20769736.3314   -1297422.31747   -992095.51362
  24002702.917    -2052060.867 3  -1532940.78121
 91  4 25 20 25 29.9990000  0  6G18G 2G11G16G19G 6
  21299217.706     2644514.368 7   2054769.52923
  22346547.761    -8291274.969 6  -6416287.87721
  22993478.1984   -5144755.71446  -3944068.54161
  23708404.6984   -3306459.32145  -2369562.05561
  20768919.2844   -1301722.04747   -995445.95662
  23994781.261    -2093719.134 4  -1565401.57721
 91  4 25 20 25 44.9990000  0  6G18G 2G11G16G19G 6
  21304046.183     2669891.842 7   2074544.14023
  22337661.487    -8337966.921 6  -6452671.11222
  22989331.409    -5166551.682 6  -3961052.40921
  23703793.2454   -3330705.59345  -2388455.25861
  20768104.1674   -1305990.51547   -998772.03962
  23986853.464    -2135378.764 5  -1597863.41021
 91  4 25 20 25 59.9990000  0  6G18G 2G11G16G19G 6
  21308890.714     2695354.427 7   2094385.06723
  22328785.323    -8384601.484 6  -6489009.61922
  22985205.761    -5188219.734 6  -3977936.58821
  23699200.0034   -3354832.80045  -2407255.67361
  20767296.2064   -1310226.46547  -1002072.78162
  23978922.448    -2177038.582 5  -1630325.42221
 91  4 25 20 26 14.9990000  0  6G18G 2G11G16G19G 6
  21313753.019     2720901.604 7   2114291.91423
  22319923.206    -8431179.047 7  -6525303.70921
  22981107.331    -5209760.018 6  -3994721.20821
  23694628.308    -3378841.397 5  -2425963.65021
  20766498.8624   -1314430.21347  -1005348.43062
  23970997.2694   -2218698.84545  -1662787.78961
 91  4 25 20 26 29.9990000  0  6G18G 2G11G16G19G 6
  21318630.894     2746535.448 7   2134266.28923
  22311071.737    -8477697.006 7  -6561551.36822
  22977034.253    -5231170.161 6  -4011404.42221
  23690087.862    -3402728.881 5  -2444577.26521
  20765707.5734   -1318599.38947  -1008597.14762
  23963072.019    -2260357.336 5  -1695248.73221
 91  4 25 20 26 44.9990000  0  6G18G 2G11G16G19G 6
  21323523.456     2772246.506 7   2154300.83023
  22302229.011    -8524164.918 7  -6597760.02622
  22972982.112    -5252459.377 6  -4027993.39921
  23685557.6514   -3426504.45745  -2463103.69161
  20764916.9804   -1322743.18447  -1011826.08062
  23955143.6904   -2302023.52145  -1727715.72161
 91  4 25 20 26 59.9990000  0  6G18G 2G11G16G19G 6
  21328431.722     2798037.667 7   2174397.78423
  22293398.339    -8570579.491 7  -6633927.11422
  22968953.519    -5273624.319 6  -4044485.54821
  23681055.8784   -3450164.88445  -2481540.38861
  20764134.1754   -1326858.60447  -1015032.90762
  23947211.5424   -2343694.34245  -1760186.31561
 91  4 25 20 27 14.9990000  0  6G18G 2G11G16G19G 6
  21333354.409     2823912.853 7   2194560.22123
  22284573.909    -8616936.442 6  -6670049.30522
  22964950.581    -5294660.627 6  -4060877.46621
  23676578.8624   -3473706.36345  -2499884.40261
  20763358.9014   -1330941.50846  -1018214.39762
  23939278.3004   -2385365.65745  -1792657.28661
 91  4 25 20 27 29.9990000  0  6G18G 2G11G16G19G 6
  21338295.722     2849867.513 7   2214784.59023
  22275762.042    -8663240.048 6  -6706129.92822
  22960973.730    -5315572.688 6  -4077172.56421
  23672120.2844   -3497133.00645  -2518138.94161
  20762588.1364   -1334996.18846  -1021373.89962
  23931353.573    -2427042.069 4  -1825132.22421
 91  4 25 20 27 44.9990000  0  6G18G 2G11G16G19G 6
  21343249.839     2875906.624 7   2235074.75923
  22266961.276    -8709485.241 6  -6742165.03322
  22957018.2374   -5336355.20846  -4093366.72661
  23667685.6674   -3520439.84745  -2536300.11761
  20761821.2844   -1339017.54246  -1024507.42462
  23923417.105    -2468718.588 3  -1857607.24321
 91  4 25 20 27 59.9990000  0  6G18G 2G11G16G19G 6
  21348221.448     2902034.591 7   2255434.16823
  22258171.972    -8755667.420 6  -6778151.03422
  22953089.4954   -5357003.50346  -4109456.30061
  23663274.0424   -3543622.21145  -2554364.29661
  20761061.3314   -1343000.98447  -1027611.41162
  23915491.0114   -2510390.57044  -1890078.73261
 91  4 25 20 28 14.9990000  0  6G18G 2G11G16G19G 6
  21353209.292     2928244.443 7   2275857.38423
  22249395.487    -8801792.952 6  -6814092.90122
  22949183.7694   -5377523.84846  -4125446.17461
  23658879.831    -3566686.475 5  -2572336.46321
  20760309.5654   -1346953.02946  -1030690.93463
  23907554.269    -2552064.661 4  -1922551.86521
 91  4 25 20 28 29.9990000  0  6G18G 2G11G16G19G 6
  21358210.081     2954527.582 7   2296337.70223
  22240626.730    -8847870.257 6  -6849997.19422
  22945301.1204   -5397924.57246  -4141342.83361
  23654511.9564   -3589641.18845  -2590223.25061
  20759563.9874   -1350882.25447  -1033752.66763
  23899625.362    -2593749.413 5  -1955033.34021
 91  4 25 20 28 44.9990000  0  6G18G 2G11G16G19G 6
  21363226.792     2980891.055 7   2316880.62023
  22231869.9404   -8893892.36646  -6885858.48162
  22941442.2144   -5418198.64646  -4157140.81861
  23650168.5894   -3612479.19445  -2608019.12461
  20758821.0654   -1354781.57147  -1036791.10462
  23891683.9404   -2635438.03644  -1987517.79261
 91  4 25 20 28 59.9990000  0  6G18G 2G11G16G19G 6
  21368258.315     3007337.080 7   2337487.86423
  22223123.050    -8939856.514 6  -6921674.58622
  22937609.0194   -5438343.13446  -4172837.82061
  23645843.9644   -3635198.10845  -2625722.17161
  20758083.7374   -1358648.15447  -1039804.03162
  23883753.151    -2677127.648 4  -2020003.02521
 91  4 25 20 29 14.9990000  0  6G18G 2G11G16G19G 6
  21373308.300     3033863.377 7   2358157.65923
  22214389.7304   -8985764.67746  -6957447.08762
  22933799.9644   -5458360.04546  -4188435.39861
  23641547.706    -3657799.702 5  -2643333.80721
  20757354.0264   -1362484.48447  -1042793.38562
  23875821.105    -2718820.789 4  -2052491.01521
 91  4 25 20 29 29.9990000  0  6G18G 2G11G16G19G 6
  21378370.589     3060465.393 7   2378886.45323
  22205664.3474   -9031621.46446  -6993179.54762
  22930014.7374   -5478253.78146  -4203937.00761
  23637265.7694   -3680288.64045  -2660857.67061
  20756629.1284   -1366295.04347  -1045762.65462
  23867888.987    -2760521.961 5  -2084985.27021
 91  4 25 20 29 44.9990000  0  6G18G 2G11G16G19G 6
  21383448.636     3087150.636 7   2399680.09823
  22196947.472    -9077418.780 6  -7028865.66422
  22926256.3554   -5498016.35346  -4219336.40261
  23633009.0814   -3702657.10845  -2678287.63961
  20755912.9254   -1370071.75747  -1048705.55362
  23859951.183    -2802223.211 5  -2117479.59921
 91  4 25 20 29 59.9990000  0  6G18G 2G11G16G19G 6
  21388543.230     3113923.653 7   2420542.13523
  22188241.0114   -9123151.84946  -7064501.73262
  22922518.6594   -5517642.86246  -4234629.78061
  23628774.1674   -3724900.13345  -2695619.87661
  20755198.3084   -1373809.95947  -1051618.44462
  23852023.526    -2843919.877 5  -2149970.32821
 91  4 25 20 30 14.9990000  0  6G18G 2G11G16G19G 6
  21393652.675     3140782.129 7   2441470.77323
  22179551.0194   -9168822.88046  -7100089.45162
  22918810.3864   -5537135.46246  -4249818.81161
  23624570.6364   -3747020.23745  -2712856.32061
  20754496.5264   -1377511.97047  -1054503.12962
  23844082.2534   -2885614.37745  -2182459.38161
 91  4 25 20 30 29.9990000  0  6G18G 2G11G16G19G 6
  21398779.730     3167722.721 7   2462463.39423
  22170871.980    -9214434.790 6  -7135631.09822
  22915124.7924   -5556496.93246  -4264905.66061
  23620380.9484   -3769020.15945  -2729999.12361
  20753796.6674   -1381180.69447  -1057361.87862
  23836152.7374   -2927309.89045  -2214949.22161
 91  4 25 20 30 44.9990000  0  6G18G 2G11G16G19G 6
  21403923.058     3194750.021 7   2483523.58523
  22162203.8154   -9259982.45746  -7171122.68862
  22911466.628    -5575722.098 6  -4279886.29721
  23616214.433    -3790894.785 5  -2747044.32021
  20753105.6594   -1384810.99747  -1060190.68762
  23828211.894    -2969001.413 5  -2247435.95721
 91  4 25 20 30 59.9990000  0  6G18G 2G11G16G19G 6
  21409082.8474    3221870.18047   2504656.13863
  22153551.5344   -9305459.99346  -7206559.63362
  22907834.831    -5594804.860 6  -4294755.96621
  23612084.1674   -3812638.23845  -2763987.25561
  20752421.5034   -1388396.71547  -1062984.75662
  23820283.073    -3010682.810 4  -2279914.81721
 91  4 25 20 31 14.9990000  0  6G18G 2G11G16G19G 6
  21414260.980     3249076.466 7   2525855.79323
  22144909.3474   -9350873.67346  -7241946.82462
  22904232.4334   -5613751.59546  -4309519.64761
  23607966.128    -3834256.681 5  -2780832.81121
  20751748.7534   -1391944.64146  -1065749.37662
  23812354.1284   -3052360.82045  -2312390.99761
 91  4 25 20 31 29.9990000  0  6G18G 2G11G16G19G 6
  21419454.480     3276369.947 7   2547123.39123
  22136279.7144   -9396221.89246  -7277283.00762
  22900650.948    -5632560.711 6  -4324176.08421
  23603876.9484   -3855748.68245  -2797579.83961
  20751081.4334   -1395453.14847  -1068483.28062
  23804425.034    -3094034.067 5  -2344863.51521
 91  4 25 20 31 44.9990000  0  6G18G 2G11G16G19G 6
  21424665.472     3303748.137 7   2568456.99823
  22127660.6904   -9441507.35446  -7312570.28962
  22897099.6204   -5651234.62346  -4338727.17961
  23599811.8084   -3877117.24345  -2814230.67661
  20750420.0894   -1398924.83246  -1071188.49763
  23796494.128    -3135705.169 5  -2377334.33021
 91  4 25 20 31 59.9990000  0  6G18G 2G11G16G19G 6
  21429890.9954    3331208.61947   2589854.73763
  22119060.6514   -9486732.24246  -7347810.37262
  22893571.347    -5669775.499 6  -4353174.60121
  23595773.019    -3898364.500 5  -2830786.98121
  20749766.4874   -1402361.96146  -1073866.79162
  23788565.339    -3177376.523 5  -2409805.36921
 91  4 25 20 32 14.9990000  0  6G18G 2G11G16G19G 6
  21435133.745     3358754.377 7   2611318.91923
  22110460.5734   -9531893.20446  -7383000.63662
  22890067.9564   -5688180.07346  -4367515.81861
  23591754.878    -3919487.156 5  -2847246.19721
  20749120.4954   -1405761.36746  -1076515.68063
  23780636.4174   -3219044.71845  -2442273.93461
 91  4 25 20 32 29.9990000  0  6G18G 2G11G16G19G 6
  21440391.651     3386378.355 7   2632844.05223
  22101878.370    -9576996.462 6  -7418145.93022
  22886589.0114   -5706454.59946  -4381755.69861
  23587754.3624   -3940491.59945  -2863613.29961
  20748477.3084   -1409129.43547  -1079140.15362
  23772703.683    -3260716.553 5  -2474745.35821
 91  4 25 20 32 44.9990000  0  6G18G 2G11G16G19G 6
  21445661.058     3414086.522 7   2654434.78623
  22093309.4404   -9622036.01246  -7453241.60262
  22883138.8394   -5724592.91246  -4395889.44661
  23583781.276    -3961371.858 5  -2879883.64521
  20747844.3554   -1412459.96347  -1081735.37463
  23764772.1984   -3302385.96445  -2507214.87661
 91  4 25 20 32 59.9990000  0  6G18G 2G11G16G19G 6
  21450951.878     3441881.371 7   2676093.06423
  22084751.0114   -9667009.31246  -7488285.64062
  22879713.464    -5742592.344 6  -4409914.96821
  23579832.1514   -3982125.19845  -2896055.09161
  20747214.9174   -1415750.48347  -1084299.41963
  23756841.2534   -3344050.37045  -2539680.47161
 91  4 25 20 33 14.9990000  0  6G18G 2G11G16G19G 6
  21456255.612     3469751.954 7   2697810.34723
  22076203.987    -9711927.168 6  -7523286.46222
  22876312.925    -5760463.519 6  -4423840.55121
  23575902.800    -4002762.560 5  -2912136.17221
  20746597.8084   -1419011.84547  -1086840.74663
  23748916.847    -3385720.722 5  -2572150.69521
 91  4 25 20 33 29.9990000  0  6G18G 2G11G16G19G 6
  21461574.855     3497709.805 7   2719595.63423
  22067667.6754   -9756777.54446  -7558234.72162
  22872936.558    -5778194.346 6  -4437656.75121
  23571999.0814   -4023271.92045  -2928117.48861
  20745988.3154   -1422232.11047  -1089350.04862
  23740988.7064   -3427385.14545  -2604616.30761
 91  4 25 20 33 44.9990000  0  6G18G 2G11G16G19G 6
  21466913.222     3525752.525 7   2741447.05923
  22059145.1594   -9801562.49446  -7593131.99262
  22869591.2534   -5795787.07346  -4451365.36361
  23568123.026    -4043655.484 5  -2944000.81121
  20745381.1124   -1425413.48147  -1091829.04063
  23733061.690    -3469045.934 5  -2637079.11821
 91  4 25 20 33 59.9990000  0  6G18G 2G11G16G19G 6
  21472264.089     3553877.057 7   2763362.22423
  22050636.308    -9846284.997 6  -7627980.60622
  22866268.9174   -5813244.53446  -4464968.57961
  23564264.3154   -4063916.34545  -2959788.49461
  20744781.5894   -1428558.83547  -1094279.97162
  23725125.9874   -3510706.07744  -2669541.39961
 91  4 25 20 34 14.9990000  0  6G18G 2G11G16G19G 6
  21477632.409     3582086.339 7   2785343.43723
  22042136.2224   -9890941.94946  -7662778.14462
  22862972.5654   -5830563.48246  -4478463.85961
  23560433.8004   -4084051.44045  -2975478.17161
  20744192.4804   -1431665.14747  -1096700.47862
  23717203.6674   -3552362.80745  -2702000.99861
 91  4 25 20 34 29.9990000  0  6G18G 2G11G16G19G 6
  21483015.862     3610381.648 7   2807391.67823
  22033652.8154   -9935531.63346  -7697523.26062
  22859704.7064   -5847742.22646  -4491849.88561
  23556625.745    -4104058.958 5  -2991068.46221
  20743606.3154   -1434730.51947  -1099089.08163
  23709273.917    -3594014.364 4  -2734456.62821
 91  4 25 20 34 44.9990000  0  6G18G 2G11G16G19G 6
  21488416.386     3638766.089 7   2829509.37623
  22025182.628    -9980050.359 6  -7732213.09122
  22856462.4724   -5864777.00346  -4505123.73561
  23552838.5894   -4123935.14445  -3006556.42061
  20743031.0734   -1437751.35947  -1101442.97863
  23701353.6674   -3635657.15144  -2766905.39461
 91  4 25 20 34 59.9990000  0  6G18G 2G11G16G19G 6
  21493837.964     3667247.728 7   2851702.81323
  22016724.9724  -10024490.23646  -7766841.47862
  22853248.1364   -5881660.02246  -4518279.32261
  23549086.5814   -4143672.66545  -3021936.29161
  20742466.1514   -1440719.99347  -1103756.20562
  23693436.1594   -3677283.41744  -2799341.28561
 91  4 25 20 35 14.9990000  0  6G18G 2G11G16G19G 6
  21499276.995     3695827.213 7   2873972.49223
  22008281.5894  -10068850.37246  -7801407.73262
  22850066.1904   -5898390.17246  -4531315.79061
  23545360.6514   -4163270.59845  -3037207.40161
  20741914.4254   -1443635.67047  -1106028.16863
  23685519.0814   -3718892.55844  -2831763.85461
 91  4 25 20 35 29.9990000  0  6G18G 2G11G16G19G 6
  21504730.917     3724494.887 7   2896310.89823
  21999853.706   -10113140.014 6  -7835919.05722
  22846908.2304   -5914976.57846  -4544240.26061
  23541650.7534   -4182737.96345  -3052376.78261
  20741364.4334   -1446507.25347  -1108265.76563
  23677597.0114   -3760493.70244  -2864180.15361
 91  4 25 20 35 44.9990000  0  6G18G 2G11G16G19G 6
  21510205.315     3753257.512 7   2918723.29123
  21991440.823   -10157352.227 6  -7870370.04922
  22843781.940    -5931412.325 6  -4557047.31421
  23537969.0894   -4202067.85645  -3067439.04461
  20740829.8864   -1449328.01147  -1110463.76663
  23669686.2064   -3802080.09144  -2896584.95861
 91  4 25 20 35 59.9990000  0  6G18G 2G11G16G19G 6
  21515696.878     3782115.346 7   2941209.86423
  21983043.6124  -10201486.11046  -7904759.99962
  22840683.472    -5947696.503 6  -4569736.26921
  23534318.7304   -4221259.52145  -3082393.59661
  20740301.8314   -1452097.31147  -1112621.66863
  23661769.823    -3843651.161 4  -2928977.83521
 91  4 25 20 36 14.9990000  0  6G18G 2G11G16G19G 6
  21521206.198     3811065.805 7   2963768.61423
  21974659.456   -10245544.173 6  -7939090.88122
  22837611.190    -5963831.556 6  -4582309.02521
  23530695.8234   -4240315.45045  -3097242.38061
  20739785.6594   -1454817.50047  -1114741.30263
  23653865.237    -3885209.289 5  -2961360.61921
 91  4 25 20 36 29.9990000  0  6G18G 2G11G16G19G 6
  21526732.995     3840111.498 7   2986401.57223
  21966290.0584  -10289523.78546  -7973360.62262
  22834569.1204   -5979814.68146  -4594763.39261
  23527103.4644   -4259233.10245  -3111983.42661
  20739275.8554   -1457486.03947  -1116820.68063
  23645959.284    -3926751.922 5  -2993731.33121
 91  4 25 20 36 44.9990000  0  6G18G 2G11G16G19G 6
  21532277.378     3869251.015 7   3009107.63723
  21957934.128   -10333425.981 6  -8007570.04022
  22831558.269    -5995646.865 6  -4607100.14821
  23523523.597    -4278013.737 5  -3126617.68921
  20738778.7844   -1460103.91347  -1118860.58363
  23638062.245    -3968280.164 5  -3026090.87121
 91  4 25 20 36 59.9990000  0  6G18G 2G11G16G19G 6
  21537840.862     3898486.014 7   3031888.10722
  21949596.675   -10377248.743 6  -8041717.56622
  22828575.1834   -6011326.12546  -4619317.76261
  23519974.5264   -4296655.28645  -3141143.59961
  20738291.4874   -1462669.20247  -1120859.51063
  23630159.417    -4009792.343 5  -3058437.84421
 91  4 25 20 37 14.9990000  0  6G18G 2G11G16G19G 6
  21543419.987     3927802.698 7   3054732.22322
  21941266.222   -10421005.554 6  -8075813.69522
  22825617.7064   -6026865.89546  -4631426.68161
  23516455.5584   -4315171.31645  -3155571.68961
  20737809.2454   -1465195.32247  -1122827.92463
  23622255.3704   -4051301.87245  -3090782.78661
 91  4 25 20 37 29.9990000  0  6G18G 2G11G16G19G 6
  21549015.042     3957208.217 7   3077645.56622
  21932957.628   -10464689.177 6  -8109852.80422
  22822690.136    -6042258.941 7  -4643421.26721
  23512952.675    -4333554.689 5  -3169896.41721
  20737337.0974   -1467675.04447  -1124760.18263
  23614356.5034   -4092801.89945  -3123120.28861
 91  4 25 20 37 44.9990000  0  6G18G 2G11G16G19G 6
  21554625.550     3986694.337 7   3100621.70522
  21924655.9954  -10508307.51046  -8143841.03062
  22819787.0194   -6057513.12147  -4655307.64661
  23509482.534    -4351813.507 5  -3184124.07521
  20736874.5344   -1470116.43547  -1126662.56663
  23606463.058    -4134300.270 5  -3155456.50321
 91  4 25 20 37 59.9990000  0  6G18G 2G11G16G19G 6
  21560252.769     4016256.947 7   3123657.45622
  21916366.261   -10551864.220 6  -8177781.23622
  22816909.6204   -6072631.98546  -4667088.57561
  23506031.7304   -4369951.51645  -3198257.59961
  20736414.4804   -1472523.07547  -1128537.87363
  23598573.4564   -4175800.66545  -3187794.32961
 91  4 25 20 38 14.9990000  0  6G18G 2G11G16G19G 6
  21565893.011     4045894.546 7   3146751.63222
  21908090.9094  -10595360.63846  -8211674.46662
  22814056.8864   -6087616.97546  -4678765.18461
  23502599.8784   -4387969.94745  -3212297.97761
  20735963.1514   -1474896.38047  -1130387.20063
  23590666.878    -4217304.859 4  -3220135.13221
 91  4 25 20 38 29.9990000  0  6G18G 2G11G16G19G 6
  21571545.8314    4075608.10047   3169904.99662
  21899824.8474  -10638795.53546  -8245519.74562
  22811231.933    -6102466.914 6  -4690336.55521
  23499192.472    -4405867.748 5  -3226244.35321
  20735517.0894   -1477235.25947  -1132209.70963
  23582768.0424   -4258811.51144  -3252477.78661
 91  4 25 20 38 44.9990000  0  6G18G 2G11G16G19G 6
  21577213.8394    4105396.59447   3193116.75362
  21891570.667   -10682169.829 7  -8279317.82322
  22808430.870    -6117182.387 6  -4701803.13821
  23495813.6674   -4423645.66245  -3240097.26661
  20735082.1984   -1479540.55447  -1134006.04863
  23574866.3154   -4300321.66145  -3284823.19261
 91  4 25 20 38 59.9990000  0  6G18G 2G11G16G19G 6
  21582898.2694    4135263.49547   3216389.60462
  21883329.503   -10725479.709 7  -8313065.70422
  22805659.1444   -6131759.62546  -4713162.01461
  23492454.698    -4441300.068 5  -3253853.97021
  20734648.9174   -1481808.49547  -1135773.27663
  23566972.5974   -4341831.53245  -3317168.39261
 91  4 25 20 39 14.9990000  0  6G18G 2G11G16G19G 6
  21588596.2534    4165206.56947   3239721.81262
  21875099.5424  -10768727.04347  -8346764.83762
  22802908.261    -6146200.516 6  -4724414.64721
  23489119.167    -4458833.057 5  -3267516.08321
  20734223.1204   -1484040.98247  -1137512.88563
  23559071.2374   -4383343.12445  -3349514.93161
 91  4 25 20 39 29.9990000  0  6G18G 2G11G16G19G 6
  21594308.5424    4195223.48247   3263111.55662
  21866883.003   -10811913.960 7  -8380416.89522
  22800187.0504   -6160507.08946  -4735562.61461
  23485803.3154   -4476246.58345  -3281085.09961
  20733804.2764   -1486240.14147  -1139226.51963
  23551173.9644   -4424858.78345  -3381864.63561
 91  4 25 20 39 44.9990000  0  6G18G 2G11G16G19G 6
  21600036.487     4225312.741 7   3286557.67522
  21858674.1364  -10855041.68846  -8414022.82862
  22797491.8554   -6174680.60846  -4746606.90361
  23482511.745    -4493542.317 5  -3294562.31221
  20733393.7224   -1488407.27747  -1140915.19663
  23543271.2144   -4466379.61145  -3414218.33561
 91  4 25 20 39 59.9990000  0  6G18G 2G11G16G19G 6
  21605775.261     4255487.008 7   3310070.04622
  21850479.433   -10898097.318 7  -8447572.58722
  22794820.8624   -6188707.95446  -4757537.29861
  23479247.7534   -4510706.84745  -3307937.31061
  20732989.3864   -1490529.37547  -1142568.78363
  23535367.737    -4507892.976 5  -3446566.22721
 91  4 25 20 40 14.9990000  0  6G18G 2G11G16G19G 6
  21611533.112     4285736.391 7   3333640.93922
  21842298.0814  -10941090.34446  -8481073.56162
  22792179.6364   -6202598.75246  -4768361.30161
  23475998.230    -4527750.072 5  -3321217.78321
  20732591.5424   -1492616.16547  -1144194.85363
  23527471.940    -4549408.524 5  -3478915.84421
 91  4 25 20 40 29.9990000  0  6G18G 2G11G16G19G 6
  21617304.472     4316063.145 7   3357272.12022
  21834130.730   -10984018.106 7  -8514523.68322
  22789561.3944   -6216350.43646  -4779076.89761
  23472775.901    -4544669.743 5  -3334401.97721
  20732200.9094   -1494664.74847  -1145791.15363
  23519571.8624   -4590923.63245  -3511265.10661
 91  4 25 20 40 44.9990000  0  6G18G 2G11G16G19G 6
  21623092.253     4346479.685 7   3380973.27022
  21825974.573   -11026868.178 7  -8547913.26422
  22786971.2534   -6229950.44946  -4789674.31361
  23469581.2924   -4561453.20745  -3347480.03961
  20731823.1364   -1496662.77547  -1147348.05963
  23511669.128    -4632426.069 5  -3543604.48621
 91  4 25 20 40 59.9990000  0  6G18G 2G11G16G19G 6
  21628897.9254    4376981.74347   3404741.04562
  21817835.4724  -11069644.54847  -8581245.41362
  22784412.8004   -6243402.84846  -4800156.70061
  23466412.1594   -4578104.62045  -3360455.18361
  20731449.8084   -1498614.30347  -1148868.73763
  23503775.8474   -4673919.87045  -3575937.12761
 91  4 25 20 41 14.9990000  0  6G18G 2G11G16G19G 6
  21634715.651     4407562.260 7   3428569.96122
  21809708.862   -11112353.812 7  -8614525.27422
  22781879.6364   -6256714.07446  -4810529.08461
  23463269.1284   -4594630.40745  -3373332.45061
  20731086.1364   -1500525.82447  -1150358.23563
  23495877.995    -4715411.614 5  -3608268.20221
 91  4 25 20 41 29.9990000  0  6G18G 2G11G16G19G 6
  21640548.956     4438226.421 7   3452464.06022
  21801596.159   -11154990.714 7  -8647748.76222
  22779374.8864   -6269878.92646  -4820787.41161
  23460149.065    -4611025.509 5  -3386107.87721
  20730731.4874   -1502392.13547  -1151812.50863
  23487986.0034   -4756896.34745  -3640593.79161
 91  4 25 20 41 44.9990000  0  6G18G 2G11G16G19G 6
  21646404.144     4468978.658 7   3476426.78622
  21793498.2614  -11197550.88947  -8680912.44262
  22776898.2534   -6282892.97746  -4830928.22061
  23457059.034    -4627285.796 5  -3398778.23721
  20730386.7224   -1504209.02847  -1153228.27363
  23480093.589    -4798369.673 5  -3672910.49721
 91  4 25 20 41 59.9990000  0  6G18G 2G11G16G19G 6
  21652270.9334    4499814.76147   3500454.86362
  21785410.909   -11240037.772 7  -8714019.02522
  22774448.9644   -6295759.55246  -4840954.11461
  23453992.0894   -4643414.71945  -3411346.27361
  20730048.7374   -1505979.79647  -1154608.09363
  23472198.175    -4839835.123 5  -3705221.07721
 91  4 25 20 42 14.9990000  0  6G18G 2G11G16G19G 6
  21658156.214     4530736.770 7   3524549.88222
  21777342.300   -11282449.015 7  -8747066.66822
  22772029.7614   -6308476.31646  -4850863.27961
  23450947.1514   -4659409.81445  -3423810.00061
  20729721.6364   -1507702.09647  -1155950.15063
  23464308.308    -4881290.443 5  -3737523.73521
 91  4 25 20 42 29.9990000  0  6G18G 2G11G16G19G 6
  21664059.042     4561750.368 7   3548716.26722
  21769285.495   -11324778.570 7  -8780050.65522
  22769638.761    -6321037.366 6  -4860651.09821
  23447928.4484   -4675265.52745  -3436165.10061
  20729401.3154   -1509370.10347  -1157249.90163
  23456424.136    -4922729.695 5  -3769813.85321
 91  4 25 20 42 44.9990000  0  6G18G 2G11G16G19G 6
  21669976.4094    4592858.68247   3572956.44862
  21761245.120   -11367023.378 7  -8812968.60822
  22767276.7844   -6333439.56146  -4870315.12661
  23444935.3864   -4690978.66145  -3448409.12961
  20729098.6594   -1510980.74447  -1158504.94963
  23448541.964    -4964150.024 5  -3802089.26121
 91  4 25 20 42 59.9990000  0  6G18G 2G11G16G19G 6
  21675914.6984    4624060.68347   3597269.63662
  21753224.284   -11409184.022 7  -8845820.98022
  22764951.0734   -6345683.50746  -4879855.86961
  23441982.386    -4706549.815 5  -3460542.51221
  20728801.6204   -1512534.65747  -1159715.79463
  23440672.456    -5005552.041 5  -3834350.41721
 91  4 25 20 43 14.9990000  0  6G18G 2G11G16G19G 6
  21681871.3314    4655368.92347   3621665.61062
  21745219.276   -11451247.748 7  -8878597.83022
  22762652.3474   -6357756.25746  -4889263.20061
  23439037.9874   -4721966.30245  -3472555.38761
  20728518.7454   -1514019.03547  -1160872.45963
  23432790.8314   -5046923.01645  -3866587.35061
 91  4 25 20 43 29.9990000  0  6G18G 2G11G16G19G 6
  21687849.8474    4686782.76547   3646143.86262
  21737230.105   -11493214.913 6  -8911299.44122
  22760386.6834   -6369658.28946  -4898537.51161
  23436136.0344   -4737228.71645  -3484448.19861
  20728248.1984   -1515434.08447  -1161975.10063
  23424928.2694   -5088263.55945  -3898800.57561
 91  4 25 20 43 44.9990000  0  6G18G 2G11G16G19G 6
  21693847.5114    4718301.01247   3670703.47462
  21729263.323   -11535086.505 7  -8943926.58322
  22758153.7224   -6381390.64346  -4907679.60261
  23433259.4404   -4752338.07845  -3496221.77461
  20727993.5814   -1516780.77147  -1163024.46963
  23417066.995    -5129574.680 5  -3930990.90121
 91  4 25 20 43 59.9990000  0  6G18G 2G11G16G19G 6
  21699866.339     4749928.280 7   3695348.04622
  21721317.1364  -11576857.69947  -8976475.49862
  22755953.9874   -6392948.36146  -4916685.62061
  23430418.2764   -4767289.79845  -3507872.50061
  20727750.8474   -1518054.37247  -1164016.89763
  23409210.050    -5170851.571 5  -3963154.52721
 91  4 25 20 44 14.9990000  0  6G18G 2G11G16G19G 6
  21705908.917     4781674.574 7   3720085.36122
  21713388.870   -11618518.177 7  -9008938.12722
  22753789.0034   -6404321.07546  -4925547.47361
  23427602.8394   -4782073.48645  -3519392.28761
  20727524.2764   -1519244.58047  -1164944.33663
  23401367.120    -5212084.014 5  -3995283.53221
 91  4 25 20 44 29.9990000  0  6G18G 2G11G16G19G 6
  21711970.917     4813535.860 7   3744912.28522
  21705481.7844  -11660071.65547  -9041317.39262
  22751660.1444   -6415512.51746  -4934268.07261
  23424823.753    -4796692.717 5  -3530783.89721
  20727313.7924   -1520354.99847  -1165809.59963
  23393532.065    -5253275.812 5  -4027380.82821
 91  4 25 20 44 44.9990000  0  6G18G 2G11G16G19G 6
  21718059.1444    4845522.69547   3769837.03062
  21697594.065   -11701507.152 7  -9073604.72022
  22749567.1364   -6426511.66446  -4942838.83461
  23422075.3004   -4811136.91845  -3542039.14961
  20727119.5974   -1521374.72547  -1166604.20363
  23385696.3624   -5294416.06545  -4059438.01961
 91  4 25 20 44 59.9990000  0  6G18G 2G11G16G19G 6
  21724169.4954    4877641.45747   3794864.57562
  21689735.308   -11742818.242 7  -9105795.10722
  22747512.3474   -6437312.24146  -4951254.87461
  23419360.800    -4825399.749 5  -3553153.07521
  20726942.9874   -1522297.49147  -1167323.25063
  23377881.433    -5335498.621 5  -4091450.22721
 91  4 25 20 45 14.9990000  0  6G18G 2G11G16G19G 6
  21730308.448     4909893.888 7   3819996.27822
  21681895.7144  -11784002.81147  -9137886.91262
  22745495.1594   -6447912.03846  -4959514.45761
  23416682.1124   -4839479.13745  -3564124.07461
  20726786.995    -1523121.212 7  -1167965.12523
  23370067.5504   -5376521.25945  -4123415.74761
 91  4 25 20 45 29.9990000  0  6G18G 2G11G16G19G 6
  21736469.9174    4942280.53747   3845232.56862
  21674083.2534  -11825059.87847
  22743519.2064   -6458309.99346  -4967616.76761
  23414027.1514   -4853374.19044  -3574951.41161
  20726646.198    -1523844.789 7  -1168528.96023
  23362276.644    -5417483.075 5
 91  4 25 20 45 44.9990000  0  6G18G 2G11G16G19G 6
  21742658.0034    4974796.90947   3870569.94362
  21666295.7224  -11865993.91347
  22741577.3784   -6468510.51446  -4975565.22661
  23411429.183    -4867089.644 5  -3585638.81421
  20726529.761    -1524472.523 6  -1169018.11523
  23354493.284    -5458388.681 5
 91  4 25 20 45 59.9990000  0  6G18G 2G11G16G19G 6
  21748872.9404    5007446.71147   3896011.28162
  21658529.3004  -11906800.99847
  22739673.8784   -6478509.81446  -4983356.89761
  23408851.8784   -4880621.55045  -3596183.18861
  20726431.7224   -1525000.67146  -1169429.66963
  23346719.698    -5499234.270 5
 91  4 25 20 46 14.9990000  0  6G18G 2G11G16G19G 6
  21755110.8474    5040232.81047   3921558.83262
  21650788.2454  -11947477.97347  -9265269.88562
  22737810.8474   -6488304.74746  -4990989.31362
  23406314.042    -4893966.913 5  -3606582.21421
  20726349.1674   -1525426.15946  -1169761.22263
  23338961.636    -5540016.724 5  -4250814.66921
 91  4 25 20 46 29.9990000  0  6G18G 2G11G16G19G 6
  21761373.5114    5073149.90447   3947208.45562
  21643072.9564  -11988029.43947  -9296868.36563
  22735984.3474   -6497900.14246  -4998466.23361
  23403808.7144   -4907130.30945  -3616839.44561
  20726285.6124   -1525753.70647  -1170016.46163
  23331208.8554   -5580740.87045  -4282547.61761
 91  4 25 20 46 44.9990000  0  6G18G 2G11G16G19G 6
  21767661.6754    5106193.89747   3972956.96062
  21635379.1834  -12028459.51347  -9328372.25062
  22734194.3474   -6507299.98946  -5005790.78161
  23401337.0814   -4920116.15145  -3626958.30461
  20726242.401    -1525987.358 7  -1170198.53823
  23323470.370    -5621411.014 5  -4314238.49021
 91  4 25 20 46 59.9990000  0  6G18G 2G11G16G19G 6
  21773976.2224    5139372.74047   3998810.54862
  21627709.2454  -12068760.01647  -9359775.18062
  22732446.0424   -6516495.93646  -5012956.44961
  23398899.120    -4932915.923 5  -3636932.19821
  20726216.0034   -1526118.76447
  23315748.2534   -5662018.78645  -4345880.73761
 91  4 25 20 47 14.9990000  0  6G18G 2G11G16G19G 6
  21780314.2374    5172679.26047   4024763.61762
  21620063.1904  -12108937.77447  -9391082.46162
  22730731.2454   -6525494.88546  -5019968.61161
  23396490.1204   -4945536.91845  -3646766.78561
  20726210.1984   -1526154.90147
  23308023.7534   -5702571.19645  -4377479.86961
 91  4 25 20 47 29.9990000  0  6G18G 2G11G16G19G 6
  21786674.0814    5206106.97146   4050811.12262
  21612439.8944  -12148998.99447  -9422298.93362
  22729055.839    -6534302.884 6  -5026832.00021
  23394133.050    -4957985.270 5  -3656466.84121
  20726221.2534   -1526101.86647
  23300318.6054   -5743074.33845  -4409040.61361
 91  4 25 20 47 44.9990000  0  6G18G 2G11G16G19G 6
  21793061.8004    5239660.83347   4076956.92262
  21604839.4254  -12188938.75947  -9453420.76362
  22727417.1054   -6542915.01146  -5033542.75861
  23391799.894    -4970256.043 5  -3666028.52421
  20726251.0264   -1525954.69147
  23292626.503    -5783523.391 5  -4440559.19421
 91  4 25 20 47 59.9990000  0  6G18G 2G11G16G19G 6
  21799470.1204    5273337.81147   4103198.66362
  21597261.5974  -12228759.53447  -9484449.87962
  22725815.534    -6551333.886 6  -5040102.93521
  23389495.0034   -4982351.97645  -3675453.96761
  20726292.6754   -1525715.78047
  23284937.550    -5823920.992 5  -4472037.67521
 91  4 25 20 48 14.9990000  0  6G18G 2G11G16G19G 6
  21805905.0584    5307154.46747   4129549.24062
  21589710.4404  -12268444.61447  -9515373.24962
  22724253.847    -6559542.774 6  -5046499.47921
  23387226.519    -4994256.654 5  -3684730.37721
  20726360.9804   -1525368.39047  -1169716.27063
  23277259.065    -5864250.674 5  -4503463.26121
 91  4 25 20 48 29.9990000  0  6G18G 2G11G16G19G 6
  21812363.8784    5341101.78347   4156001.62762
  21582180.8554  -12308002.70147  -9546197.67662
  22722730.7224   -6567550.35646  -5052739.17561
  23384995.980    -5005978.778 5  -3693864.56121
  20726445.7614   -1524921.14547  -1169367.78162
  23269601.3944   -5904520.78145  -4534842.39161
 91  4 25 20 48 44.9990000  0  6G18G 2G11G16G19G 6
  21818850.9404    5375196.24447   4182568.68262
  21574681.7614  -12347416.70347  -9576909.81662
  22721246.4404   -6575339.65746  -5058808.74761
  23382809.565    -5017501.192 5  -3702843.10321
  20726553.5894   -1524357.13447  -1168928.29163
  23261946.909    -5944714.722 5  -4566162.17221
 91  4 25 20 48 59.9990000  0  6G18G 2G11G16G19G 6
  21825369.5894    5409443.39546   4209254.71162
  21567212.2304  -12386681.33947  -9607505.57162
  22719806.1984   -6582905.30646  -5064704.06261
  23380654.612    -5028818.893 5  -3711662.13021
  20726681.6054   -1523671.01447  -1168393.66563
  23254311.776    -5984827.145 5  -4597418.45421
 91  4 25 20 49 14.9990000  0  6G18G 2G11G16G19G 6
  21831915.1754    5443844.43846   4236060.65162
  21559767.0424  -12425795.09047  -9637983.74962
  22718408.230    -6590245.761 6  -5070423.88721
  23378541.675    -5039930.562 5  -3720320.61721
  20726836.206    -1522861.171 7  -1167762.63023
  23246699.3154   -6024856.55345  -4628610.03361
 91  4 25 20 49 29.9990000  0  6G18G 2G11G16G19G 6
  21838490.1204    5478394.81747   4262982.96162
  21552351.0424  -12464761.79147  -9668347.35162
  22717053.5424   -6597365.02246  -5075971.36361
  23376465.565    -5050840.113 5  -3728821.62621
  20727013.269    -1521931.693 7  -1167038.37623
  23239097.183    -6064806.972 5  -4659740.07521
 91  4 25 20 49 44.9990000  0  6G18G 2G11G16G19G 6
  21845096.4804    5513108.95247   4290032.86662
  21544966.3394  -12503566.98447  -9698585.09962
  22715745.7304   -6604248.66646  -5081335.24761
  23374424.2534   -5061533.32745  -3737154.04461
  20727215.4644   -1520867.98747  -1166209.51763
  23231515.0344   -6104664.06245  -4690797.37361
 91  4 25 20 49 59.9990000  0  6G18G 2G11G16G19G 6
  21851737.7694    5547999.62747   4317220.35362
  21537616.2844  -12542197.58747  -9728686.80962
  22714482.5974   -6610883.57446  -5086505.30761
  23372435.7454   -5071997.08545  -3745307.66061
  20727444.6594   -1519656.84547  -1165265.77963
  23223948.878    -6144414.811 5  -4721771.80921
 91  4 25 20 50 14.9990000  0  6G18G 2G11G16G19G 6
  21858410.0114    5583078.13747   4344554.19262
  21530300.2694  -12580642.08847  -9758643.49862
  22713272.0034   -6617258.18446  -5091472.53861
  23370490.105    -5082219.635 5  -3753273.33521
  20727707.714    -1518286.841 7  -1164198.25723
  23216402.0734   -6184047.60645  -4752654.37461
 91  4 25 20 50 29.9990000  0  6G18G 2G11G16G19G 6
  21865121.9874    5618350.75346   4372039.28162
  21523022.1284  -12618893.94147  -9788450.07262
  22712107.448    -6623366.106 6  -5096231.97921
  23368590.058    -5092194.670 5  -3761046.12421
  20727997.4724   -1516751.55947  -1163001.94263
  23208878.9404   -6223556.08245  -4783440.02461
 91  4 25 20 50 44.9990000  0  6G18G 2G11G16G19G 6
  21871872.3314    5653821.59246   4399678.83262
  21515780.3784  -12656948.78347  -9818103.14162
  22710996.1984   -6629202.82246  -5100780.07961
  23366742.151    -5101918.260 5  -3768623.00121
  20728324.706    -1515046.577 7  -1161673.39823
  23201392.4724   -6262935.85445  -4814125.39561
 91  4 25 20 50 59.9990000  0  6G18G 2G11G16G19G 6
  21878662.855     5689499.932 7   4427480.06522
  21508575.8004  -12694797.13347  -9847595.29862
  22709940.0734   -6634759.03546  -5105109.60561
  23364941.4644   -5111380.77545  -3775996.44161
  20728680.9404   -1513162.27346  -1160205.12563
  23193920.9954   -6302177.59245  -4844703.23061
 91  4 25 20 51 14.9990000  0  6G18G 2G11G16G19G 6
  21885492.5424    5725384.08247   4455441.66961
  21501416.2924  -12732440.22447  -9876927.51262
  22708935.917    -6640035.966 6  -5109221.50921
  23363189.433    -5120583.807 5  -3783167.68221
  20729074.2144   -1511099.88646  -1158598.07663
  23186480.581    -6341282.571 5  -4875174.47721
 91  4 25 20 51 29.9990000  0  6G18G 2G11G16G19G 6
  21892362.0264    5761488.69047   4483575.06862
  21494291.1364  -12769863.19847  -9906088.20463
  22707987.3314   -6645018.65646  -5113104.13961
  23361487.183    -5129512.388 5  -3790125.05621
  20729503.409    -1508844.456 6  -1156840.61323
  23179069.3944   -6380235.90745  -4905527.56061
 91  4 25 20 51 44.9990000  0  6G18G 2G11G16G19G 6
  21899271.7064    5797802.09546   4511871.16461
  21487210.4874  -12807077.61047  -9935086.38463
  22707091.9724   -6649718.75146  -5116766.54361
  23359843.675    -5138178.116 5  -3796877.57421
  20729966.9254   -1506407.47146  -1154941.66763
  23171680.6984   -6419049.29945  -4935771.57861
 91  4 25 20 51 59.9990000  0  6G18G 2G11G16G19G 6
  21906223.1674    5834323.70546   4540329.49562
  21480168.7304  -12844083.70847  -9963922.24163
  22706252.8394   -6654136.63146  -5120209.04261
  23358237.940    -5146581.600 5  -3803425.79621
  20730463.6284   -1503789.30546  -1152901.54663
  23164325.331    -6457723.043 5  -4965906.78121
 91  4 25 20 52 14.9990000  0  6G18G 2G11G16G19G 6
  21913209.933     5871044.089 6   4568942.71222
  21473166.9484  -12880890.56047  -9992602.84063
  22705462.7064   -6658281.39146  -5123438.72661
  23356693.894    -5154731.875 5  -3809776.70121
  20730996.8154   -1500999.16946  -1150727.42463
  23156986.2924   -6496266.48945  -4995940.48061
 91  4 25 20 52 29.9990000  0  6G18G 2G11G16G19G 6
  21920235.284     5907959.059 6   4597707.55221
  21466198.3154  -12917502.20247 -10021131.33263
  22704727.7694   -6662156.89146  -5126458.59861
  23355183.417    -5162633.231 5  -3815933.63421
  20731556.3004   -1498040.78146  -1148422.19363
  23149676.409    -6534683.383 5  -5025875.58021
 91  4 25 20 52 44.9990000  0  6G18G 2G11G16G19G 6
  21927292.917     5945057.538 6   4626615.38221
  21459264.8554  -12953929.26547 -10049515.99763
  22704037.5974   -6665774.02146  -5129277.15661
  23353728.3004   -5170296.71045  -3821905.21661
  20732154.2844   -1494924.90446  -1145994.24763
  23142390.8084   -6572984.67545  -5055720.59461
 91  4 25 20 52 59.9990000  0  6G18G 2G11G16G19G 6
  21934386.9954    5982332.51546   4655660.74561
  21452369.3624  -12990178.42047 -10077762.02763
  22703398.0814   -6669139.33047  -5131899.48061
  23352320.1204   -5177728.90045  -3827696.56461
  20732773.9874   -1491658.15746  -1143448.73863
  23135122.3624   -6611176.98045  -5085480.66961
 91  4 25 20 53 14.9990000  0  6G18G 2G11G16G19G 6
  21941509.4014    6019767.78846   4684831.02461
  21445499.3864  -13026265.57147 -10105881.83463
  22702802.433    -6672268.887 6  -5134338.11021
  23350940.2694   -5184945.87345  -3833320.22561
  20733421.3864   -1488256.59946  -1140798.18263
  23127870.339    -6649276.418 5  -5115168.40721
 91  4 25 20 53 29.9990000  0  6G18G 2G11G16G19G 6
  21948664.4804    6057354.66546   4714119.43661
  21438661.2694  -13062199.32247 -10133882.09463
  22702251.933    -6675171.193 6  -5136599.67521
  23349607.995    -5191956.167 5  -3838782.83121
  20734093.3234   -1484728.65046  -1138049.13663
  23120639.198    -6687291.493 5  -5144790.37821
 91  4 25 20 53 44.9990000  0  6G18G 2G11G16G19G 6
  21955842.5894    6095079.31646   4743515.20161
  21431850.4094  -13097993.40447 -10161773.52963
  22701736.308    -6677859.947 6  -5138694.81021
  23348312.5194   -5198773.53545  -3844095.13361
  20734786.7454   -1481087.92146  -1135212.21563
  23113416.8084   -6725235.98345  -5174357.32461
 91  4 25 20 53 59.9990000  0  6G18G 2G11G16G19G 6
  21963044.636     6132935.178 6   4773013.20121
  21425066.5584  -13133653.97547 -10189560.92763
  22701264.534    -6680341.504 6  -5140628.51021
  23347053.2534   -5205404.29745  -3849261.99661
  20735499.698    -1477340.528 6  -1132292.18223
  23106207.487    -6763116.119 5  -5203874.16921
 91  4 25 20 54 14.9990000  0  6G18G 2G11G16G19G 6
  21970273.534     6170917.373 6   4802609.64221
  21418301.9254  -13169185.43947 -10217247.72663
  22700831.5504   -6682620.27646  -5142404.17861
  23345824.151    -5211853.128 5  -3854287.11421
  20736232.1754   -1473490.97646  -1129292.54263
  23099014.151    -6800936.367 5  -5233344.33021
 91  4 25 20 54 29.9990000  0  6G18G 2G11G16G19G 6
  21977525.026     6209016.543 6   4832297.23622
  21411565.2224  -13204597.13247 -10244841.19563
  22700435.6444   -6684705.57446  -5144029.08061
  23344625.7454   -5218129.47045  -3859177.79261
  20736980.6204   -1469548.50046  -1126220.48563
  23091821.870    -6838705.907 5  -5262775.00021
 91  4 25 20 54 44.9990000  0  6G18G 2G11G16G19G 6
  21984797.534     6247229.873 6   4862073.78122
  21404850.2224  -13239891.39147 -10272343.15363
  22700075.7454   -6686599.92646  -5145505.19761
  23343463.995    -5224235.857 5  -3863936.06421
  20737748.9804   -1465515.59446  -1123077.96863
  23084644.6364   -6876427.51445  -5292168.30961
 91  4 25 20 54 59.9990000  0  6G18G 2G11G16G19G 6
  21992086.7614    6285541.68046   4891927.06562
  21398152.4334  -13275083.80047 -10299765.75163
  22699747.5734   -6688318.81846  -5146844.59261
  23342333.5894   -5230187.91845  -3868574.11061
  20738528.4564   -1461407.75946  -1119877.06563
  23077477.3394   -6914116.61645  -5321536.28561
 91  4 25 20 55 14.9990000  0  6G18G 2G11G16G19G 6
  21999394.097     6323946.970 6   4921853.19122
  21391473.7614  -13310179.11947 -10327112.69662
  22699453.9254   -6689867.09146  -5148051.04661
  23341221.628    -5235990.442 5  -3873095.59121
  20739328.1204   -1457229.66947  -1116621.42063
  23070300.8154   -6951777.93145  -5350882.60661
 91  4 25 20 55 29.9990000  0  6G18G 2G11G16G19G 6
  22006716.3864    6362426.93746   4951837.50862
  21384810.605   -13345195.693 7 -10354398.28122
  22699188.7534   -6691263.07946  -5149138.83661
  23340156.3784   -5241662.09545  -3877515.13561
  20740128.8784   -1452999.73147  -1113325.37163
  23063143.0114   -6989430.08545  -5380221.80861
 91  4 25 20 55 44.9990000  0  6G18G 2G11G16G19G 6
  22014056.8314    6400985.42046   4981883.01062
  21378162.1204  -13380129.69047 -10381619.51963
  22698952.0974   -6692502.89846  -5150104.93461
  23339096.5814   -5247199.16945  -3881829.78861
  20740947.2454   -1448713.84147  -1109985.72663
  23055980.089    -7027069.095 5  -5409550.77821
 91  4 25 20 55 59.9990000  0  6G18G 2G11G16G19G 6
  22021405.0344    6439602.46846   5011974.14162
  21371527.308   -13415000.791 7 -10408791.74623
  22698740.9484   -6693606.41246  -5150964.82861
  23338061.0114   -5252621.33245  -3886054.88761
  20741769.0584   -1444391.81747  -1106617.92063
  23048811.972    -7064714.896 5  -5438885.01821
 91  4 25 20 56 14.9990000  0  6G18G 2G11G16G19G 6
  22028761.6674    6478275.14246   5042108.62962
  21364902.6204  -13449811.49347 -10435916.91163
  22698557.9014   -6694576.10246  -5151720.43461
  23337052.011    -5257931.041 5  -3890192.38821
  20742598.8084   -1440036.12247  -1103223.87963
  23041650.1834   -7102369.86245  -5468226.43061
 91  4 25 20 56 29.9990000  0  6G18G 2G11G16G19G 6
  22036131.6364    6516998.61546   5072282.69162
  21358291.5734  -13484566.40147 -10462998.58963
  22698395.4804   -6695416.57646  -5152375.35161
  23336061.5734   -5263133.45345  -3894246.25161
  20743430.0654   -1435651.10347  -1099806.98963
  23034480.565    -7140038.570 5  -5497578.55121
 91  4 25 20 56 44.9990000  0  6G18G 2G11G16G19G 6
  22043511.1674    6555765.61446   5102490.67962
  21351684.190   -13519272.541 7 -10490042.27823
  22698259.8864   -6696134.92046  -5152935.10461
  23335095.714    -5268235.382 5  -3898221.83921
  20744272.7064   -1431243.94547  -1096372.84863
  23027306.370    -7177728.116 5  -5526946.91021
 91  4 25 20 56 59.9990000  0  6G18G 2G11G16G19G 6
  22050894.2304    6594578.48246   5132734.41561
  21345092.2224  -13553927.23147 -10517045.87063
  22698146.7304   -6696728.59346  -5153397.72161
  23334143.5894   -5273234.52745  -3902117.31261
  20745114.9644   -1426812.08547  -1092919.45263
  23020131.753    -7215436.012 5  -5556329.54921
 91  4 25 20 57 14.9990000  0  6G18G 2G11G16G19G 6
  22058283.214     6633415.574 6   5162997.02621
  21338501.823   -13588551.764 7 -10544025.97523
  22698056.894    -6697218.961 6  -5153779.82921
  23333203.6364   -5278152.26645  -3905949.36961
  20745958.3864   -1422376.80447  -1089463.39363
  23012949.940    -7253183.665 5  -5585743.16921
 91  4 25 20 57 29.9990000  0  6G18G 2G11G16G19G 6
  22065680.9404    6672281.93946   5193282.44261
  21331920.073   -13623140.892 7 -10570978.48523
  22697984.3234   -6697600.73346  -5154077.33161
  23332289.7924   -5282983.42445  -3909713.97361
  20746803.4484   -1417932.68747  -1086000.45162
  23005762.4484   -7290965.75945  -5615183.62861
 91  4 25 20 57 44.9990000  0  6G18G 2G11G16G19G 6
  22073081.534     6711172.747 6   5223586.89721
  21325342.550   -13657699.107 7 -10597906.91523
  22697926.815    -6697878.471 6  -5154293.76021
  23331386.972    -5287732.805 5  -3913414.85121
  20747651.4484   -1413484.16847  -1082534.07763
  22998562.144    -7328786.798 5  -5644654.42621
 91  4 25 20 57 59.9990000  0  6G18G 2G11G16G19G 6
  22080484.1204    6750080.48446   5253904.54861
  21318770.7374  -13692233.82647 -10624817.02963
  22697894.1984   -6698059.67746
  23330493.862    -5292407.698 5  -3917057.69621
  20748494.3084   -1409038.55847  -1079069.97262
  22991358.8234   -7366654.17445  -5674161.33661
 91  4 25 20 58 14.9990000  0  6G18G 2G11G16G19G 6
  22087892.0654    6788997.05946   5284229.08161
  21312202.183   -13726752.548 7 -10651714.67723
  22697877.6904   -6698152.01046
  23329616.1594   -5297016.01445  -3920648.66461
  20749340.0264   -1404603.40946  -1075614.01962
  22984143.425    -7404575.581 5  -5703710.36121
 91  4 25 20 58 29.9990000  0  6G18G 2G11G16G19G 6
  22095299.230     6827927.074 6   5314564.08021
  21305637.8154  -13761250.67247 -10678596.27763
  22697878.7304   -6698150.95346
  23328751.7614   -5301553.35745  -3924184.33461
  20750184.308    -1400174.202 6  -1072162.69922
  22976916.487    -7442546.575 5  -5733298.02121
 91  4 25 20 58 44.9990000  0  6G18G 2G11G16G19G 6
  22102708.987     6866860.763 6   5344901.92621
  21299074.362   -13795737.611 7 -10705469.16423
  22697896.0974   -6698065.89946
  23327901.237    -5306029.217 5  -3927672.08021
  20751024.5974   -1395760.28847  -1068723.29963
  22969676.550    -7480576.394 5  -5762931.51221
 91  4 25 20 58 59.9990000  0  6G18G 2G11G16G19G 6
  22110120.550     6905804.009 6   5375247.24621
  21292514.214   -13830207.062 7 -10732328.42423
  22697920.8314   -6697890.51246
  23327055.4094   -5310436.97145  -3931106.76961
  20751861.4804   -1391355.20947  -1065290.76862
  22962431.050    -7518658.757 5  -5792605.97721
 91  4 25 20 59 14.9990000  0  6G18G 2G11G16G19G 6
  22117529.2694    6944751.57346   5405595.91861
  21285958.073   -13864664.269 7 -10759178.14423
  22697976.9334   -6697629.99246
  23326235.987    -5314782.438 5  -3934492.91821
  20752698.1204   -1386964.10047  -1061869.13562
  22955171.9404   -7556798.95945  -5822325.47161
 91  4 25 20 59 29.9990000  0  6G18G 2G11G16G19G 6
  22124941.589     6983704.344 6   5435948.64521
  21279403.690   -13899108.131 7 -10786017.46823
  22698042.9564   -6697283.48446  -5153830.13761
  23325415.417    -5319064.307 5  -3937829.50821
  20753528.9094   -1382585.66447  -1058457.37463
  22947904.8394   -7594995.84845  -5852089.16561
 91  4 25 20 59 44.9990000  0  6G18G 2G11G16G19G 6
  22132356.8704    7022667.88946   5466309.78961
  21272852.151   -13933532.821 7 -10812841.84523
  22698126.1284   -6696845.14846  -5153488.59361
  23324617.550    -5323277.093 5  -3941112.26321
  20754365.4174   -1378214.18947  -1055051.03762
  22940627.4174   -7633243.65945  -5881892.51061
 91  4 25 20 59 59.9990000  0  6G18G 2G11G16G19G 6
  22139776.0654    7061651.99046   5496686.93161
  21266306.159   -13967928.280 7 -10839643.45123
  22698232.440    -6696305.055 6  -5153067.75521
  23323831.542    -5327411.264 5  -3944333.75221
  20755190.8624   -1373839.75847  -1051642.39862
  22933341.472    -7671532.481 5  -5911727.81821
 91  4 25 21  0 14.9990000  0  6G18G 2G11G16G19G 6
  22147197.386     7100644.641 6   5527070.75021
  21259765.6754  -14002306.08047 -10866431.29363
  22698348.433    -6695674.705 6  -5152576.59521
  23323060.6754   -5331478.21545  -3947502.89361
  20756027.9954   -1369473.74047  -1048240.31562
  22926042.550    -7709873.855 5  -5941604.07221
 91  4 25 21  0 29.9990000  0  6G18G 2G11G16G19G 6
  22154619.2844    7139660.34146   5557472.52162
  21253229.128   -14036651.434 7 -10893193.85423
  22698491.417    -6694939.448 6  -5152003.68421
  23322301.753    -5335463.361 5  -3950608.26321
  20756857.3554   -1365101.38047  -1044833.29062
  22918739.628    -7748253.019 5  -5971509.78021
 91  4 25 21  0 44.9990000  0  6G18G 2G11G16G19G 6
  22162047.081     7178705.723 6   5587897.43822
  21246699.597   -14070957.585 7 -10919925.86823
  22698650.2614   -6694092.53446  -5151343.75861
  23321557.6594   -5339360.15145  -3953644.79661
  20757692.2764   -1360715.86047  -1041416.01163
  22911430.7764   -7786663.12545  -6001439.60061
 91  4 25 21  0 59.9990000  0  6G18G 2G11G16G19G 6
  22169489.0034    7217786.24046   5618349.72862
  21240181.1364  -14105218.68047 -10946622.76663
  22698831.5894   -6693128.25646  -5150592.37861
  23320832.6444   -5343162.69045  -3956607.90761
  20758529.1834   -1356311.34647  -1037983.92863
  22904116.8084   -7825098.54345  -6031389.16961
 91  4 25 21  1 14.9990000  0  6G18G 2G11G16G19G 6
  22176929.698     7256902.823 6   5648830.11022
  21233670.175   -14139433.573 7 -10973283.67223
  22699039.0814   -6692045.50946  -5149748.67561
  23320131.6754   -5346869.93745  -3959496.72661
  20759372.0034   -1351886.51947  -1034536.01663
  22896801.0344   -7863558.00145  -6061357.42761
 91  4 25 21  1 29.9990000  0  6G18G 2G11G16G19G 6
  22184381.9644    7296059.54746   5679341.77162
  21227170.901   -14173597.911 7 -10999905.17823
  22699268.1054   -6690840.03746  -5148809.34862
  23319446.456    -5350477.940 5  -3962308.24121
  20760219.9644   -1347437.18547  -1031069.01363
  22889476.9644   -7902037.25845  -6091341.14261
 91  4 25 21  1 44.9990000  0  6G18G 2G11G16G19G 6
  22191842.1594    7335257.40146   5709885.49562
  21220677.487   -14207710.415 7 -11026486.30423
  22699520.8084   -6689510.63646  -5147773.46062
  23318775.987    -5353985.570 5  -3965041.53421
  20761073.1594   -1342961.89347  -1027581.78563
  22882145.581    -7940535.102 5  -6121339.31521
 91  4 25 21  1 59.9990000  0  6G18G 2G11G16G19G 6
  22199309.5344    7374506.74946   5740469.33962
  21214198.519   -14241760.400 7 -11053018.70523
  22699797.308    -6688046.808 6  -5146632.83521
  23318132.7064   -5357382.00145  -3967688.18161
  20761928.5264   -1338449.76447  -1024065.84863
  22874819.933    -7979040.819 5  -6151343.62921
 91  4 25 21  2 14.9990000  0  6G18G 2G11G16G19G 6
  22206787.8554    7413802.19046   5771089.09061
  21207729.190   -14275753.226 7 -11079506.56723
  22700104.0814   -6686453.98646  -5145391.67461
  23317501.355    -5360672.896 5  -3970252.59521
  20762794.495    -1333906.217 6  -1020525.43423
  22867489.0974   -8017559.85745  -6181358.32161
 91  4 25 21  2 29.9990000  0  6G18G 2G11G16G19G 6
  22214275.940     7453145.240 6   5801745.93521
  21201271.417   -14309686.765 7 -11105948.23623
  22700430.058    -6684730.114 6  -5144048.42321
  23316894.0114   -5363856.93945  -3972733.73361
  20763665.1204   -1329329.17247  -1016958.91963
  22860158.6054   -8056090.16545  -6211381.79461
 91  4 25 21  2 44.9990000  0  6G18G 2G11G16G19G 6
  22221772.058     7492537.177 6   5832440.87621
  21194827.886   -14343559.839 7 -11132342.78423
  22700782.0424   -6682873.87746  -5142602.01961
  23316317.347    -5366932.376 5  -3975130.25421
  20764541.3154   -1324717.19946  -1013365.18663
  22852823.3624   -8094630.47645  -6241413.05661
 91  4 25 21  2 59.9990000  0  6G18G 2G11G16G19G 6
  22229277.2374    7531979.00146   5863174.70661
  21188391.323   -14377371.134 7 -11158689.20323
  22701161.4644   -6680884.10146  -5141051.55161
  23315747.0344   -5369898.06045  -3977441.25661
  20765426.5344   -1320069.08447  -1009743.28063
  22845491.730    -8133179.431 5  -6271451.05121
 91  4 25 21  3 14.9980000  0  6G18G 2G11G16G19G 6
  22236791.873     7571461.762 6   5893940.41921
  21181969.631   -14411124.182 7 -11184990.22623
  22701563.998    -6678766.846 6  -5139401.77021
  23315204.553    -5372759.921 5  -3979671.35821
  20766317.842    -1315390.842 6  -1006097.91523
  22838150.889    -8171740.315 5  -6301498.35621
 91  4 25 21  3 29.9980000  0  6G18G 2G11G16G19G 6
  22244313.451     7611000.687 6   5924749.89721
  21175558.826   -14444813.200 7 -11211241.36523
  22701995.623    -6676511.689 6  -5137644.52221
  23314681.982    -5375508.096 5  -3981812.85221
  20767212.8264   -1310671.73747  -1002420.69763
  22830813.7404   -8210308.22645  -6331551.15361
 91  4 25 21  3 44.9980000  0  6G18G 2G11G16G19G 6
  22251846.107     7650589.048 6   5955597.89321
  21169159.240   -14478439.822 7 -11237443.87223
  22702447.506    -6674122.691 6  -5135782.98821
  23314180.209    -5378146.404 5  -3983868.75821
  20768121.076    -1305915.866 7   -998714.83823
  22823473.131    -8248884.316 5  -6361610.29821
 91  4 25 21  3 59.9980000  0  6G18G 2G11G16G19G 6
  22259392.334     7690233.818 6   5986489.84721
  21162774.053   -14511997.411 7 -11263592.59923
  22702931.7174   -6671593.16046  -5133811.93561
  23313702.279    -5380668.347 5  -3985833.97421
  20769034.014    -1301116.331 7   -994974.95623
  22816127.2254   -8287461.92845  -6391670.62561
 91  4 25 21  4 14.9980000  0  6G18G 2G11G16G19G 6
  22266944.6234    7729932.30846   6017423.66661
  21156402.623   -14545487.874 7 -11289689.01323
  22703436.9674   -6668925.03346  -5131732.89061
  23313241.943    -5383075.828 5  -3987710.00721
  20769956.178    -1296274.939 7   -991202.46123
  22808788.623    -8326042.783 5  -6421733.47821
 91  4 25 21  4 29.9980000  0  6G18G 2G11G16G19G 6
  22274510.9904    7769690.46146   6048403.98361
  21150039.436   -14578905.142 7 -11315728.39823
  22703974.2794   -6666112.34946  -5129541.19261
  23312808.3814   -5385363.31845  -3989492.57661
  20770884.8574   -1291385.56847   -987392.57063
  22801449.7564   -8364620.99245  -6451794.27461
 91  4 25 21  4 44.9980000  0  6G18G 2G11G16G19G 6
  22282089.3654    7809514.06846   6079435.30161
  21143696.115   -14612243.045 7 -11341705.93923
  22704537.4124   -6663149.11546  -5127232.18361
  23312397.381    -5387524.631 5  -3991176.78621
  20771826.076    -1286441.945 7   -983540.41123
  22794104.6234   -8403190.39645  -6481848.21761
 91  4 25 21  4 59.9980000  0  6G18G 2G11G16G19G 6
  22289683.225     7849405.187 6   6110519.22021
  21137368.803   -14645499.308 7 -11367619.86123
  22705129.4754   -6660033.23746  -5124804.24161
  23312011.772    -5389557.983 5  -3992761.30921
  20772777.1474   -1281441.91847   -979644.29563
  22786770.7094   -8441748.88245  -6511893.63761
 91  4 25 21  5 14.9980000  0  6G18G 2G11G16G19G 6
  22297284.397     7889363.013 6   6141655.11321
  21131053.717   -14678674.126 7 -11393470.32623
  22705751.107    -6656765.016 6  -5122257.59721
  23311644.022    -5391463.710 5  -3994246.37421
  20773740.748    -1276385.840 7   -975704.50823
  22779430.9204   -8480296.65345  -6541930.71361
 91  4 25 21  5 29.9980000  0  6G18G 2G11G16G19G 6
  22304901.881     7929390.213 6   6172845.09021
  21124760.154   -14711765.181 7 -11419255.51423
  22706403.029    -6653342.171 6  -5119590.46821
  23311313.631    -5393239.362 5  -3995630.08821
  20774714.0144   -1271271.16347   -971719.05763
  22772106.2404   -8518831.35145  -6571957.60861
 91  4 25 21  5 44.9980000  0  6G18G 2G11G16G19G 6
  22312531.0064    7969492.88446   6204093.85961
  21118478.9434  -14744765.77347 -11444970.22063
  22707083.061    -6649758.110 6  -5116797.71821
  23310997.100    -5394878.517 5  -3996907.43921
  20775699.6074   -1266091.15247   -967682.69162
  22764771.8424   -8557346.22545  -6601969.04961
 91  4 25 21  5 59.9980000  0  6G18G 2G11G16G19G 6
  22320179.178     8009670.542 6   6235401.07121
  21112217.178   -14777676.208 7 -11470614.66323
  22707798.2724   -6646013.11646  -5113879.56361
  23310711.256    -5396381.661 5  -3998078.78921
  20776699.279    -1260846.042 7   -963595.61222
  22757448.740    -8595841.662 5  -6631965.34921
 91  4 25 21  6 14.9980000  0  6G18G 2G11G16G19G 6
  22327839.5764    8049924.96446   6266768.09061
  21105970.467   -14810494.310 7 -11496187.16123
  22708540.592    -6642105.254 6  -5110834.50521
  23310447.889    -5397746.583 5  -3999142.46321
  20777709.5224   -1255533.61547   -959456.07162
  22750126.154    -8634315.479 5  -6661944.79421
 91  4 25 21  6 29.9980000  0  6G18G 2G11G16G19G 6
  22335516.7874    8090263.73446   6298200.83561
  21099745.068   -14843212.356 7 -11521681.69223
  22709316.1314   -6638026.79746  -5107656.49161
  23310221.717    -5398965.938 5  -4000092.69821
  20778733.709    -1250146.022 7   -955257.95623
  22742808.9824   -8672759.81545  -6691901.28261
 91  4 25 21  6 44.9980000  0  6G18G 2G11G16G19G 6
  22343210.9514    8130691.01046   6329702.54861
  21093540.686   -14875825.961 7 -11547094.84223
  22710128.9514   -6633773.51846  -5104342.25161
  23310018.436    -5400035.502 5  -4000926.19921
  20779773.631    -1244678.857 7   -950997.84223
  22735497.7954   -8711170.35345  -6721831.42861
 91  4 25 21  6 59.9980000  0  6G18G 2G11G16G19G 6
  22350921.3894    8171203.95246   6361271.01761
  21087351.115   -14908337.635 7 -11572428.57423
  22710972.0294   -6629347.90346  -5100893.72561
  23309839.811    -5400957.957 5  -4001645.10121
  20780826.6154   -1239134.54347   -946677.60963
  22728197.2644   -8749549.69045  -6751737.27161
 91  4 25 21  7 14.9980000  0  6G18G 2G11G16G19G 6
  22358647.7644    8211811.04146   6392912.84361
  21081186.357   -14940738.695 7 -11597676.10723
  22711844.9674   -6624741.38746  -5097304.23361
  23309694.076    -5401724.582 5  -4002242.56121
  20781902.6004   -1233504.19947   -942290.33862
  22720907.0924   -8787889.01145  -6781611.93561
 91  4 25 21  7 29.9980000  0  6G18G 2G11G16G19G 6
  22366388.8974    8252513.97346   6424629.34861
  21075041.397   -14973027.313 7 -11622836.02723
  22712758.975    -6619952.153 6  -5093572.38021
  23309576.1154   -5402333.90845  -4002717.44061
  20782985.1704   -1227785.84347   -937834.49063
  22713615.1004   -8826186.58345  -6811454.04861
 91  4 25 21  7 44.9980000  0  6G18G 2G11G16G19G 6
  22374153.4044    8293313.58546   6456421.19761
  21068920.006   -15005202.372 7 -11647907.45823
  22713703.6934   -6614979.17646  -5089697.36461
  23309492.8114   -5402785.00545  -4003069.03361
  20784094.756    -1221978.434 7   -933309.24923
  22706333.975    -8864441.150 5  -6841262.66021
 91  4 25 21  7 59.9980000  0  6G18G 2G11G16G19G 6
  22381938.3114    8334221.91846   6488297.75161
  21062820.5374  -15037251.26247 -11672880.58363
  22714686.897    -6609810.180 6  -5085669.60321
  23309439.787    -5403065.547 5  -4003287.75021
  20785216.7254   -1216069.66947   -928705.02363
  22699063.9514   -8902640.32145  -6871028.12661
 91  4 25 21  8 14.9980000  0  6G18G 2G11G16G19G 6
  22389746.107     8375239.401 6   6520259.37921
  21056746.686   -15069173.350 7 -11697754.88723
  22715710.0374   -6604444.61846  -5081488.67461
  23309415.897    -5403174.859 5
  20786362.3264   -1210058.66347   -924021.12762
  22691807.326    -8940783.610 5  -6900750.04121
 91  4 25 21  8 29.9980000  0  6G18G 2G11G16G19G 6
  22397571.5454    8416368.54846   6552308.01261
  21050695.8264  -15100965.96547 -11722528.32063
  22716768.561    -6598879.665 6  -5077152.37021
  23309433.561    -5403110.508 5
  20787524.5224   -1203942.37347   -919255.19962
  22684555.873    -8978867.939 5  -6930425.99821
 91  4 25 21  8 44.9980000  0  6G18G 2G11G16G19G 6
  22405419.1934    8457617.07546   6584449.65061
  21044671.514   -15132621.040 7 -11747194.57323
  22717864.998    -6593107.491 6  -5072654.58421
  23309472.936    -5402864.504 5
  20788712.0454   -1197712.83147   -914401.00762
  22677325.170    -9016885.313 5  -6960049.79121
 91  4 25 21  8 59.9980000  0  6G18G 2G11G16G19G 6
  22413291.4674    8498981.14846   6616681.32961
  21038674.787   -15164142.274 7 -11771756.52923
  22719002.920    -6587131.880 6  -5067998.28521
  23309561.459    -5402440.616 5
  20789917.1234   -1191373.55947   -909461.31662
  22670101.357    -9054839.454 5  -6989624.32321
 91  4 25 21  9 14.9980000  0  6G18G 2G11G16G19G 6
  22421185.225     8540471.173 6   6649011.14721
  21032703.8034  -15195518.85947 -11796205.77963
  22720176.6004   -6580942.19346  -5063175.15961
  23309668.7484   -5401828.61145  -4002324.32661
  20791146.6154   -1184913.85347   -904427.78162
  22662891.5454   -9092719.73545  -7019141.27761
 91  4 25 21  9 29.9980000  0  6G18G 2G11G16G19G 6
  22429106.2794    8582084.33146   6681436.91461
  21026760.725   -15226753.464 7 -11820544.39223
  22721397.787    -6574541.174 6  -5058187.36321
  23309827.428    -5401030.957 5  -4001702.84721
  20792397.4904   -1178336.36747   -899302.47562
  22655696.131    -9130528.604 5  -7048602.61221
 91  4 25 21  9 44.9980000  0  6G18G 2G11G16G19G 6
  22437049.350     8623828.786 6   6713965.01021
  21020843.6394  -15257837.59547 -11844765.75163
  22722659.811    -6567920.348 6
  23310018.3654   -5400039.53345  -4000930.39961
  20793674.1474   -1171632.47846
  22648518.4594   -9168257.58345  -7078001.68661
 91  4 25 21  9 59.9980000  0  6G18G 2G11G16G19G 6
  22445017.9514    8665696.08146   6746588.82061
  21014956.9674  -15288779.40647 -11868876.21563
  22723961.068    -6561088.119 6
  23310232.607    -5398862.777 5  -4000013.55021
  20794970.2874   -1164810.44246
  22641354.740    -9205915.022 5  -7107345.02721
 91  4 25 21 10 14.9980000  0  6G18G 2G11G16G19G 6
  22453011.9204    8707697.10246   6779316.82461
  21009096.0144  -15319567.96847 -11892867.26563
  22725303.701    -6554033.701 6  -5042207.59221
  23310499.295    -5397489.884 5  -3998943.84221
  20796295.4594   -1157859.29046   -883346.32863
  22634200.6934   -9243490.03045  -7136624.11361
 91  4 25 21 10 29.9980000  0  6G18G 2G11G16G19G 6
  22461026.0144    8749817.58446   6812137.92361
  21003264.912   -15350217.054 7 -11916749.62323
  22726682.326    -6546770.891 6  -5036548.27521
  23310796.803    -5395934.928 5  -3997732.27721
  20797639.4754   -1150792.60447   -877839.82963
  22627062.3504   -9280996.21945  -7165849.60161
 91  4 25 21 10 44.9980000  0  6G18G 2G11G16G19G 6
  22469064.857     8792068.932 6   6845060.98721
  20997462.4594  -15380714.87647 -11940514.12563
  22728105.764    -6539288.112 6  -5030717.55921
  23311124.1394   -5394186.25045  -3996369.76561
  20799008.6154   -1143598.52246   -872234.06263
  22619942.1314   -9318421.83846  -7195012.29261
 91  4 25 21 10 59.9980000  0  6G18G 2G11G16G19G 6
  22477130.662     8834454.464 6   6878088.59121
  20991685.631   -15411058.057 7 -11964158.12023
  22729573.8504   -6531582.03746  -5024712.82761
  23311502.764    -5392240.199 5  -3994853.42521
  20800404.5924   -1136273.44846   -866526.21763
  22612834.209    -9355763.454 5  -7224109.54921
 91  4 25 21 11 14.9980000  0  6G18G 2G11G16G19G 6
  22485223.7174    8876970.62446   6911218.00561
  20985942.607   -15441250.196 7 -11987684.42123
  22731082.3034   -6523656.34046  -5018536.97261
  23311905.0534   -5390101.01345  -3993186.65861
  20801819.4514   -1128820.87347   -860719.02663
  22605746.3814   -9393024.58645  -7253144.07761
 91  4 25 21 11 29.9980000  0  6G18G 2G11G16G19G 6
  22493335.8974    8919612.23846   6944445.18061
  20980223.897   -15471296.036 7 -12011096.72123
  22732627.553    -6515515.758 6  -5012193.67821
  23312351.959    -5387773.510 5  -3991373.07521
  20803263.5924   -1121245.51547   -854816.15463
  22598669.537    -9430209.841 6  -7282119.48721
 91  4 25 21 11 44.9980000  0  6G18G 2G11G16G19G 6
  22501472.3734    8962380.97546   6977771.39461
  20974534.9284  -15501193.26847 -12034393.22763
  22734221.4904   -6507158.25846  -5005681.35361
  23312829.2564   -5385255.80845  -3989411.35561
  20804725.9514   -1113545.43147   -848816.09463
  22591607.084    -9467317.175 6  -7311034.18021
 91  4 25 21 11 59.9980000  0  6G18G 2G11G16G19G 6
  22509637.0224    9005276.77846   7011196.63161
  20968874.084   -15530941.969 7 -12057573.99423
  22735852.795    -6498583.879 6  -4999000.04621
  23313345.420    -5382547.733 5  -3987301.25521
  20806217.0614   -1105720.14647   -842718.48263
  22584561.061    -9504346.457 5  -7339888.05021
 91  4 25 21 12 14.9980000  0  6G18G 2G11G16G19G 6
  22517826.8184    9048306.28146   7044726.04361
  20963240.3344  -15560535.10647 -12080633.53963
  22737528.772    -6489785.775 6  -4992144.40821
  23313899.397    -5379642.418 5  -3985037.44521
  20807730.2564   -1097762.68647   -836517.87063
  22577532.482    -9541290.700 6  -7368675.65721
 91  4 25 21 12 29.9980000  0  6G18G 2G11G16G19G 6
  22526041.3894    9091470.09346   7078360.11061
  20957643.3184  -15589971.93847 -12103571.29563
  22739241.9824   -6480763.46946  -4985114.07061
  23314487.576    -5376539.584 5  -3982619.75821
  20809270.9904   -1089672.29847   -830213.67663
  22570516.420    -9578149.189 6  -7397396.45221
 91  4 25 21 12 44.9980000  0  6G18G 2G11G16G19G 6
  22534281.1154    9134769.76846   7112100.05261
  20952068.248   -15619250.452 7 -12126385.67423
  22741004.498    -6471515.135 6  -4977907.59721
  23315111.6394   -5373237.56445  -3980046.84661
  20810835.9904   -1081446.99247   -823804.35563
  22563523.686    -9614920.023 6  -7426048.94321
 91  4 25 21 12 59.9980000  0  6G18G 2G11G16G19G 6
  22542546.936     9178216.883 6   7145954.86421
  20946529.3114  -15648359.15847 -12149067.75363
  22742810.326    -6462029.132 6  -4970515.92621
  23315783.311    -5369724.956 5  -3977309.83721
  20812426.6314   -1073075.20647   -817280.89163
  22556540.9904   -9651591.58046  -7454624.07561
 91  4 25 21 13 14.9980000  0  6G18G 2G11G16G19G 6
  22550840.7254    9221809.04946   7179922.72161
  20941024.287   -15677300.025 7 -12171619.03123
  22744657.826    -6452307.575 6  -4962940.70821
  23316492.498    -5366004.011 5  -3974410.50921
  20814050.2254   -1064558.75047   -810644.69963
  22549583.4204   -9688165.72846  -7483123.28561
 91  4 25 21 13 29.9980000  0  6G18G 2G11G16G19G 6
  22559165.6784    9265540.08746   7213998.79061
  20935547.2644  -15706079.03647 -12194044.19563
  22746551.2324   -6442356.42346  -4955186.57761
  23317234.553    -5362080.447 5  -3971353.27621
  20815695.7724   -1055903.23447   -803900.15563
  22542639.522    -9724648.294 6  -7511551.16021
 91  4 25 21 13 44.9980000  0  6G18G 2G11G16G19G 6
  22567517.467     9309423.341 6   7248193.45721
  20930103.592   -15734682.642 7 -12216332.68123
  22748493.7014   -6432162.52946  -4947243.29861
  23318023.6474   -5357941.42445  -3968128.15361
  20817374.4984   -1047095.34247   -797036.87163
  22535714.279    -9761025.920 6  -7539897.25221
 91  4 25 21 13 59.9980000  0  6G18G 2G11G16G19G 6
  22575895.272     9353449.530 6   7282499.50721
  20924693.0614  -15763119.66047 -12238491.36163
  22750477.607    -6421734.799 6  -4939117.81121
  23318857.576    -5353595.668 5  -3964741.96221
  20819076.3344   -1038143.74347   -790061.60363
  22528812.318    -9797307.357 6  -7568168.38621
 91  4 25 21 14 14.9980000  0  6G18G 2G11G16G19G 6
  22584296.623     9397608.507 6   7316909.01721
  20919308.9044  -15791400.09047 -12260528.01963
  22752503.357    -6411083.336 6  -4930817.99621
  23319717.3974   -5349053.32245  -3961202.55561
  20820807.4044   -1029058.30447   -782982.05163
  22521925.162    -9833502.547 6  -7596372.33221
 91  4 25 21 14 29.9980000  0  6G18G 2G11G16G19G 6
  22592727.2564    9441902.82246   7351424.01361
  20913959.287   -15819521.457 7 -12282440.72923
  22754572.568    -6400205.807 6  -4922342.01621
  23320621.6074   -5344311.93945  -3957508.07461
  20822559.9904   -1019836.54347   -775796.27263
  22515054.740    -9869608.948 6  -7624507.08521
 91  4 25 21 14 44.9980000  0  6G18G 2G11G16G19G 6
  22601179.576     9486325.321 6   7386038.87621
  20908635.6784  -15847490.17247 -12304234.49463
  22756685.3504   -6389108.67846  -4913694.93461
  23321562.240    -5339378.142 5  -3953663.66821
  20824339.3264   -1010484.90347   -768509.29063
  22508198.975    -9905632.971 5  -7652577.65621
 91  4 25 21 14 59.9980000  0  6G18G 2G11G16G19G 6
  22609655.779     9530871.787 6   7420750.33421
  20903343.0224  -15875310.15647 -12325912.36963
  22758838.9904   -6377795.99946  -4904879.86661
  23322532.4674   -5334256.40945  -3949672.80961
  20826142.186    -1001006.901 7   -761123.84923
  22501355.904    -9941578.472 6  -7680587.02221
 91  4 25 21 15 14.9980000  0  6G18G 2G11G16G19G 6
  22618155.037     9575534.603 6   7455552.44821
  20898076.139   -15902988.889 7 -12347480.17023
  22761031.170    -6366275.626 6  -4895902.97721
  23323541.061    -5328954.360 5  -3945541.42321
  20827971.6004    -991410.17747   -753645.89262
  22494531.232    -9977453.111 6  -7708541.18121
 91  4 25 21 15 29.9980000  0  6G18G 2G11G16G19G 6
  22626676.014     9620313.196 6   7490444.77621
  20892836.5684  -15930526.67047 -12368938.14263
  22763262.334    -6354547.966 6  -4886764.56521
  23324588.889    -5323472.461 5  -3941269.92421
  20829818.889     -981695.119 7   -746075.72923
  22487718.443   -10013257.041 6  -7736440.23821
 91  4 25 21 15 44.9980000  0  6G18G 2G11G16G19G 6
  22635220.0374    9665206.99046   7525426.89061
  20887619.943   -15957923.930 7 -12390286.61623
  22765533.3424   -6342613.26846  -4877464.82661
  23325666.9674   -5317811.17945  -3936858.65461
  20831689.5294    -971861.86447   -738413.46663
  22480918.5924  -10048990.59246  -7764284.47661
 91  4 25 21 15 59.9980000  0  6G18G 2G11G16G19G 6
  22643782.7794    9710196.96146   7560483.93461
  20882430.1004  -15985199.48747 -12411540.25763
  22767841.4434   -6330490.67446  -4868018.68861
  23326769.740    -5311989.731 5  -3932322.56921
  20833577.6314    -961929.21847   -730673.75463
  22474126.3184  -10084672.59446  -7792088.51561
 91  4 25 21 16 14.9980000  0  6G18G 2G11G16G19G 6
  22652360.131     9755279.353 6   7595612.99821
  20877264.4044  -16012356.74247 -12432701.72063
  22770183.428    -6318183.471 6  -4858428.68321
  23327915.287    -5306011.535 5  -3927664.33521
  20835489.2014    -951900.55147   -722859.21763
  22467347.779   -10120306.358 6  -7819854.97421
 91  4 25 21 16 29.9980000  0  6G18G 2G11G16G19G 6
  22660955.3654    9800441.81446   7630804.45361
  20872113.8424  -16039407.77747 -12453780.41163
  22772558.725    -6305703.998 6  -4848704.44321
  23329075.662    -5299888.739 5  -3922893.41221
  20837414.092     -941787.777 7   -714979.14623
  22460574.162   -10155903.911 6  -7847593.22021
 91  4 25 21 16 44.9980000  0  6G18G 2G11G16G19G 6
  22669563.576     9845693.701 6   7666065.58921
  20866990.5064  -16066342.99747 -12474768.85463
  22774967.607    -6293042.940 6  -4838838.71421
  23330269.740    -5293612.236 5  -3918002.72921
  20839353.834     -931581.303 7   -707026.06523
  22453808.279   -10191455.710 5  -7875295.81621
 91  4 25 21 16 59.9980000  0  6G18G 2G11G16G19G 6
  22678191.131     9891020.158 6   7701384.82421
  20861882.8574  -16093176.92647 -12495678.37663
  22777406.131    -6280215.019 6  -4828842.94921
  23331493.3424   -5287196.80145  -3913003.78061
  20841311.0064    -921295.60347   -699011.24163
  22447050.170   -10226976.429 6  -7902974.18621
 91  4 25 21 17 14.9980000  0  6G18G 2G11G16G19G 6
  22686827.8974    9936420.74746   7736761.83861
  20856797.2724  -16119910.00747 -12516509.31263
  22779880.4284   -6267220.65546  -4818717.50461
  23332736.0144   -5280643.07945  -3907897.08661
  20843285.4364    -910930.91247   -690934.86363
  22440293.9904  -10262466.21746  -7930628.45261
 91  4 25 21 17 29.9980000  0  6G18G 2G11G16G19G 6
  22695484.0144    9981906.03846   7772204.85961
  20851729.6314  -16146531.23547 -12537253.09263
  22782387.8184   -6254049.10846  -4808453.99261
  23334012.740    -5273940.083 5  -3902674.05421
  20845273.357     -900476.319 7   -682788.44222
  22433552.139   -10297914.049 6  -7958250.02121
 91  4 25 21 17 44.9980000  0  6G18G 2G11G16G19G 6
  22704154.123    10027453.589 6   7807696.39121
  20846681.5764  -16173062.39347 -12557926.68563
  22784922.459    -6240722.402 6  -4798069.56921
  23335312.600    -5267109.952 5  -3897351.96721
  20847275.4284    -889953.39647   -674588.76662
  22426808.3734  -10333341.87946  -7985856.00661
 91  4 25 21 17 59.9980000  0  6G18G 2G11G16G19G 6
  22712829.0534   10073062.61846   7843235.82761
  20841649.1474  -16199504.40247 -12578530.81663
  22787488.7404   -6227241.49546  -4787564.99361
  23336631.4594   -5260153.41645  -3891931.40161
  20849291.1934    -879363.18147   -666336.65863
  22420069.4674  -10368750.43246  -8013446.95961
 91  4 25 21 18 14.9980000  0  6G18G 2G11G16G19G 6
  22721520.404    10118725.463 6   7878817.19121
  20836634.1314  -16225864.79147 -12599071.34363
  22790082.436    -6213613.887 6  -4776946.10121
  23337977.0454   -5253078.56745  -3886418.62561
  20851319.1004    -868712.83647   -658037.69462
  22413333.7794  -10404147.13946  -8041028.69361
 91  4 25 21 18 29.9980000  0  6G18G 2G11G16G19G 6
  22730219.623    10164435.935 6   7914435.65821
  20831631.6934  -16252149.35547 -12619552.78963
  22792701.9674   -6199845.49946  -4766217.52661
  23339354.912    -5245891.303 5  -3880818.27121
  20853356.701     -858008.033 6   -649696.30422
  22406602.607   -10439537.649 6  -8068605.59721
 91  4 25 21 18 44.9980000  0  6G18G 2G11G16G19G 6
  22738926.6544   10210196.27246   7950092.99561
  20826644.4904  -16278355.88647 -12639973.42163
  22795348.2644   -6185934.21146  -4755377.58561
  23340734.670    -5238589.500 5  -3875128.64721
  20855403.904     -847246.470 7   -641310.68222
  22399866.412   -10474919.746 6  -8096175.95521
 91  4 25 21 18 59.9980000  0  6G18G 2G11G16G19G 6
  22747643.600    10256002.833 6   7985786.33921
  20821672.9984  -16304487.60647 -12660335.77263
  22798023.6544   -6171883.61346  -4744429.10061
  23342153.3114   -5231176.69345  -3869352.56161
  20857459.5064    -836431.51247   -632883.45062
  22393136.873   -10510296.762 6  -8123742.34921
 91  4 25 21 19 14.9980000  0  6G18G 2G11G16G19G 6
  22756369.8504   10301848.05746   8021509.81661
  20816713.5144  -16330551.81447 -12680645.50563
  22800721.2254   -6157701.06246  -4733377.79761
  23343588.373    -5223660.497 5  -3863495.89321
  20859527.5764    -825570.25746   -624420.14862
  22386403.0924  -10545675.96546  -8151310.43461
 91  4 25 21 19 29.9980000  0  6G18G 2G11G16G19G 6
  22765099.068    10347722.617 6   8057256.14621
  20811764.4594  -16356557.47247 -12700909.62463
  22803445.4754   -6143395.63646  -4722230.73661
  23345036.131    -5216050.158 5  -3857565.86021
  20861599.7874    -814671.56647   -615927.67062
  22379665.717   -10581066.258 6  -8178887.16921
 91  4 25 21 19 44.9980000  0  6G18G 2G11G16G19G 6
  22773835.092    10393624.700 6   8093023.92221
  20806825.3814  -16382506.12047 -12721129.31663
  22806189.5614   -6128969.03146  -4710989.26061
  23346504.3114   -5208347.23545  -3851563.67161
  20863681.5844    -803736.97847   -607407.21262
  22372930.5614  -10616469.05846  -8206473.65861
 91  4 25 21 19 59.9980000  0  6G18G 2G11G16G19G 6
  22782577.232    10439558.825 6   8128816.66221
  20801898.3654  -16408392.96847 -12741300.85763
  22808958.850    -6114416.685 6  -4699649.79621
  23347979.6314   -5200546.90845  -3845485.61761
  20865767.7874    -792761.53647   -598854.93162
  22366188.897   -10651879.588 6  -8234066.14421
 91  4 25 21 20 14.9980000  0  6G18G 2G11G16G19G 6
  22791320.982    10485512.495 6   8164624.64421
  20796982.6154  -16434230.39547 -12761433.88563
  22811751.186    -6099751.026 6  -4688222.02721
  23349483.3894   -5192662.19945  -3839341.79361
  20867866.5614    -781757.56547   -590280.41262
  22359447.1074  -10687310.08446  -8261674.19761
 91  4 25 21 20 29.9980000  0  6G18G 2G11G16G19G 6
  22800067.443    10531484.681 6   8200447.05121
  20792075.998   -16460019.148 7 -12781528.98523
  22814563.037    -6084972.967 7  -4676706.70021
  23351000.2644   -5184694.12945  -3833133.02861
  20869963.3894    -770725.77347   -581684.21462
  22352702.6864  -10722761.29346  -8289298.39361
 91  4 25 21 20 44.9980000  0  6G18G 2G11G16G19G 6
  22808819.162    10577471.679 6   8236280.99921
  20787176.0294  -16485762.89347 -12801589.01464
  22817394.561    -6070086.170 6  -4665106.64921
  23352529.584    -5176646.158 5  -3826861.95521
  20872067.8184    -759669.59447   -573069.02362
  22345949.6394  -10758236.72746  -8316941.46961
 91  4 25 21 20 59.9980000  0  6G18G 2G11G16G19G 6
  22817575.170    10623482.106 6   8272133.19821
  20782288.4594  -16511452.42447 -12821606.79664
  22820252.0144   -6055081.81146  -4653414.97361
  23354074.3504   -5168509.42545  -3820521.76161
  20874178.7644    -748579.83147   -564427.65162
  22339198.9674  -10793727.12046  -8344596.20061
 91  4 25 21 21 14.9980000  0  6G18G 2G11G16G19G 6
  22826332.764    10669505.518 6   8307995.52421
  20777407.9204  -16537097.93147 -12841590.28364
  22823126.2254   -6039970.49946  -4641639.95861
  23355643.373    -5160294.494 5  -3814120.62021
  20876291.2254    -737466.72247   -555768.08862
  22332438.787   -10829242.902 6  -8372270.72221
 91  4 25 21 21 29.9980000  0  6G18G 2G11G16G19G 6
  22835088.1784   10715527.79845   8343856.98061
  20772536.3114  -16562713.37747 -12861550.33864
  22826018.732    -6024766.059 6  -4629792.36321
  23357216.5764   -5152015.39245  -3807669.47361
  20878410.178     -726343.988 7   -547101.03722
  22325673.631   -10864797.773 6  -8399975.70821
 91  4 25 21 21 44.9980000  0  6G18G 2G11G16G19G 6
  22843847.9044   10761549.11646   8379717.67461
  20767662.4434  -16588298.39447 -12881486.68364
  22828928.436    -6009468.242 6  -4617872.00521
  23358801.514    -5143672.261 5  -3801168.46221
  20880530.3504    -715211.20447   -538426.14562
  22318901.811   -10900391.271 6  -8427710.79021
 91  4 25 21 21 59.9980000  0  6G18G 2G11G16G19G 6
  22852604.522    10807568.813 5   8415577.09521
  20762801.7564  -16613853.34747 -12901399.60864
  22831860.225    -5994077.585 6  -4605879.30721
  23360403.998    -5135265.209 5  -3794617.63521
  20882647.217     -704068.681 7   -529743.67622
  22312122.5844  -10936023.77746  -8455476.24161
 91  4 25 21 22 14.9980000  0  6G18G 2G11G16G19G 6
  22861361.0924   10853587.53445   8451435.78161
  20757945.4124  -16639377.30847 -12921288.37864
  22834806.2254   -5978593.38746  -4593813.72761
  23362021.107    -5126793.810 5  -3788016.66621
  20884770.154     -692915.548 6   -521052.93622
  22305331.818   -10971694.367 6  -8483271.39721
 91  4 25 21 22 29.9980000  0  6G18G 2G11G16G19G 6
  22870121.115    10899606.272 5   8487294.47021
  20753092.5614  -16664868.87647 -12941151.90664
  22837772.693    -5963014.482 6  -4581674.36221
  23363639.623    -5118256.883 5  -3781364.62221
  20886894.162     -681750.264 7   -512352.72722
  22298535.4904  -11007401.64546  -8511095.13961
 91  4 25 21 22 44.9980000  0  6G18G 2G11G16G19G 6
  22878876.4594   10945623.53145   8523151.98761
  20748250.100   -16690329.546 7 -12960991.36524
  22840754.6474   -5947342.46346  -4569462.43661
  23365283.4124   -5109656.10345  -3774662.78761
  20889022.857     -670574.230 7   -503644.14622
  22291733.279   -11043146.908 6  -8538948.48121
 91  4 25 21 22 59.9980000  0  6G18G 2G11G16G19G 6
  22887630.787    10991626.122 6   8558998.09421
  20743406.4514  -16715772.11147 -12980816.70964
  22843748.498    -5931590.200 6  -4557187.99921
  23366929.1784   -5101004.60245  -3767921.47161
  20891146.0534    -659400.01547   -494936.97162
  22284926.022   -11078942.897 6  -8566841.35721
 91  4 25 21 23 14.9980000  0  6G18G 2G11G16G19G 6
  22896383.7724   11037622.75546   8594839.55861
  20738569.889   -16741187.636 7 -13000620.98624
  22846765.5844   -5915748.97446  -4544844.22261
  23368576.3974   -5092293.52445  -3761133.74861
  20893276.732     -648218.641 7   -486224.22622
  22278101.756   -11114780.759 6  -8594766.85421
 91  4 25 21 23 29.9980000  0  6G18G 2G11G16G19G 6
  22905134.647    11083611.186 6   8630674.62521
  20733737.8424  -16766578.06247 -13020405.70764
  22849794.389    -5899820.694 6  -4532432.61921
  23370247.1074   -5083524.99145  -3754301.23261
  20895408.865     -637031.718 7   -477507.15922
  22271279.7254  -11150662.11046  -8622726.23461
 91  4 25 21 23 44.9980000  0  6G18G 2G11G16G19G 6
  22913884.584    11129583.857 6   8666497.41721
  20728911.295   -16791950.923 7 -13040176.74524
  22852845.818    -5883813.246 6  -4519959.30821
  23371927.764    -5074706.673 5  -3747429.96621
  20897532.561     -625847.066 6   -468791.86322
  22264436.217   -11186594.580 6  -8650725.44721
 91  4 25 21 23 59.9980000  0  6G18G 2G11G16G19G 6
  22922627.303    11175544.415 5   8702310.76021
  20724084.826   -16817302.017 7 -13059930.81624
  22855904.1154   -5867722.72646  -4507421.27061
  23373616.6474   -5065834.95845  -3740517.01861
  20899660.9984    -614660.32247   -460074.92862
  22257589.639   -11222574.001 6  -8678761.26621
 91  4 25 21 24 14.9980000  0  6G18G 2G11G16G19G 6
  22931371.725    11221489.367 5   8738111.94221
  20719266.7014  -16842635.06747 -13079670.82764
  22858979.8264   -5851552.77146  -4494821.33761
  23375317.803    -5056913.310 5  -3733565.18321
  20901793.5224    -603475.02247   -451359.12262
  22250734.4364  -11258603.76146  -8706836.29661
 91  4 25 21 24 29.9980000  0  6G18G 2G11G16G19G 6
  22940114.6154   11267422.69746   8773904.07161
  20714447.139   -16867945.528 7 -13099393.23824
  22862072.2644   -5835299.13746  -4482156.20161
  23377033.2404   -5047937.47945  -3726571.14161
  20903918.248     -592286.672 7   -442640.94522
  22243868.2724  -11294679.37046  -8734947.06261
 91  4 25 21 24 44.9980000  0  6G18G 2G11G16G19G 6
  22948854.7324   11313348.95646   8809690.69061
  20709638.0614  -16893228.56547 -13119094.27164
  22865186.3034   -5818957.02846  -4469422.12461
  23378744.6154   -5038902.96845  -3719531.38761
  20906050.3894    -581090.19646   -433916.42962
  22236996.4514  -11330795.86846  -8763089.69461
 91  4 25 21 24 59.9980000  0  6G18G 2G11G16G19G 6
  22957589.225    11359251.968 6   8845459.19821
  20704829.467   -16918500.283 7 -13138786.49224
  22868307.553    -5802542.766 6  -4456631.83621
  23380468.061    -5029826.115 5  -3712458.61821
  20908178.732     -569901.587 6   -425198.05022
  22230108.6234  -11366969.29746  -8791276.69361
 91  4 25 21 25 14.9980000  0  6G18G 2G11G16G19G 6
  22966322.4594   11405141.16945   8881216.92961
  20700024.1624  -16943750.73747 -13158462.14364
  22871447.2794   -5786046.80146  -4443777.87261
  23382208.7484   -5020697.54745  -3705345.57661
  20910309.139     -558711.018 6   -416478.14622
  22223216.232   -11403189.925 6  -8819500.45121
 91  4 25 21 25 29.9980000  0  6G18G 2G11G16G19G 6
  22975049.834    11451005.962 5   8916955.63721
  20695221.7484  -16968990.38147 -13178129.36764
  22874599.897    -5769479.408 6  -4430868.26221
  23383955.4204   -5011527.52845  -3698200.22661
  20912437.092     -547528.573 6   -407764.56822
  22216316.5844  -11439467.79046  -8847768.82761
 91  4 25 21 25 44.9980000  0  6G18G 2G11G16G19G 6
  22983770.0844   11496854.25745   8952681.50061
  20690422.1234  -16994211.18047 -13197781.91064
  22877765.1314   -5752832.82046  -4417896.93561
  23385703.850    -5002308.268 5  -3691016.50821
  20914565.756     -536346.053 6   -399050.93922
  22209403.8424  -11475794.82046  -8876075.51061
 91  4 25 21 25 59.9980000  0  6G18G 2G11G16G19G 6
  22992494.756    11542685.023 5   8988393.70521
  20685624.834   -17019413.899 7 -13217420.36924
  22880948.4674   -5736108.13946  -4404864.74761
  23387471.006    -4993040.948 5  -3683795.31321
  20916691.014     -525164.462 6   -390338.02722
  22202479.2254  -11512171.91246  -8904421.19361
 91  4 25 21 26 14.9980000  0  6G18G 2G11G16G19G 6
  23001212.607    11588505.615 5   9024097.97721
  20680834.693   -17044590.850 7 -13237038.75224
  22884149.5684   -5719297.68246  -4391765.73761
  23389247.647    -4983718.129 5  -3676530.87921
  20918822.342     -513975.931 6   -381619.71022
  22195548.725   -11548591.137 6  -8932799.72621
 91  4 25 21 26 29.9980000  0  6G18G 2G11G16G19G 6
  23009927.5374   11634306.36945   9059786.81061
  20676047.850   -17069751.368 7 -13256644.32824
  22887362.100    -5702411.013 6  -4378607.33221
  23391025.139    -4974349.232 5  -3669230.56521
  20920949.006     -502789.620 6   -372903.12222
  22188608.639   -11585061.848 6  -8961218.38221
 91  4 25 21 26 44.9980000  0  6G18G 2G11G16G19G 6
  23018643.428    11680095.407 5   9095466.50621
  20671262.4364  -17094887.41747 -13276230.83164
  22890591.420    -5685440.198 6  -4365383.36921
  23392811.5454   -4964926.35945  -3661888.19161
  20923084.272     -491597.348 6   -364181.89522
  22181660.8654  -11621575.77346  -8989670.70861
 91  4 25 21 26 59.9980000  0  6G18G 2G11G16G19G 6
  23027351.795    11725876.034 5   9131139.65521
  20666485.9984  -17119995.30447 -13295795.38864
  22893838.1864   -5668381.68246  -4352091.05561
  23394624.334    -4955445.784 5  -3654500.85421
  20925212.256     -480395.257 6   -355453.00922
  22174705.5294  -11658129.21446  -9018153.80861
 91  4 25 21 27 14.9980000  0  6G18G 2G11G16G19G 6
  23036064.654    11771655.558 5   9166811.94421
  20661715.045   -17145067.284 7 -13315331.97724
  22897102.701    -5651228.096 6  -4338724.67521
  23396442.3814   -4945900.33645  -3647062.95261
  20927348.6394    -469175.79246   -346710.58362
  22167742.3034  -11694714.43146  -9046661.67861
 91  4 25 21 27 29.9980000  0  6G18G 2G11G16G19G 6
  23044775.5924   11817435.34245   9202484.45161
  20656951.459   -17170101.999 7 -13334839.51624
  22900386.3654   -5633978.19346  -4325283.22761
  23398268.451    -4936288.870 5  -3639573.60221
  20929483.9824    -457937.35047   -337953.36662
  22160776.3034  -11731329.92146  -9075193.13161
 91  4 25 21 27 44.9980000  0  6G18G 2G11G16G19G 6
  23053489.842    11863222.897 5   9238162.98121
  20652195.803   -17195091.302 7 -13354311.68224
  22903687.8734   -5616624.03046  -4311760.53861
  23400110.506    -4926603.489 5  -3632026.68521
  20931631.3424    -446671.76147   -329174.99562
  22153805.803   -11767967.484 6  -9103741.80021
 91  4 25 21 27 59.9980000  0  6G18G 2G11G16G19G 6
  23062202.654    11909003.243 5   9273835.90521
  20647445.4594  -17220050.39247 -13373760.29464
  22907007.5454   -5599180.68246  -4298168.35961
  23401964.662    -4916859.487 5  -3624434.03721
  20933773.1864    -435393.87047   -320387.03962
  22146826.545   -11804642.132 6  -9132319.35821
 91  4 25 21 28 14.9980000  0  6G18G 2G11G16G19G 6
  23070915.709    11954791.471 5   9309514.96521
  20642706.998   -17244963.720 7 -13393173.26024
  22910345.303    -5581633.154 6  -4284495.00521
  23403836.1934   -4907041.76945  -3616783.99661
  20935927.3344    -424088.25347   -311577.47762
  22139843.178   -11841338.369 6  -9160913.74921
 91  4 25 21 28 29.9980000  0  6G18G 2G11G16G19G 6
  23079632.318    12000591.610 5   9345203.30521
  20637971.818   -17269827.094 7 -13412547.29424
  22913704.4514   -5563977.38046  -4270737.29861
  23405722.982    -4897145.934 5  -3609073.09621
  20938085.2324    -412750.83147   -302743.12062
  22132857.3814  -11878051.84346  -9189521.55961
 91  4 25 21 28 44.9980000  0  6G18G 2G11G16G19G 6
  23088349.397    12046403.129 5   9380900.54521
  20633252.904   -17294640.759 7 -13431882.60024
  22917084.225    -5546213.910 6  -4256895.68021
  23407615.482    -4887172.904 4  -3601302.03821
  20940248.4984    -401381.67946   -293884.05462
  22125869.725   -11914782.954 6  -9218143.12621
 91  4 25 21 28 59.9980000  0  6G18G 2G11G16G19G 6
  23097072.912    12092236.824 5   9416615.01621
  20628539.897   -17319393.667 7 -13451170.56024
  22920488.529    -5528331.704 6  -4242961.53521
  23409533.5924   -4877111.91645  -3593462.44461
  20942421.6784    -389969.31447   -284991.30962
  22118873.9674  -11951520.33646  -9246769.56261
 91  4 25 21 29 14.9980000  0  6G18G 2G11G16G19G 6
  23105796.0764   12138082.11745   9452338.52161
  20623841.779   -17344096.346 7 -13470419.37524
  22923913.748    -5510341.345 6  -4228943.12621
  23411455.967    -4866973.447 5  -3585562.41021
  20944599.5144    -378524.22247   -276073.05962
  22111881.5764  -11988274.35346  -9275408.96661
 91  4 25 21 29 29.9980000  0  6G18G 2G11G16G19G 6
  23114521.4044   12183938.92845   9488071.04161
  20619147.943   -17368748.237 7 -13489628.62424
  22927354.982    -5492242.603 6  -4214840.24921
  23413402.600    -4856757.260 5  -3577601.88921
  20946781.287     -367045.908 7   -267128.92922
  22104881.5534  -12025044.51146  -9304060.94861
 91  4 25 21 29 44.9980000  0  6G18G 2G11G16G19G 6
  23123249.4754   12229809.06745   9523813.90761
  20614468.928   -17393347.570 7 -13508796.91024
  22930820.482    -5474033.773 6  -4200651.59021
  23415364.818    -4846461.560 5  -3569579.39121
  20948973.6624    -355532.43446   -258157.39962
  22097881.990   -12061828.875 6  -9332724.00721
 91  4 25 21 29 59.9980000  0  6G18G 2G11G16G19G 6
  23131983.9754   12275698.55545   9559571.90161
  20609798.420   -17417887.973 7 -13527919.27924
  22934309.1154   -5455708.78846  -4186372.43061
  23417341.8424   -4836080.43245  -3561490.34561
  20951171.568     -343977.210 6   -249153.33922
  22090881.0684  -12098620.96246  -9361393.07061
 91  4 25 21 30 14.9980000  0  6G18G 2G11G16G19G 6
  23140717.647    12321609.245 5   9595346.38521
  20605140.842   -17442367.462 7 -13546994.18123
  22937814.5144   -5437265.79946  -4172001.30661
  23419334.373    -4825612.306 5  -3553333.49021
  20953381.107     -332378.217 7   -240115.18122
  22083881.3734  -12135418.81546  -9390066.63161
 91  4 25 21 30 29.9980000  0  6G18G 2G11G16G19G 6
  23149458.178    12367535.563 5   9631133.04021
  20600491.412   -17466791.090 7 -13566025.56523
  22941349.967    -5418710.109 6  -4157542.37921
  23421337.311    -4815062.216 5  -3545112.77221
  20955591.4514    -320740.44546   -231046.79862
  22076877.607   -12172227.340 6  -9418748.51121
 91  4 25 21 30 44.9980000  0  6G18G 2G11G16G19G 6
  23158201.748    12413486.141 5   9666938.61721
  20595857.326   -17491150.301 7 -13585006.75023
  22944902.209    -5400033.235 6  -4142989.03221
  23423366.7874   -4804421.99545  -3536821.79761
  20957819.5454    -309055.34246   -221941.52862
  22069870.0064  -12209037.84946  -9447431.93261
 91  4 25 21 30 59.9980000  0  6G18G 2G11G16G19G 6
  23166948.998    12459461.751 5   9702763.71821
  20591234.240   -17515443.929 7 -13603936.82523
  22948483.037    -5381234.237 6  -4128340.53421
  23425403.693    -4793690.585 5  -3528459.78221
  20960052.857     -297321.461 7   -212798.25922
  22062866.5844  -12245849.00046  -9476115.84761
 91  4 25 21 31 14.9980000  0  6G18G 2G11G16G19G 6
  23175705.568    12505463.090 5   9738608.83821
  20586624.623   -17539670.906 7 -13622814.96424
  22952081.4754   -5362312.41346  -4113596.32261
  23427468.287    -4782867.425 5  -3520026.28821
  20962294.607     -285537.821 7   -203616.21822
  22055860.3814  -12282659.91046  -9504799.59061
 91  4 25 21 31 29.9980000  0  6G18G 2G11G16G19G 6
  23184464.5534   12551482.70945   9774468.22561
  20582024.482   -17563838.549 7 -13641646.87023
  22955702.803    -5343275.087 6  -4098762.09321
  23429543.7404   -4771959.91045  -3511527.08661
  20964542.482     -273711.741 7   -194401.10622
  22048855.6544  -12319477.61046  -9533488.61661
 91  4 25 21 31 44.9980000  0  6G18G 2G11G16G19G 6
  23193223.975    12597520.764 5   9810341.97121
  20577437.404   -17587946.611 7 -13660432.34724
  22959346.9594   -5324122.25846  -4083837.83961
  23431632.975    -4760968.036 5  -3502962.13921
  20966803.139     -261842.881 7   -185152.66022
  22041846.8814  -12356301.82046  -9562182.71261
 91  4 25 21 31 59.9980000  0  6G18G 2G11G16G19G 6
  23201985.584    12643572.439 5   9846226.30921
  20572860.4984  -17611999.82947 -13679175.08764
  22963013.0764   -5304858.64546  -4068827.26861
  23433740.764    -4749896.535 5  -3494335.12921
  20969065.061     -249935.690 7   -175874.34022
  22034836.1474  -12393137.11246  -9590885.44061
 91  4 25 21 32 14.9980000  0  6G18G 2G11G16G19G 6
  23210756.3814   12689649.97345   9882130.81761
  20568294.498   -17635985.432 7 -13697865.14024
  22966701.5144   -5285471.79746  -4053720.66961
  23435865.029    -4738733.197 5  -3485636.56721
  20971343.584     -237977.240 7   -166556.08222
  22027829.4674  -12429970.52246  -9619586.70161
 91  4 25 21 32 29.9980000  0  6G18G 2G11G16G19G 6
  23219526.756    12735747.295 5   9918050.73821
  20563743.850   -17659909.409 7 -13716507.17723
  22970415.334    -5265967.882 6  -4038522.86521
  23438012.256    -4727484.008 5  -3476871.13621
  20973628.068     -225973.453 7   -157202.49622
  22020816.9124  -12466807.95746  -9648291.10461
 91  4 25 21 32 44.9980000  0  6G18G 2G11G16G19G 6
  23228302.1704   12781863.82645   9953985.62661
  20559201.615   -17683771.656 7 -13735101.11124
  22974148.693    -5246347.201 6  -4023234.07521
  23440160.0614   -4716149.33844  -3468039.07961
  20975921.0614    -213924.32847   -147813.57462
  22013809.272   -12503649.414 6  -9676998.63421
 91  4 25 21 32 59.9980000  0  6G18G 2G11G16G19G 6
  23237084.045    12828005.063 5   9989939.77821
  20554674.451   -17707566.894 7 -13753642.82724
  22977904.4674   -5226604.64846  -4007850.30561
  23442334.8574   -4704723.93544  -3459136.29961
  20978222.647     -201824.343 7   -138385.03422
  22006795.8654  -12540489.52646  -9705705.12261
 91  4 25 21 33 14.9980000  0  6G18G 2G11G16G19G 6
  23245868.4594   12874158.46945  10025903.38661
  20550158.076   -17731307.064 7 -13772141.64024
  22981681.6934   -5206752.18346  -3992380.90661
  23444518.0224   -4693219.96944  -3450172.33961
  20980535.389     -189685.388 7   -128926.12022
  21999782.756   -12577339.987 6  -9734419.66521
 91  4 25 21 33 29.9980000  0  6G18G 2G11G16G19G 6
  23254654.3034   12920326.60745  10061878.50361
  20545648.2014  -17754989.62947 -13790595.55964
  22985483.7404   -5186787.54146  -3976824.11761
  23446727.147    -4681635.462 4  -3441145.59021
  20982850.857     -177504.792 7   -119434.76622
  21992771.3894  -12614198.20346  -9763140.26361
 91  4 25 21 33 44.9980000  0  6G18G 2G11G16G19G 6
  23263442.287    12966521.679 5  10097874.57021
  20541157.811   -17778602.082 7 -13808994.85024
  22989304.936    -5166698.526 6  -3961170.37121
  23448957.850    -4669957.858 4  -3432046.30121
  20985181.170     -165269.984 6   -109901.16822
  21985756.2644  -12651051.59246  -9791857.10561
 91  4 25 21 33 59.9980000  0  6G18G 2G11G16G19G 6
  23272238.0374   13012734.89345  10133884.79661
  20536672.959   -17802153.020 7 -13827346.21224
  22993149.834    -5146493.879 6  -3945426.54321
  23451197.6394   -4658195.97945  -3422881.33761
  20987516.990     -152989.339 6   -100331.85422
  21978742.748   -12687908.668 6  -9820576.79621
 91  4 25 21 34 14.9980000  0  6G18G 2G11G16G19G 6
  23281036.154    13058971.101 5  10169912.94521
  20532206.811   -17825637.394 7 -13845645.69724
  22997018.725    -5126168.696 6  -3929588.79121
  23453447.748    -4646345.370 5  -3413647.24021
  20989864.029     -140657.911 6    -90722.95722
  21971728.9044  -12724764.31046  -9849295.38661
 91  4 25 21 34 29.9980000  0  6G18G 2G11G16G19G 6
  23289836.951    13105225.389 5  10205955.18421
  20527747.795   -17849059.806 7 -13863896.90624
  23000907.178    -5105727.780 6  -3913660.84721
  23455711.639    -4634410.694 5  -3404347.64721
  20992218.506     -128280.037 6    -81077.88722
  21964714.8184  -12761622.85046  -9878016.22761
 91  4 25 21 34 44.9980000  0  6G18G 2G11G16G19G 6
  23298644.373    13151500.501 5  10242013.63621
  20523302.084   -17872417.500 7 -13882097.68424
  23004819.3424   -5085168.55746  -3897640.70961
  23458004.225    -4622389.231 5  -3394980.43421
  20994582.9364    -115852.84046    -71394.37162
  21957704.1314  -12798481.51746  -9906737.17161
 91  4 25 21 34 59.9980000  0  6G18G 2G11G16G19G 6
  23307452.248    13197793.950 5  10278086.39821
  20518869.131   -17895712.681 7 -13900249.75224
  23008754.686    -5064493.278 6  -3881530.14621
  23460310.2724   -4610283.50145  -3385547.53561
  20996957.826     -103378.322 6    -61673.98922
  21950685.8344  -12835342.24746  -9935459.69861
 91  4 25 21 35 14.9980000  0  6G18G 2G11G16G19G 6
  23316266.0224   13244106.74945  10314174.24361
  20514450.209   -17918944.022 7 -13918352.06923
  23012711.3344   -5043700.76946  -3865328.22861
  23462638.2484   -4598092.40145  -3376048.09961
  20999339.881      -90855.053 6    -51915.61422
  21943672.381   -12872203.545 6  -9964182.67221
 91  4 25 21 35 29.9980000  0  6G18G 2G11G16G19G 6
  23325083.107    13290448.378 5  10350284.55321
  20510044.936   -17942101.604 7 -13936396.91924
  23016690.686    -5022781.492 6  -3849027.54821
  23464968.256    -4585806.138 5  -3366474.54621
  21001733.514      -78273.108 6    -42111.52022
  21936658.670   -12909055.607 6  -9992898.46421
 91  4 25 21 35 44.9980000  0  6G18G 2G11G16G19G 6
  23333910.3424   13336816.88045  10386415.78161
  20505650.4204  -17965187.12047 -13954385.60463
  23020698.756    -5001737.514 6  -3832629.68821
  23467320.2644   -4573426.72545  -3356828.36961
  21004137.920      -65634.190 6    -32263.03522
  21929649.693   -12945900.105 6 -10021608.35621
 91  4 25 21 35 59.9980000  0  6G18G 2G11G16G19G 6
  23342739.3974   13383218.35845  10422572.73261
  20501270.498   -17988194.406 7 -13972313.33724
  23024726.623    -4980562.709 6  -3816129.88921
  23469704.865    -4560948.396 5  -3347105.11421
  21006559.436      -52931.864 6    -22365.13722
  21922641.084   -12982730.614 6 -10050307.34721
 91  4 25 21 36 14.9980000  0  6G18G 2G11G16G19G 6
  23351571.8504   13429643.03545  10458747.73561
  20496907.772   -18011133.311 7 -13990187.78323
  23028779.670    -4959267.026 6  -3799535.89421
  23472089.8034   -4548381.20845  -3337312.66461
  21008986.428      -40175.740 6    -12425.32422
  21915633.897   -13019556.726 6 -10079002.93221
 91  4 25 21 36 29.9980000  0  6G18G 2G11G16G19G 6
  23360413.951    13476093.889 5  10494943.14421
  20492557.147   -18034000.415 7 -14008006.28124
  23032855.8734   -4937847.28046  -3782845.24861
  23474499.881    -4535722.041 5  -3327448.53821
  21011421.490      -27362.253 6     -2440.80722
  21908625.475   -13056374.992 6 -10107692.38421
 91  4 25 21 36 44.9980000  0  6G18G 2G11G16G19G 6
  23369253.975    13522570.039 5  10531158.28621
  20488217.107   -18056796.337 7 -14025769.30923
  23036955.639    -4916304.414 6  -3766058.64421
  23476922.787    -4522971.693 5  -3317513.34521
  21013870.022      -14492.330 6      7587.67822
  21901622.1704  -13093186.04746 -10136376.22061
 91  4 25 21 36 59.9980000  0  6G18G 2G11G16G19G 6
  23378101.7794   13569062.59445  10567386.18161
  20483891.186   -18079529.318 7 -14043483.29824
  23041075.170    -4894646.985 6  -3749182.77721
  23479361.787    -4510138.909 4
  21016328.779       -1574.074 6
  21894615.3654  -13129998.13246 -10165060.84361
 91  4 25 21 37 14.9980000  0  6G18G 2G11G16G19G 6
  23386956.826    13615587.734 5  10603639.46521
  20479579.295   -18102183.312 7 -14061135.73523
  23045220.7174   -4872859.03346  -3732205.19161
  23481829.748    -4497207.609 4
  21018800.889       11408.710 6
  21887612.8974  -13166794.84746 -10193733.51461
 91  4 25 21 37 29.9980000  0  6G18G 2G11G16G19G 6
  23395816.412    13662137.247 5  10639911.74021
  20475285.2174  -18124766.49347 -14078732.99363
  23049391.7724   -4850948.78146  -3715132.31561
  23484302.303    -4484186.276 4
  21021280.576       24448.044 6
  21880613.561   -13203584.244 6 -10222400.47321
 91  4 25 21 37 44.9980000  0  6G18G 2G11G16G19G 6
  23404683.1234   13708730.13045  10676217.81361
  20471003.514   -18147259.328 7 -14096259.85623
  23053584.3504   -4828897.12246  -3697949.24561
  23486796.7094   -4471055.34044
  21023776.350       37563.419 6
  21873617.8504  -13240346.75546 -10251046.49461
 91  4 25 21 37 59.9980000  0  6G18G 2G11G16G19G 6
  23413553.6154   13755356.37045  10712549.87461
  20466737.162   -18169671.626 7 -14113723.95724
  23057809.951    -4806714.122 6  -3680663.82921
  23489318.3974   -4457825.13944
  21026285.131       50745.183 6
  21866625.475   -13277092.107 6 -10279679.13721
 91  4 25 21 38 14.9980000  0  6G18G 2G11G16G19G 6
  23422433.2724   13802018.68845  10748910.05361
  20462488.256   -18192000.672 7 -14131123.19224
  23062056.576    -4784397.211 6  -3663274.07221
  23491860.4904   -4444493.36945  -3256362.30761
  21028806.912       63996.228 6     68747.47322
  21859634.4124  -13313817.47746 -10308296.21361
 91  4 25 21 38 29.9980000  0  6G18G 2G11G16G19G 6
  23431319.2874   13848721.60145  10785301.85261
  20458255.7644  -18214241.17147 -14148453.42464
  23066328.4594   -4761941.39546  -3645776.09961
  23494412.3114   -4431055.01945  -3245891.01861
  21031341.811       77321.840 6     79131.05022
  21852652.420   -13350517.468 6 -10336893.50821
 91  4 25 21 38 44.9980000  0  6G18G 2G11G16G19G 6
  23440214.8574   13895459.74345  10821721.13061
  20454042.701   -18236398.479 7 -14165718.83724
  23070626.662    -4739352.235 6  -3628174.19821
  23496996.787    -4417515.435 5  -3235340.83921
  21033893.506       90716.776 6     89568.64622
  21845672.498   -13387197.348 6 -10365475.11121
 91  4 25 21 38 59.9980000  0  6G18G 2G11G16G19G 6
  23449117.0614   13942244.68445  10858176.89361
  20449842.545   -18258460.936 7 -14182910.33924
  23074954.1474   -4716618.16646  -3610459.40461
  23499591.1474   -4403863.24545  -3224702.92161
  21036454.975      104192.903 6    100069.51022
  21838698.607   -13423845.150 6 -10394031.73721
 91  4 25 21 39 14.9980000  0  6G18G 2G11G16G19G 6
  23458029.732    13989075.164 5  10894668.11721
  20445661.318   -18280429.557 7 -14200028.72024
  23079306.561    -4693740.343 6  -3592632.58121
  23502213.8114   -4390099.98045  -3213978.43961
  21039036.6864     117749.30246    110632.92662
  21831730.0144  -13460461.83646 -10422564.13061
 91  4 25 21 39 29.9980000  0  6G18G 2G11G16G19G 6
  23466948.6074   14035953.04645  10931196.30761
  20441498.881   -18302302.468 7 -14217072.52724
  23083688.889    -4670717.160 6  -3574692.49321
  23504855.4754   -4376223.63145  -3203165.83961
  21041631.1394     131388.01846    121260.48462
  21824767.6624  -13497045.30246 -10451070.63161
 91  4 25 21 39 44.9980000  0  6G18G 2G11G16G19G 6
  23475879.7014   14082868.28045  10967753.57261
  20437355.381   -18324089.464 7 -14234049.38424
  23088092.9434   -4647558.44246  -3556646.79961
  23507512.4984   -4362243.92745  -3192272.72461
  21044240.350      145099.526 6    131944.76122
  21817810.2954  -13533605.10346 -10479558.69961
 91  4 25 21 39 59.9980000  0  6G18G 2G11G16G19G 6
  23484815.8734   14129827.82445  11004345.37761
  20433225.842   -18345783.212 7 -14250953.58224
  23092526.764    -4624257.271 6  -3538490.07321
  23510193.959    -4348154.289 5  -3181293.94921
  21046864.436      158891.175 7    142691.48222
  21810858.8734  -13570133.96546 -10508022.65961
 91  4 25 21 40 14.9980000  0  6G18G 2G11G16G19G 6
  23493758.4984   14176827.80745  11040968.69061
  20429115.467   -18367387.197 7 -14267787.83224
  23096991.4284   -4600817.44546  -3520225.29861
  23512892.881    -4333958.461 5  -3170232.39321
  21049505.811      172759.285 6    153497.78922
  21803910.5144  -13606635.40546 -10536465.23961
 91  4 25 21 40 29.9980000  0  6G18G 2G11G16G19G 6
  23502709.490    14223877.506 5  11077630.73721
  20425023.037   -18388892.019 7 -14284544.81624
  23101479.7174   -4577229.56346  -3501845.19461
  23515619.014    -4319647.189 5  -3159080.91321
  21052158.248      186713.608 6    164371.27222
  21796971.3424  -13643099.75346 -10564878.93161
 91  4 25 21 40 44.9980000  0  6G18G 2G11G16G19G 6
  23511674.1864   14270971.85745  11114327.57761
  20420946.850   -18410302.439 7 -14301228.23924
  23105997.8264   -4553498.77546  -3483353.72561
  23518361.170    -4305225.730 5  -3147843.61221
  21054831.975      200749.300 6    175308.15322
  21790043.6074  -13679531.68746 -10593267.35061
 91  4 25 21 40 59.9980000  0  6G18G 2G11G16G19G 6
  23520644.8034   14318112.58045  11151060.55261
  20416892.006   -18431616.713 7 -14317836.73924
  23110538.576    -4529623.518 6  -3464749.68221
  23521127.662    -4290692.433 5  -3136519.10021
  21057516.3034     214868.35346    186309.98662
  21783117.357   -13715929.237 6 -10621628.99321
 91  4 25 21 41 14.9980000  0  6G18G 2G11G16G19G 6
  23529623.654    14365302.499 5  11187831.85521
  20412854.592   -18452831.627 7 -14334367.81824
  23115109.670    -4505600.873 6  -3446030.81221
  23523912.0924   -4276044.12444  -3125105.00961
  21060220.779      229073.997 6    197379.30222
  21776197.1004  -13752289.08546 -10649961.24561
 91  4 25 21 41 29.9980000  0  6G18G 2G11G16G19G 6
  23538616.4124   14412536.04945  11224637.13561
  20408835.350   -18473952.527 7 -14350825.64224
  23119709.092    -4481436.264 6  -3427201.31021
  23526726.5224   -4261286.56444  -3113605.77261
  21062941.756      243361.019 6    208512.02122
  21769282.076   -13788616.488 6 -10678268.22421
 91  4 25 21 41 44.9980000  0  6G18G 2G11G16G19G 6
  23547607.6784   14459815.60644  11261478.31061
  20404832.959   -18494976.865 7 -14367208.22324
  23124333.7564   -4457127.49446  -3408259.48061
  23529552.842    -4246417.570 4  -3102019.71921
  21065673.811      257732.089 6    219710.23622
  21762377.0454  -13824908.67046 -10706547.76561
 91  4 25 21 41 59.9980000  0  6G18G 2G11G16G19G 6
  23556610.1624   14507130.13545  11298346.67961
  20400849.045   -18515915.193 7 -14383523.77924
  23128984.3504   -4432685.44246  -3389213.79061
  23532406.9904   -4231448.16844  -3090355.43061
  21068422.061      272176.692 6    230965.75822
  21755475.7324  -13861176.18946 -10734808.06861
 91  4 25 21 42 14.9980000  0  6G18G 2G11G16G19G 6
  23565623.2094   14554491.32845  11335251.45261
  20396886.1154  -18536755.95247 -14399763.30664
  23133662.8734   -4408098.61846  -3370055.27261
  23535272.8114   -4216366.71044  -3078603.82961
  21071188.951      286706.474 6    242287.64522
  21748583.943   -13897407.311 6 -10763040.02421
 91  4 25 21 42 29.9980000  0  6G18G 2G11G16G19G 6
  23574643.459    14601887.962 5  11372183.82221
  20392933.3734  -18557510.27647 -14415935.48164
  23138366.725    -4383378.290 6  -3350792.71621
  23538162.561    -4201184.504 4  -3066773.68821
  21073967.256      301310.612 6    253667.47822
  21741690.3034  -13933612.94346 -10791252.12161
 91  4 25 21 42 44.9980000  0  6G18G 2G11G16G19G 6
  23583670.365    14649328.654 4  11409150.52621
  20389002.123   -18578168.919 7 -14432033.10324
  23143099.4594   -4358515.57646  -3331419.23761
  23541074.3574   -4185892.77045  -3054858.20761
  21076762.514      315998.483 6    265112.55722
  21734809.1234  -13969783.71446 -10819437.04861
 91  4 25 21 42 59.9980000  0  6G18G 2G11G16G19G 6
  23592705.1784   14696801.69645  11446142.46661
  20385087.514   -18598743.569 7 -14448065.27224
  23147855.029    -4333522.275 6  -3311943.98921
  23543996.529    -4170503.446 4  -3042866.67221
  21079569.592      330758.350 6    276613.73122
  21727929.209   -14005931.253 6 -10847603.88721
 91  4 25 21 43 14.9980000  0  6G18G 2G11G16G19G 6
  23601743.0534   14744305.64945  11483158.50161
  20381188.482   -18619235.475 7 -14464032.96524
  23152634.9044   -4308399.74546  -3292368.05661
  23546943.3114   -4155018.09744  -3030800.33261
  21082393.7954     345589.23646    288170.25462
  21721055.045   -14042056.599 6 -10875753.42921
 91  4 25 21 43 29.9980000  0  6G18G 2G11G16G19G 6
  23610788.1624   14791835.32545  11520194.56261
  20377301.5454  -18639649.36147 -14479939.86364
  23157440.428    -4283153.076 6  -3272695.40421
  23549910.6234   -4139441.56345  -3018662.94561
  21085229.3344     360486.46346    299778.48262
  21714184.373   -14078164.304 6 -10903889.23121
 91  4 25 21 43 44.9980000  0  6G18G 2G11G16G19G 6
  23619838.897    14839392.687 5  11557252.19021
  20373435.279   -18659983.029 7 -14495784.25524
  23162270.9754   -4257780.40346  -3252924.55461
  23552892.154    -4123771.832 5  -3006452.89721
  21088074.912      375452.253 6    311440.11922
  21707317.4824  -14114252.03046 -10932009.46361
 91  4 25 21 43 59.9980000  0  6G18G 2G11G16G19G 6
  23628891.6784   14886974.21645  11594328.64161
  20369578.936   -18680240.083 7 -14511568.95224
  23167121.779    -4232285.600 6  -3233058.52421
  23555897.2954   -4108012.81945  -2994173.28661
  21090936.6394     390482.94146    323152.33762
  21700452.404   -14150323.355 6 -10960116.92121
 91  4 25 21 44 14.9980000  0  6G18G 2G11G16G19G 6
  23637954.662    14934570.690 5  11631416.76521
  20365737.889   -18700429.461 7 -14527300.90624
  23171994.529    -4206677.620 6  -3213104.32621
  23558915.897    -4092173.678 5  -2981831.26621
  21093807.1234     405569.90946    334908.40262
  21693588.7404  -14186387.01746 -10988218.40361
 91  4 25 21 44 29.9980000  0  6G18G 2G11G16G19G 6
  23647017.092    14982178.991 5  11668514.09421
  20361908.740   -18720554.182 7 -14542982.48924
  23176889.6544   -4180959.63546  -3193064.41361
  23561935.3504   -4076257.51445  -2969429.17761
  21096688.1544     420710.37746    346706.16162
  21686727.5064  -14222445.76046 -11016316.05961
 91  4 25 21 44 44.9980000  0  6G18G 2G11G16G19G 6
  23656079.1934   15029812.16345  11705630.81161
  20358093.1474  -18740600.41847 -14558602.90364
  23181806.482    -4155118.263 6  -3172928.32621
  23564976.6704   -4060251.13844  -2956956.81361
  21099582.725      435918.097 6    358556.31222
  21679868.529   -14258485.783 6 -11044399.12221
 91  4 25 21 44 59.9980000  0  6G18G 2G11G16G19G 6
  23665142.8344   15077456.15745  11742755.93561
  20354289.842   -18760582.498 7 -14574173.33623
  23186745.381    -4129168.028 6  -3152707.43421
  23568044.834    -4044169.159 4  -2944425.55721
  21102485.342      451178.835 6    370447.78223
  21673012.576   -14294521.091 6 -11072478.50121
 91  4 25 21 45 14.9980000  0  6G18G 2G11G16G19G 6
  23674215.217    15125114.489 5  11779892.24821
  20350502.193   -18780496.686 7 -14589690.86523
  23191700.342    -4103105.314 6  -3132398.88321
  23571115.232    -4028007.714 4  -2931832.37021
  21105401.006      466496.329 6    382383.47823
  21666157.0064  -14330547.91446 -11100551.27961
 91  4 25 21 45 29.9980000  0  6G18G 2G11G16G19G 6
  23683284.7794   15172783.18144  11817036.67661
  20346723.482   -18800346.367 7 -14605158.13024
  23196684.4984   -4076933.91546  -3112005.64661
  23574205.6624   -4011770.76844  -2919180.36961
  21108324.162      481867.252 6    394360.79823
  21659301.4514  -14366569.60746 -11128620.06961
 91  4 25 21 45 44.9980000  0  6G18G 2G11G16G19G 6
  23692359.529    15220463.201 4  11854189.88321
  20342960.717   -18820130.279 7 -14620574.14224
  23201683.8114   -4050652.78046  -3091526.88261
  23577314.3574   -3995457.52144  -2906468.90661
  21111260.467      497293.062 6    406380.89623
  21652447.397   -14402584.747 6 -11156683.72921
 91  4 25 21 45 59.9980000  0  6G18G 2G11G16G19G 6
  23701432.1624   15268150.53544  11891348.79661
  20339205.615   -18839852.677 7 -14635942.22224
  23206704.568    -4024266.157 6  -3070965.92521
  23580423.4904   -3979072.21244  -2893701.30861
  21114204.732      512769.787 6    418440.66323
  21645595.3184  -14438597.12046 -11184745.26661
 91  4 25 21 46 14.9980000  0  6G18G 2G11G16G19G 6
  23710509.365    15315849.838 4  11928517.02621
  20335466.928   -18859508.644 7 -14651258.54124
  23211748.850    -3997769.490 6  -3050319.23721
  23583560.7644   -3962610.13345  -2880873.84561
  21117164.264      528302.430 6    430544.00423
  21638741.5374  -14474601.78746 -11212800.78561
 91  4 25 21 46 29.9980000  0  5G18G 2G11G19G 6
  23719592.7404   15363559.68645  11965693.47261
  20331738.889   -18879099.491 7 -14666524.10823
  23216808.404    -3971164.324 6  -3029587.99321
  21120126.584      543889.646 6    442689.87123
  21631892.795   -14510600.019 6 -11240851.29221
 91  4 25 21 46 44.9980000  0  5G18G 2G11G19G 6
  23728669.522    15411273.357 5  12002872.90821
  20328020.061   -18898631.133 7 -14681743.56123
  23221891.7564   -3944456.88946  -3008777.06461
  21123103.772      559525.690 6    454873.78823
  21625042.029   -14546597.664 6 -11268901.31421
 91  4 25 21 46 59.9980000  0  5G18G 2G11G19G 6
  23737749.5374   15458993.70545  12040057.54661
  20324315.990   -18918100.860 7 -14696914.76424
  23226994.342    -3917644.724 6  -2987884.54521
  21126087.576      575213.388 6    467097.94723
  21618193.2324  -14582591.69446 -11296948.55361
 91  4 25 21 47 14.9980000  0  5G18G 2G11G19G 6
  23746827.3114   15506717.02145  12077244.48361
  20320622.389   -18937512.223 7 -14712040.48124
  23232112.678    -3890731.504 6  -2966913.27821
  21129085.834      590949.318 6    479359.69123
  21611344.1154  -14618585.57946 -11324995.67061
 91  4 25 21 47 29.9980000  0  5G18G 2G11G19G 6
  23755911.647    15554446.183 5  12114435.97721
  20316940.303   -18956862.104 7 -14727118.29324
  23237255.8654   -3863714.37646  -2945861.03961
  21132086.498      606736.703 6    491661.53223
  21604495.3574  -14654575.95146 -11353040.06261
 91  4 25 21 47 44.9980000  0  5G18G 2G11G19G 6
  23764995.2874   15602183.01045  12151633.44561
  20313270.131   -18976148.337 7 -14742146.50524
  23242416.2644   -3836591.43946  -2924726.35061
  21135101.967      622577.715 6    504005.15823
  21597648.1074  -14690560.56546 -11381079.95561
 91  4 25 21 47 59.9980000  0  4G 2G11G19G 6
  20309611.045   -18995375.156 7 -14757128.42824
  23247599.834    -3809367.291 6  -2903512.81721
  21138124.904      638468.100 6    516387.26422
  21590800.8894  -14726543.66246 -11409118.66161
 91  4 25 21 48 14.9980000  0  4G 2G11G19G 6
  20305962.045   -19014544.604 7 -14772065.63724
  23252798.6624   -3782043.92846  -2882221.95261
  21141158.904      654406.324 6    528806.64522
  21583952.787   -14762526.806 6 -11437157.39722
 91  4 25 21 48 29.9980000  0  4G 2G11G19G 6
  20302325.826   -19033659.185 7 -14786960.09524
  23258015.1394   -3754624.07546  -2860855.89961
  21144200.428      670389.929 6    541261.37823
  21577106.795   -14798512.306 6 -11465197.97621
 91  4 25 21 48 44.9980000  0  4G 2G11G19G 6
  20298698.748   -19052718.257 7 -14801811.29824
  23263252.920    -3727107.602 6  -2839414.54621
  21147252.881      686419.417 6    553751.86923
  21570254.4824  -14834499.61946 -11493239.97361
 91  4 25 21 48 59.9980000  0  4G 2G11G19G 6
  20295082.029   -19071728.418 7 -14816624.39024
  23268506.9674   -3699501.23046  -2817903.15361
  21150307.897      702488.355 6    566273.09822
  21563408.428   -14870495.099 6 -11521288.32821
 91  4 25 21 49 14.9980000  0  4G 2G11G19G 6
  20291473.936   -19090679.387 7 -14831391.35823
  23273779.8264   -3671794.81146  -2796313.79861
  21153376.998      718607.258 6    578833.25922
  21556558.6934  -14906488.18446 -11549334.82161
 91  4 25 21 49 29.9980000  0  4G 2G11G19G 6
  20287879.404   -19109573.772 7 -14846114.23523
  23279070.9904   -3643991.29046  -2774648.79161
  21156450.584      734773.651 6    591430.43222
  21549707.4514  -14942481.39446 -11577381.40261
 91  4 25 21 49 44.9980000  0  4G 2G11G19G 6
  20284294.084   -19128413.311 7 -14860794.37723
  23284376.686    -3616092.780 6  -2752909.73721
  21159538.990      750985.620 6    604063.11922
  21542861.045   -14978476.464 6 -11605429.43522
 91  4 25 21 49 59.9980000  0  4G 2G11G19G 6
  20280718.654   -19147198.667 7 -14875432.30023
  23289709.475    -3588100.046 6  -2731097.29521
  21162628.381      767242.691 6    616730.94122
  21536009.795   -15014473.742 6 -11633479.18722
 91  4 25 21 50 14.9980000  0  4G 2G11G19G 6
  20277154.365   -19165935.556 7 -14890032.45323
  23295048.2874   -3560018.93346  -2709215.98761
  21165733.084      783539.449 6    629429.69522
  21529155.725   -15050478.692 6 -11661534.90621
 91  4 25 21 50 29.9980000  0  4G 2G11G19G 6
  20273600.342   -19184616.218 7 -14904588.79724
  23300412.397    -3531841.908 6  -2687259.94021
  21168840.600      799883.710 6    642165.46123
  21522307.037   -15086483.444 6 -11689590.48221
 91  4 25 21 50 44.9980000  0  4G 2G11G19G 6
  20270054.943   -19203245.527 7 -14919105.11823
  23305788.7564   -3503574.23646  -2665233.26961
  21171963.342      816270.629 6    654934.46622
  21515454.818   -15122492.766 6 -11717649.61621
 91  4 25 21 50 59.9980000  0  4G 2G11G19G 6
  20266521.381   -19221809.029 7 -14933570.17223
  23311188.8894   -3475201.72746  -2643124.90161
  21175089.006      832714.586 6    667747.91823
  21508603.818   -15158492.083 6 -11745700.97122
 91  4 25 21 51 14.9980000  0  4G 2G11G19G 6
  20263001.170   -19240314.633 7 -14947990.10723
  23316608.467    -3446732.519 6  -2620941.18421
  21178230.131      849207.898 6    680599.82723
  21501752.022   -15194489.072 6 -11773750.49221
 91  4 25 21 51 29.9980000  0  4G 2G11G19G 6
  20259489.389   -19258765.588 7 -14962367.46023
  23322041.6234   -3418170.22646  -2598684.92061
  21181375.264      865747.493 7    693487.80623
  21494903.318   -15230486.882 6 -11801800.65922
 91  4 25 21 51 44.9980000  0  4G 2G11G19G 6
  20255989.264   -19277164.995 7 -14976704.64423
  23327493.5764   -3389517.96746  -2576358.55461
  21184530.982      882330.514 6    706409.61923
  21488051.186   -15266488.290 6 -11829853.61722
 91  4 25 21 51 59.9980000  0  4G 2G11G19G 6
  20252495.834   -19295509.117 7 -14990998.74523
  23332968.225    -3360772.321 6  -2553959.42221
  21187695.139      898960.683 6    719368.17523
  21481201.779   -15302489.441 6 -11857906.37922
 91  4 25 21 52 14.9980000  0  4G 2G11G19G 6
  20249019.623   -19313796.206 7 -15005248.40923
  23338451.029    -3331931.898 6  -2531486.43121
  21190871.139      915640.007 6    732365.02923
  21474348.951   -15338488.392 6 -11885957.43422
 91  4 25 21 52 29.9980000  0  4G 2G11G19G 6
  20245548.139   -19332026.674 7 -15019453.94223
  23343956.5224   -3302997.13445  -2508939.92061
  21194052.709      932368.226 7    745399.98323
  21467501.068   -15374485.265 6 -11914006.86922
 91  4 25 21 52 44.9980000  0  4G 2G11G19G 6
  20242088.240   -19350203.426 7 -15033617.63123
  23349481.865    -3273971.189 5  -2486322.37521
  21197245.522      949142.615 6    758470.91823
  21460649.568   -15410482.917 6 -11942056.91922
 91  4 25 21 52 59.9980000  0  4G 2G11G19G 6
  20238640.279   -19368325.876 7 -15047739.00523
  23355022.240    -3244853.841 6  -2463633.61421
  21200447.061      965963.659 6    771578.20122
  21453798.639   -15446480.732 6 -11970107.06122
 91  4 25 21 53 14.9980000  0  4G 2G11G19G 6
  20235202.670   -19386396.439 7 -15061819.94324
  23360581.8734   -3215647.76946  -2440875.69961
  21203654.982      982828.907 6    784719.92923
  21446949.404   -15482480.775 6 -11998158.96922
 91  4 25 21 53 29.9980000  0  4G 2G11G19G 6
  20231775.404   -19404403.822 7 -15075851.65123
  23366157.3034   -3186341.91846  -2418040.06761
  21206875.6704     999749.78846    797905.00063
  21440099.2174  -15518471.65846 -12026203.74762
 91  4 25 21 53 44.9980000  0  4G 2G11G19G 6
  20228358.529   -19422356.709 7 -15089840.89924
  23371754.3654   -3156945.16046  -2395133.59961
  21210104.959     1016717.527 6    811126.59423
  21433252.123   -15554461.925 6 -12054248.03922
 91  4 25 21 53 59.9970000  0  4G 2G11G19G 6
  20224951.735   -19440253.992 7 -15103786.81524
  23377362.032    -3127459.822 6  -2372158.08121
  21213342.931     1033731.124 6    824383.92223
  21426404.212   -15590448.998 6 -12082289.82622
 91  4 25 21 54 14.9970000  0  4G 2G11G19G 6
  20221558.8214  -19458089.39547 -15117684.51764
  23382992.3374   -3097873.51245  -2349103.87661
  21216591.884     1050801.733 6    837685.67523
  21419558.306   -15626428.812 6 -12110325.96822
 91  4 25 21 54 29.9970000  0  4G 2G11G19G 6
  20218175.954   -19475868.597 7 -15131538.42524
  23388643.2824   -3068195.39646  -2325978.16861
  21219849.3454    1067921.38146    851025.62963
  21412710.243   -15662405.732 6 -12138359.85322
 91  4 25 21 54 44.9970000  0  4G 2G11G19G 6
  20214803.712   -19493587.241 7 -15145345.14424
  23394307.4854   -3038421.42146  -2302777.76361
  21223116.743     1085094.598 6    864407.33822
  21405864.712   -15698375.160 6 -12166387.89922
 91  4 25 21 54 59.9970000  0  4G 2G11G19G 6
  20211443.048   -19511254.987 7 -15159112.20224
  23399987.6654   -3008561.54746  -2279510.41061
  21226393.892     1102311.639 6    877823.18822
  21399021.024   -15734346.785 6 -12194417.66122
 91  4 25 21 55 14.9970000  0  4G 2G11G19G 6
  20208090.814   -19528865.885 7 -15172834.95924
  23405690.9154   -2978610.02146  -2256171.61561
  21229680.454     1119578.710 6    891278.02622
  21392176.110   -15770314.177 6 -12222444.12722
 91  4 25 21 55 29.9970000  0  4G 2G11G19G 6
  20204750.165   -19546418.305 7 -15186512.15524
  23411405.2044   -2948565.27745  -2232760.21661
  21232974.439     1136897.827 6    904773.41922
  21385333.165   -15806275.474 6 -12250465.84422
 91  4 25 21 55 44.9970000  0  4G 2G11G19G 6
  20201421.243   -19563908.537 7 -15200140.89324
  23417141.5874   -2918424.14645  -2209273.69761
  21236280.392     1154272.612 6    918312.19322
  21378491.6104  -15842226.97446 -12278479.92862
 91  4 25 21 55 59.9970000  0  4G 2G11G19G 6
  20198105.814   -19581343.507 7 -15213726.56724
  23422897.189    -2888193.692 5  -2185717.56821
  21239599.321     1171696.170 6    931888.97122
  21371650.189   -15878175.362 6 -12306491.58222
 91  4 25 21 56 14.9970000  0  4G 2G11G19G 6
  20194795.478   -19598725.988 7 -15227271.34224
  23428666.149    -2857876.729 6  -2162094.03821
  21242920.696     1189165.960 6    945501.77722
  21364811.3764  -15914123.18546 -12334502.80362
 91  4 25 21 56 29.9970000  0  4G 2G11G19G 6
  20191499.868   -19616050.010 8 -15240770.56624
  23434449.9784   -2827467.65045  -2138398.74561
  21246254.478     1206687.999 6    959155.29222
  21357970.360   -15950064.269 6 -12362508.77322
 91  4 25 21 56 44.9970000  0  4G 2G11G19G 6
  20188217.056   -19633305.066 7 -15254216.04623
  23440256.6494   -2796956.23546  -2114623.69461
  21249599.298     1224272.822 6    972857.73422
  21351130.6034  -15985988.04346 -12390501.25862
 91  4 25 21 56 59.9970000  0  4G 2G11G19G 6
  20184943.853   -19650507.754 7 -15267620.72423
  23446080.728    -2766359.249 6  -2090782.00421
  21252956.892     1241904.057 6    986596.34122
  21344296.774   -16021910.713 6 -12418492.87122
 91  4 25 21 57 14.9970000  0  4G 2G11G19G 6
  20181681.118   -19667656.048 8 -15280983.01823
  23451917.603    -2735674.924 6  -2066872.23221
  21256321.274     1259583.714 6   1000372.67322
  21337463.4154  -16057830.31146 -12446482.10562
 91  4 25 21 57 29.9970000  0  4G 2G11G19G 6
  20178426.985   -19684745.279 7 -15294299.28723
  23457770.962    -2704899.023 6  -2042891.10121
  21259695.368     1277316.523 6   1014190.42122
  21330629.431   -16093741.886 6 -12474465.07822
 91  4 25 21 57 44.9970000  0  4G 2G11G19G 6
  20175188.509   -19701771.758 8 -15307566.65523
  23463649.485    -2674028.162 6  -2018835.95921
  21263081.423     1295106.178 6   1028052.46422
  21323796.306   -16129641.618 6 -12502438.82322
 91  4 25 21 57 59.9970000  0  4G 2G11G19G 6
  20171960.181   -19718736.369 7 -15320785.81924
  23469540.235    -2643063.287 6  -1994707.57421
  21266474.993     1312952.077 6   1041958.34822
  21316966.3144  -16165530.01246 -12530403.73462
 91  4 25 21 58 14.9970000  0  4G 2G11G19G 6
  20168742.899   -19735642.242 7 -15333959.21323
  23475451.6344   -2612007.88745  -1970508.65361
  21269884.814     1330851.248 6   1055905.73122
  21310140.3994  -16201410.09646 -12558362.18162
 91  4 25 21 58 29.9970000  0  4G 2G11G19G 6
  20165537.524   -19752486.714 8 -15347084.76223
  23481376.329    -2580859.687 5  -1946237.39621
  21273298.743     1348806.188 6   1069896.57322
  21303315.173   -16237279.335 6 -12586312.16122
 91  4 25 21 58 44.9970000  0  4G 2G11G19G 6
  20162344.767   -19769266.793 8 -15360160.13224
  23487326.118    -2549615.762 5  -1921891.56221
  21276728.845     1366820.269 6   1083933.50622
  21296491.048   -16273134.145 6 -12614250.90222
 91  4 25 21 58 59.9970000  0  4G 2G11G19G 6
  20159162.384   -19785988.756 8 -15373190.21824
  23493286.540    -2518282.624 6  -1897476.21321
  21280164.540     1384887.234 6   1098011.63122
  21289670.8064  -16308980.60746 -12642183.14262
 91  4 25 21 59 14.9970000  0  4G 2G11G19G 6
  20155989.6574  -19802652.51647 -15386174.95763
  23499268.134    -2486860.424 6  -1872991.46721
  21283613.642     1403007.163 6   1112131.04222
  21282851.3214  -16344818.60047 -12670108.78462
 91  4 25 21 59 29.9970000  0  4G 2G11G19G 6
  20152830.5564  -19819257.43847 -15399113.84464
  23505258.056    -2455348.954 5  -1848437.19521
  21287071.806     1421180.928 6   1126292.39622
  21276032.5094  -16380647.24446 -12698027.13762
 91  4 25 21 59 44.9970000  0  4G 2G11G19G 6
  20149682.196   -19835804.229 7 -15412007.43324
  23511277.337    -2423748.991 6  -1823813.94721
  21290537.673     1439407.978 6   1140495.27022
  21269218.4074  -16416466.92747 -12725938.51862
 91  4 25 21 59 59.9970000  0  4G 2G11G19G 6
  20146545.454   -19852288.853 7 -15424852.57923
  23517308.985    -2392056.810 6  -1799118.84521
  21294018.9234    1457692.39846   1154742.84162
  21262402.4314  -16452273.56446 -12753839.72662
 91  4 25 22  0 14.9970000  0  4G 2G11G19G 6
  20143418.071   -19868721.215 7 -15437657.00123
  23523355.4234   -2360282.69845  -1774359.89061
  21297508.321     1476024.323 6   1169027.43622
  21255587.4464  -16488076.86846 -12781738.33462
 91  4 25 22  0 29.9970000  0  4G 2G11G19G 6
  20140305.2904  -19885093.27647 -15450414.44163
  23529419.1424   -2328418.74445  -1749530.92361
  21301004.829     1494411.832 6   1183355.34722
  21248775.0244  -16523868.40046 -12809627.77362
 91  4 25 22  0 44.9970000  0  4G 2G11G19G 6
  20137199.5644  -19901403.66947 -15463123.82563
  23535497.6814   -2296463.80945  -1724631.06661
  21304517.954     1512856.488 6   1197727.78422
  21241969.767   -16559646.712 6 -12837506.90922
 91  4 25 22  0 59.9970000  0  4G 2G11G19G 6
  20134106.5794  -19917657.77547 -15475789.35563
  23541595.579    -2264423.573 5  -1699664.72721
  21308040.376     1531353.032 6   1212140.65622
  21235161.8454  -16595416.98446 -12865379.78662
 91  4 25 22  1 14.9970000  0  4G 2G11G19G 6
  20131023.8454  -19933852.39347 -15488408.52663
  23547708.2984   -2232295.06445  -1674629.62061
  21311569.009     1549904.855 6   1226596.59922
  21228357.3294  -16631175.68646 -12893243.64362
 91  4 25 22  1 29.9970000  0  4G 2G11G19G 6
  20127953.485   -19949990.820 7 -15500983.90723
  23553838.8994   -2200081.93345  -1649528.58761
  21315106.4704    1568508.57046   1241092.96962
  21221554.5644  -16666926.15446 -12921101.07662
 91  4 25 22  1 44.9970000  0  4G 2G11G19G 6
  20124893.806   -19966066.111 7 -15513510.09623
  23559988.1184   -2167777.52046  -1624356.43161
  21318661.618     1587171.243 6   1255635.28322
  21214755.9314  -16702661.14846 -12948946.45962
 91  4 25 22  1 59.9970000  0  4G 2G11G19G 6
  20121846.610   -19982076.343 8 -15525985.58223
  23566150.2124   -2135380.22345  -1599111.88561
  21322221.181     1605894.801 6   1270225.05222
  21207957.5324  -16738378.60546 -12976778.17262
 91  4 25 22  2 14.9970000  0  4G 2G11G19G 6
  20118812.6104  -19998029.53648 -15538416.62963
  23572335.110    -2102898.216 5  -1573801.34121
  21325796.790     1624671.342 6   1284856.09822
  21201163.1814  -16774086.32846 -13004602.31162
 91  4 25 22  2 29.9970000  0  4G 2G11G19G 6
  20115785.790   -20013923.126 8 -15550801.22924
  23578531.3844   -2070329.15845  -1548422.95061
  21329377.2354    1643503.72646   1299530.65662
  21194370.3764  -16809781.33146 -13032416.52562
 91  4 25 22  2 44.9970000  0  4G 2G11G19G 6
  20112773.407   -20029758.129 7 -15563140.18224
  23584743.540    -2037674.320 5  -1522977.72021
  21332973.728     1662391.097 6   1314248.05522
  21187580.8214  -16845464.59646 -13060221.60462
 91  4 25 22  2 59.9970000  0  4G 2G11G19G 6
  20109773.1264  -20045534.51348 -15575433.45664
  23590977.720    -2004934.030 5  -1497465.91421
  21336578.040     1681333.426 6   1329008.29522
  21180791.1034  -16881135.82946 -13088017.31062
 91  4 25 22  3 14.9970000  0  4G 2G11G19G 6
  20106780.1264  -20061247.45547 -15587677.29864
  23597222.5714   -1972103.57945  -1471883.83061
  21340192.978     1700335.718 6   1343815.25122
  21174009.720   -16916789.935 7 -13115799.66022
 91  4 25 22  3 29.9970000  0  4G 2G11G19G 6
  20103804.149   -20076887.482 7 -15599864.31924
  23603490.9154   -1939173.80245  -1446224.39861
  21343822.7124    1719407.43546   1358676.30362
  21167227.6104  -16952417.26947 -13143561.15462
 91  4 25 22  3 44.9970000  0  4G 2G11G19G 6
  20100845.4624  -20092439.39247 -15611982.67963
  23609779.126    -1906129.865 5  -1420475.95821
  21347468.5324    1738563.81246   1373603.31462
  21160456.1034  -16988002.52247 -13171289.85862
 91  4 25 22  3 59.9970000  0  4G 2G11G19G 6
  20097899.462   -20107919.936 8 -15624045.42924
  23616083.1964   -1872988.62545  -1394651.69961
  21351126.6184    1757788.28146   1388583.38962
  21153690.8534  -17023562.13547 -13198998.58862
 91  4 25 22  4 14.9970000  0  4G 2G11G19G 6
  20094966.0244  -20123343.50448 -15636063.78164
  23622407.314    -1839764.843 5  -1368763.16521
  21354796.5954    1777066.65046   1403605.46262
  21146924.4784  -17059110.15746 -13226698.28262
 91  4 25 22  4 29.9970000  0  4G 2G11G19G 6
  20092042.407   -20138694.016 7 -15648025.20224
  23628748.642    -1806442.960 5  -1342798.16421
  21358477.1104    1796415.02846   1418682.08862
  21140166.6264  -17094630.72047 -13254376.58062
 91  4 25 22  4 44.9970000  0  4G 2G11G19G 6
  20089137.157   -20153972.463 8 -15659930.46724
  23635107.204    -1773023.923 5  -1316757.45721
  21362173.759     1815832.465 6   1433812.53522
  21133410.0324  -17130124.25546 -13282033.81562
 91  4 25 22  4 59.9970000  0  4G 2G11G19G 6
  20086244.970   -20169178.813 8 -15671779.55724
  23641481.6424   -1739507.84745  -1290641.14261
  21365879.6814    1835319.11246   1448996.90662
  21126660.1574  -17165590.55246 -13309669.83162
 91  4 25 22  5 14.9970000  0  4G 2G11G19G 6
  20083364.868   -20184306.229 7 -15683567.13824
  23647879.1494   -1705888.33145  -1264444.20361
  21369606.3454    1854881.83846   1464240.56062
  21119919.2434  -17201022.55846 -13337279.12662
 91  4 25 22  5 29.9970000  0  4G 2G11G19G 6
  20080498.290   -20199361.484 7 -15695298.48824
  23654300.314    -1672172.370 5  -1238172.14121
  21373337.8684    1874514.16646   1479538.44262
  21113183.5484  -17236426.70446 -13364866.71562
 91  4 25 22  5 44.9970000  0  4G 2G11G19G 6
  20077648.103   -20214340.970 7 -15706970.79924
  23660737.087    -1638356.716 5  -1211822.39621
  21377090.7204    1894219.66046   1494893.34062
  21106452.2674  -17271799.35547 -13392429.75962
 91  4 25 22  5 59.9970000  0  4G 2G11G19G 6
  20074813.2984  -20229242.93347 -15718582.70864
  23667185.7904   -1604439.81545  -1185393.73961
  21380853.587     1914000.005 6   1510306.57122
  21099724.6964  -17307138.63047 -13419966.79362
 91  4 25 22  6 14.9970000  0  4G 2G11G19G 6
  20071993.735   -20244063.409 7 -15730131.11724
  23673663.048    -1570417.962 5  -1158883.28121
  21384631.7674    1933859.41446   1525781.40962
  21093008.9074  -17342440.28247 -13447474.52162
 91  4 25 22  6 29.9970000  0  4G 2G11G19G 6
  20069188.9784  -20258797.97048 -15741612.58564
  23680157.8064   -1536286.95645  -1132287.77461
  21388429.4234    1953802.55946   1541321.48362
  21086299.0874  -17377699.43547 -13474949.12662
 91  4 25 22  6 44.9970000  0  4G 2G11G19G 6
  20066400.0174  -20273454.94447 -15753033.59564
  23686672.7124   -1502055.56945  -1105614.07661
  21392239.782     1973821.144 6   1556920.35622
  21079594.5714  -17412924.41147 -13502397.10362
 91  4 25 22  6 59.9970000  0  4G 2G11G19G 6
  20063626.024   -20288028.655 7 -15764389.72524
  23693203.634    -1467718.147 5  -1078857.75521
  21396061.6424    1993920.97946   1572582.53762
  21072901.196   -17448109.176 7 -13529813.74922
 91  4 25 22  7 14.9970000  0  4G 2G11G19G 6
  20060869.3374  -20302517.51148 -15775679.73363
  23699763.524    -1433273.474 5  -1052017.86621
  21399904.149     2014103.680 6   1588309.29122
  21066211.946   -17483251.956 7 -13557197.68322
 91  4 25 22  7 29.9970000  0  4G 2G11G19G 6
  20058130.3214  -20316918.61948 -15786901.36363
  23706336.415    -1398718.890 5  -1025092.32021
  21403760.4154    2034372.15046   1604102.88062
  21059530.6894  -17518349.61246 -13584546.44962
 91  4 25 22  7 44.9970000  0  4G 2G11G19G 6
  20055404.2514  -20331237.87348 -15798059.21363
  23712933.2124   -1364060.77445   -998086.09061
  21407634.3064    2054720.57546   1619958.76262
  21052863.782   -17553407.984 7 -13611864.60422
 91  4 25 22  7 59.9970000  0  4G 2G11G19G 6
  20052696.6734  -20345475.26748 -15809153.27863
  23719544.8374   -1329299.09445   -970999.17161
  21411517.1894    2075149.25246   1635877.18762
  21046197.923   -17588426.633 7 -13639151.81422
 91  4 25 22  8 14.9970000  0  4G 2G11G19G 6
  20050002.1184  -20359628.27348 -15820181.58363
  23726177.0174   -1294431.79845   -943829.98261
  21415422.9624    2095660.66046   1651860.07462
  21039543.290   -17623402.962 7 -13666406.04722
 91  4 25 22  8 29.9970000  0  4G 2G11G19G 6
  20047324.853   -20373699.061 8 -15831145.82023
  23732834.446    -1259461.393 5   -916580.43421
  21419343.5794    2116252.49646   1667905.62462
  21032894.915   -17658339.001 7 -13693628.89222
 91  4 25 22  8 44.9970000  0  4G 2G11G19G 6
  20044664.040   -20387675.275 8 -15842036.36223
  23739510.540    -1224375.851 5   -889241.14621
  21423278.0484    2136937.46246   1684023.75162
  21026255.837   -17693222.087 7 -13720810.46922
 91  4 25 22  8 59.9970000  0  4G 2G11G19G 6
  20042021.235   -20401563.761 8 -15852858.54624
  23746207.4854   -1189182.10445   -861817.52361
  21427228.9234    2157708.69046   1700209.09962
  21019627.001   -17728058.763 7 -13747955.87722
 91  4 25 22  9 14.9970000  0  4G 2G11G19G 6
  20039394.509   -20415369.631 7 -15863616.35524
  23752929.485    -1153885.492 5   -834313.77621
  21431200.446     2178561.231 6   1716457.80722
  21013003.306   -17762854.021 7 -13775069.01622
 91  4 25 22  9 29.9970000  0  4G 2G11G19G 6
  20036784.603   -20429084.579 7 -15874303.31424
  23759666.9314   -1118477.99645   -806723.62661
  21435183.4784    2199503.51546   1732776.44162
  21006394.618   -17797599.157 7 -13802143.10422
 91  4 25 22  9 44.9970000  0  4G 2G11G19G 6
  20034191.353   -20442709.238 7 -15884919.91624
  23766422.853    -1082960.505 5   -779047.75321
  21439184.9154    2220535.05046   1749164.61762
  20999792.8844  -17832294.50547 -13829178.40162
 91  4 25 22  9 59.9970000  0  3G 2G19G 6
  20031617.4394  -20456238.65347 -15895462.30964
  21443207.2284    2241660.78046   1765626.19862
  20993199.368   -17866935.143 7 -13856171.05722
 91  4 25 22 10 14.9970000  0  3G 2G19G 6
  20029061.2284  -20469667.32048 -15905926.19764
  21447248.314     2262886.277 6   1782165.52022
  20986618.743   -17901515.200 7 -13883116.50822
 91  4 25 22 10 29.9970000  0  3G 2G19G 6
  20026523.3534  -20483003.27748 -15916317.84064
  21451299.384     2284203.581 6   1798776.38821
  20980049.126   -17936042.356 7 -13910020.73722
 91  4 25 22 10 44.9970000  0  3G 2G19G 6
  20024004.306   -20496246.278 8 -15926637.04924
  21455373.415     2305613.048 6   1815459.06521
  20973488.603   -17970516.329 7 -13936883.52822
 91  4 25 22 10 59.9970000  0  3G 2G19G 6
  20021503.259   -20509392.045 8 -15936880.49024
  21459465.517     2327119.130 6   1832217.02322
  20966941.290   -18004932.519 7 -13963701.29722
 91  4 25 22 11 14.9970000  0  3G 2G19G 6
  20019021.9464  -20522439.81648 -15947047.57664
  21463580.7514    2348722.62246   1849050.87462
  20960401.610   -18039289.940 7 -13990473.26622
 91  4 25 22 11 29.9970000  0  3G 2G19G 6
  20016554.9394  -20535390.99548 -15957139.39463
  21467708.3604    2370422.24346   1865959.63462
  20953874.048   -18073589.841 7 -14017200.41222
 91  4 25 22 11 44.9970000  0  3G 2G19G 6
  20014108.446   -20548246.556 8 -15967156.69823
  21471857.767     2392217.210 6   1882942.70522
  20947358.431   -18107832.768 7 -14043883.16422
 91  4 25 22 11 59.9970000  0  3G 2G19G 6
  20011682.4624  -20560992.31048 -15977088.44463
  21476025.5644    2414121.79846   1900011.18162
  20940855.235   -18142004.533 7 -14070510.47222
 91  4 25 22 12 14.9970000  0  3G 2G19G 6
  20009277.7674  -20573633.57548 -15986938.77163
  21480213.3214    2436130.43446   1917160.73262
  20934367.696   -18176110.118 7 -14097086.20422
 91  4 25 22 12 29.9970000  0  3G 2G19G 6
  20006892.7354  -20586168.09548 -15996705.92663
  21484419.8844    2458245.66546   1934393.35862
  20927888.064   -18210147.051 7 -14123608.44222
 91  4 25 22 12 44.9970000  0  3G 2G19G 6
  20004526.5244  -20598603.00748 -16006395.45763
  21488648.7124    2480460.35746   1951703.46862
  20921422.392   -18244122.144 7 -14150082.49422
 91  4 25 22 12 59.9970000  0  3G 2G19G 6
  20002180.6814  -20610926.66448 -16015998.30463
  21492897.259     2502786.321 6   1969100.29822
  20914971.790   -18278023.615 7 -14176499.17722
 91  4 25 22 13 14.9970000  0  3G 2G19G 6
  19999856.845   -20623137.734 8 -16025513.41023
  21497167.4784    2525224.95646   1986584.91662
  20908535.212   -18311849.910 7 -14202857.27722
 91  4 25 22 13 29.9970000  0  3G 2G19G 6
  19997553.7824  -20635238.32748 -16034942.44163
  21501457.8994    2547774.45045   2004155.91462
  20902109.970   -18345602.831 7 -14229158.20522
 91  4 25 22 13 44.9970000  0  3G 2G19G 6
  19995273.4854  -20647226.82748 -16044284.12263
  21505768.6654    2570436.27346   2021814.45062
  20895702.649   -18379280.520 7 -14255400.51622
 91  4 25 22 13 59.9970000  0  3G 2G19G 6
  19993012.2514  -20659110.22748 -16053543.90663
  21510100.6424    2593203.56446   2039555.16862
  20889307.962   -18412889.645 7 -14281589.39222
 91  4 25 22 14 14.9970000  0  3G 2G19G 6
  19990772.7744  -20670875.29348 -16062711.48563
  21514457.173     2616089.437 6   2057388.29122
  20882927.626   -18446416.899 7 -14307714.48322
 91  4 25 22 14 29.9970000  0  3G 2G19G 6
  19988557.6344  -20682527.55448 -16071791.16763
  21518832.8064    2639088.95046   2075309.95862
  20876559.485   -18479867.298 7 -14333779.67622
 91  4 25 22 14 44.9970000  0  3G 2G19G 6
  19986363.4074  -20694057.31848 -16080775.39563
  21523237.1574    2662211.61246   2093327.58162
  20870212.540   -18513231.286 7 -14359777.53522
 91  4 25 22 14 59.9970000  0  3G 2G19G 6
  19984191.2124  -20705461.33348 -16089661.63163
  21527656.5954    2685460.59446   2111443.64062
  20863879.579   -18546505.160 7 -14385705.18122
 91  4 25 22 15 14.9970000  0  3G 2G19G 6
  19982044.1964  -20716746.86448 -16098455.55363
  21532107.8214    2708828.91846   2129652.68362
  20857564.868   -18579695.797 7 -14411567.96922
 91  4 25 22 15 29.9970000  0  3G 2G19G 6
  19979920.7904  -20727910.24548 -16107154.28364
  21536576.0244    2732320.24846   2147957.58362
  20851266.673   -18612799.483 7 -14437362.99522
 91  4 25 22 15 44.9970000  0  3G 2G19G 6
  19977818.8374  -20738953.60748 -16115759.49764
  21541069.2594    2755932.51746   2166356.72661
  20844981.962   -18645818.133 7 -14463091.76123
 91  4 25 22 15 59.9970000  0  3G 2G19G 6
  19975742.1654  -20749864.46248 -16124261.45763
  21545587.1344    2779678.16646   2184859.80362
  20838720.235   -18678738.902 7 -14488744.25322
 91  4 25 22 16 14.9970000  0  3G 2G19G 6
  19973690.8764  -20760644.52048 -16132661.48963
  21550133.3144    2803555.45946   2203465.44561
  20832472.384   -18711563.367 7 -14514321.71022
 91  4 25 22 16 29.9970000  0  3G 2G19G 6
  19971662.7124  -20771301.41048 -16140965.55763
  21554696.8844    2827557.26546   2222168.11562
  20826241.806   -18744298.717 7 -14539829.72422
 91  4 25 22 16 44.9970000  0  3G 2G19G 6
  19969659.7354  -20781830.73248 -16149170.21264
  21559291.8764    2851687.82446   2240971.11461
  20820029.6494  -18776940.56247 -14565264.87162
 91  4 25 22 16 59.9970000  0  3G 2G19G 6
  19967681.6574  -20792229.77048 -16157273.35464
  21563906.8684    2875949.84946   2259876.55161
  20813837.2514  -18809485.88047 -14590624.80262
 91  4 25 22 17 14.9970000  0  3G 2G19G 6
  19965726.0324  -20802499.71448 -16165275.89664
  21568549.939     2900342.308 6   2278883.64021
  20807662.5564  -18841935.49547 -14615910.15963
 91  4 25 22 17 29.9970000  0  3G 2G19G 6
  19963796.6344  -20812636.33648 -16173174.56064
  21573214.024     2924869.621 6   2297995.80322
  20801508.9544  -18874284.97747 -14641117.49063
 91  4 25 22 17 44.9970000  0  3G 2G19G 6
  19961890.540   -20822650.712 8 -16180977.95624
  21577905.8214    2949520.71046   2317204.41162
  20795367.743   -18906545.039 7 -14666255.14922
 91  4 25 22 17 59.9970000  0  3G 2G19G 6
  19960007.5564  -20832542.94548 -16188686.18464
  21582621.0174    2974295.59046   2336509.48561
  20789245.853   -18938715.720 7 -14691323.15923
 91  4 25 22 18 14.9970000  0  3G 2G19G 6
  19958147.9464  -20842319.12248 -16196303.97364
  21587361.7514    2999188.31346   2355906.37762
  20783139.4784  -18970802.61047 -14716325.87362
 91  4 25 22 18 29.9970000  0  3G 2G19G 6
  19956310.2044  -20851981.88748 -16203833.39564
  21592119.9394    3024196.22146   2375393.02561
  20777050.446   -19002808.266 7 -14741265.28822
 91  4 25 22 18 44.9970000  0  3G 2G19G 6
  19954492.5014  -20861525.47448 -16211269.95063
  21596901.8374    3049325.09146   2394973.92361
  20770974.2594  -19034726.67147 -14766136.71563
 91  4 25 22 18 59.9970000  0  3G 2G19G 6
  19952697.8684  -20870960.41848 -16218621.84463
  21601705.423     3074564.563 6   2414641.01621
  20764917.2354  -19066568.02847 -14790948.10263
 91  4 25 22 19 14.9970000  0  3G 2G19G 6
  19950924.2984  -20880288.18348 -16225890.22563
  21606527.8684    3099913.02746   2434393.03561
  20758869.173   -19098333.608 7 -14815700.44923
 91  4 25 22 19 29.9970000  0  3G 2G19G 6
  19949168.5094  -20889508.47948 -16233074.86663
  21611370.8374    3125370.89546   2454230.30461
  20752839.189   -19130023.045 7 -14840393.46823
 91  4 25 22 19 44.9970000  0  3G 2G19G 6
  19947434.759   -20898620.632 8 -16240175.22923
  21616236.5794    3150939.07746   2474153.53361
  20746824.134   -19161635.147 7 -14865026.22723
 91  4 25 22 19 59.9970000  0  3G 2G19G 6
  19945720.4934  -20907627.19348 -16247193.32263
  21621122.8374    3176615.10345   2494160.78761
  20740824.407   -19193172.297 7 -14889600.57823
 91  4 25 22 20 14.9970000  0  3G 2G19G 6
  19944024.673   -20916530.929 8 -16254131.28223
  21626028.3064    3202396.38545   2514250.05361
  20734836.009   -19224636.940 7 -14914118.43123
 91  4 25 22 20 29.9970000  0  3G 2G19G 6
  19942349.8144  -20925338.69648 -16260994.47063
  21630952.9314    3228276.10446   2534416.03361
  20728859.493   -19256035.773 7 -14938585.00123
 91  4 25 22 20 44.9970000  0  3G 2G19G 6
  19940694.720   -20934044.265 8 -16267778.01523
  21635900.0714    3254260.26646   2554663.40161
  20722897.423   -19287362.308 7 -14962995.23823
 91  4 25 22 20 59.9970000  0  3G 2G19G 6
  19939054.814   -20942662.345 8 -16274493.39123
  21640861.7284    3280334.26245   2574980.77061
  20716949.696   -19318631.068 7 -14987360.46223
 91  4 25 22 21 14.9970000  0  3G 2G19G 6
  19937430.8214  -20951191.84948 -16281139.74663
  21645838.5484    3306499.62445   2595369.33561
  20711010.470   -19349840.384 7 -15011679.36023
 91  4 25 22 21 29.9970000  0  3G 2G19G 6
  19935823.9394  -20959632.68248 -16287717.01663
  21650832.8844    3332756.19645   2615828.96861
  20705082.415   -19380990.223 7 -15035951.91523
 91  4 25 22 21 44.9970000  0  3G 2G19G 6
  19934232.4934  -20967994.51648 -16294232.71963
  21655847.9154    3359094.38245   2636352.19061
  20699163.548   -19412090.085 7 -15060185.52023
 91  4 25 22 21 59.9970000  0  3G 2G19G 6
  19932655.0404  -20976282.21948 -16300690.65963
  21660873.9314    3385509.54445   2656935.40261
  20693256.079   -19443144.260 7 -15084383.52723
 91  4 25 22 22 14.9970000  0  3G 2G19G 6
  19931091.5644  -20984499.30648 -16307093.57463
  21665915.8064    3411998.16745   2677575.84861
  20687355.064   -19474155.983 7 -15108548.46523
 91  4 25 22 22 29.9970000  0  3G 2G19G 6
  19929539.8604  -20992649.49948 -16313444.36663
  21670966.9234    3438556.56845   2698270.66761
  20681458.899   -19505128.921 7 -15132683.17423
 91  4 25 22 22 44.9970000  0  3G 2G19G 6
  19928004.243   -21000724.443 8 -16319736.51723
  21676039.4394    3465193.09645   2719026.37261
  20675574.899   -19536054.321 7 -15156780.84523
 91  4 25 22 22 59.9970000  0  3G 2G19G 6
  19926479.3454  -21008739.23448 -16325981.79863
  21681116.7044    3491892.83845   2739831.33061
  20669695.509   -19566947.147 7 -15180853.12823
 91  4 25 22 23 14.9970000  0  3G 2G19G 6
  19924965.267   -21016695.948 8 -16332181.82323
  21686210.892     3518653.825 5   2760684.00921
  20663822.337   -19597809.195 7 -15204901.43823
 91  4 25 22 23 29.9970000  0  3G 2G19G 6
  19923464.524   -21024587.844 8 -16338331.34023
  21691315.1654    3545482.74945   2781589.62061
  20657955.485   -19628633.367 7 -15228920.23123
 91  4 25 22 23 44.9970000  0  3G 2G19G 6
  19921975.1574  -21032415.38248 -16344430.70663
  21696431.985     3572379.201 5   2802547.85721
  20652097.790   -19659419.859 7 -15252909.66123
 91  4 25 22 23 59.9970000  0  3G 2G19G 6
  19920496.8214  -21040179.76648 -16350480.86864
  21701564.4854    3599342.15045   2823557.90861
  20646248.017   -19690169.668 7 -15276870.50923
 91  4 25 22 24 14.9970000  0  4G13G 2G19G 6
  23185156.7744     -66053.15543
  19919030.985   -21047877.882 8 -16356479.38824
  21706709.1184    3626374.83245   2844622.29661
  20640403.4934  -19720879.21047 -15300799.97963
 91  4 25 22 24 29.9970000  0  4G13G 2G19G 6
  23172590.368     -132077.001 4
  19917577.8764  -21055512.56348 -16362428.47863
  21711865.9544    3653474.40545   2865738.82161
  20634567.6894  -19751551.33247 -15324700.29463
 91  4 25 22 24 44.9970000  0  4G13G 2G19G 6
  23160034.446     -198073.041 4        -0.18731
  19916135.5014  -21063084.94248 -16368329.02663
  21717038.6494    3680639.56245   2886906.44161
  20628739.970   -19782186.876 7 -15348572.10223
 91  4 25 22 24 59.9970000  0  4G13G 2G19G 6
  23147484.384     -264041.990 4    -51404.38621
  19914708.0244  -21070596.08248 -16374181.85463
  21722216.6034    3707869.49345   2908124.52561
  20622913.329   -19812786.540 7 -15372415.94723
 91  4 25 22 25 14.9970000  0  4G13G 2G19G 6
  23134932.3374    -329992.08744
  19913289.5094  -21078054.90348 -16379993.90763
  21727411.696     3735155.303 5   2929386.15921
  20617097.0644  -19843359.07647 -15396238.66962
 91  4 25 22 25 29.9970000  0  4G13G 2G19G 6
  23122384.0404    -395917.95045
  19911879.1494  -21085456.53148 -16385761.40664
  21732611.8374    3762501.96145   2950695.20461
  20611284.759   -19873899.128 7 -15420036.06523
 91  4 25 22 25 44.9970000  0  4G13G 2G19G 6
  23109843.2904    -461820.63045        -0.14871
  19910483.173   -21092802.345 8 -16391485.40024
  21737829.704     3789908.281 5   2972050.73621
  20605479.649   -19904407.968 7 -15443809.14423
 91  4 25 22 25 59.9970000  0  4G13G 2G19G 6
  23097305.6104    -527697.82645    -51332.90761
  19909096.9704  -21100090.41548 -16397164.41064
  21743053.759     3817376.003 5   2993454.10821
  20599680.3534  -19934883.43747 -15467556.22563
 91  4 25 22 26 14.9970000  0  4G13G 2G19G 6
  23084777.392     -593549.753 4   -102645.91821
  19907720.6264  -21107321.60048 -16402799.09064
  21748296.282     3844904.496 5   3014904.86621
  20593885.845   -19965326.032 7 -15491277.68123
 91  4 25 22 26 29.9970000  0  4G13G 2G19G 6
  23072252.126     -659375.202 4   -153938.32921
  19906354.5174  -21114495.01848 -16408388.75564
  21753542.7354    3872494.81145   3036403.76861
  20588101.306   -19995734.529 7 -15514972.57223
 91  4 25 22 26 44.9970000  0  4G13G 2G19G 6
  23059724.8374    -725180.69444   -205215.16861
  19904999.782   -21121617.656 8 -16413938.84924
  21758803.0714    3900139.90045   3057945.36161
  20582317.321   -20026115.714 7 -15538646.17622
 91  4 25 22 26 59.9970000  0  4G13G 2G19G 6
  23047207.8534    -790967.84144   -256477.72661
  19903654.5714  -21128691.48448 -16419450.91464
  21764075.1264    3927837.80145   3079528.11361
  20576542.149   -20056471.304 7 -15562299.84323
 91  4 25 22 27 14.9970000  0  4G13G 2G19G 6
  23034696.939     -856731.677 4   -307722.14321
  19902317.735   -21135711.941 8 -16424921.38624
  21769360.157     3955593.040 5   3101155.51121
  20570772.649   -20086796.435 7 -15585929.77323
 91  4 25 22 27 29.9970000  0  4G13G 2G19G 6
  23022182.790     -922483.493 4   -358957.13421
  19900988.7674  -21142691.02748 -16430359.62864
  21774644.1734    3983393.53545   3122818.19961
  20565004.564   -20117103.066 7 -15609545.27823
 91  4 25 22 27 44.9970000  0  4G13G 2G19G 6
  23009673.8994    -988207.06344   -410170.17261
  19899671.954   -21149613.207 8 -16435753.52324
  21779952.118     4011255.223 5   3144528.58121
  20559244.4934  -20147375.15147 -15633133.87263
 91  4 25 22 27 59.9970000  0  4G13G 2G19G 6
  22997174.314    -1053907.177 4   -461364.90921
  19898364.134   -21156483.536 8 -16441107.01224
  21785263.3294    4039173.03645   3166282.68961
  20553488.798   -20177617.469 7 -15656699.27423
 91  4 25 22 28 14.9970000  0  4G13G 2G19G 6
  22984674.6814   -1119582.32345   -512540.22361
  19897064.618   -21163300.857 8 -16446419.19924
  21790584.8214    4067148.05845   3188081.37561
  20547740.642   -20207828.714 7 -15680240.45723
 91  4 25 22 28 29.9970000  0  4G13G 2G19G 6
  22972182.446    -1185232.213 5   -563695.83121
  19895779.860   -21170065.403 8 -16451690.25624
  21795918.642     4095180.177 5   3209924.55121
  20541998.087   -20238008.738 7 -15703757.31523
 91  4 25 22 28 44.9970000  0  4G13G 2G19G 6
  22959696.032    -1250855.677 5   -614830.88321
  19894503.3684  -21176776.50048 -16456919.67864
  21801267.454     4123270.298 5   3231812.90521
  20536259.689   -20268156.568 7 -15727249.08323
 91  4 25 22 28 59.9970000  0  4G13G 2G19G 6
  22947212.3994   -1316459.75445   -665950.79561
  19893234.634   -21183441.883 8 -16462113.47124
  21806622.6734    4151410.61145   3253740.39161
  20530527.821   -20298279.735 7 -15750721.63823
 91  4 25 22 29 14.9970000  0  4G13G 2G19G 6
  22934731.8604   -1382042.91745   -717054.42861
  19891975.5954  -21190060.38248 -16467270.73264
  21811985.439     4179602.307 5   3275707.90121
  20524799.610   -20328376.438 7 -15774173.56123
 91  4 25 22 29 29.9970000  0  4G13G 2G19G 6
  22922254.548    -1447602.087 5
  19890724.3994  -21196629.22848 -16472389.30664
  21817358.548     4207847.984 5   3297717.47321
  20519077.735   -20358444.062 7 -15797602.83523
 91  4 25 22 29 44.9970000  0  4G13G 2G19G 6
  22909786.2354   -1513138.45245
  19889484.6964  -21203149.90548 -16477470.34064
  21822746.064     4236146.442 5   3319768.17421
  20513361.649   -20388483.804 7 -15821010.38023
 91  4 25 22 29 59.9970000  0  4G13G 2G19G 6
  22897318.446    -1578651.059 5        -0.12331
  19888252.6034  -21209622.26348 -16482513.72964
  21828136.345     4264497.775 5   3341860.07021
  20507652.610   -20418495.183 7 -15844395.82023
 91  4 25 22 30 14.9970000  0  4G13G 2G19G 6
  22884851.157    -1644137.699 5    -51028.52821
  19887031.1964  -21216044.63948 -16487518.17264
  21833546.7984    4292903.88145   3363994.67061
  20501946.407   -20448476.263 7 -15867757.65923
 91  4 25 22 30 29.9970000  0  5G13G 2G15G19G 6
  22872398.165    -1709599.662 5   -102037.69121
  19885817.9154  -21222418.61448 -16492484.89864
  23343935.5324         -0.55055
  21838963.4704    4321363.23945   3386170.74361
  20496245.407   -20478428.317 7 -15891096.87623
 91  4 25 22 30 44.9970000  0  5G13G 2G15G19G 6
  22859945.5244   -1775031.17445   -153023.14961
  19884615.2824  -21228738.86648 -16497409.76964
  23338466.2514     -28756.10045
  21844389.8214    4349881.20345   3408392.49661
  20490552.149   -20508345.660 7 -15914409.04623
 91  4 25 22 30 59.9970000  0  5G13G 2G15G19G 6
  22847495.696    -1840437.101 5   -203988.66221
  19883421.3924  -21235010.71848 -16502296.90564
  23333006.1814     -57427.67645
  21849827.6034    4378452.57645   3430655.86961
  20484867.2284  -20538233.18347 -15937697.98163
 91  4 25 22 31 14.9970000  0  5G13G 2G15G19G 6
  22835055.548    -1905815.239 5   -254932.51421
  19882237.5324  -21241232.70648 -16507145.20664
  23327566.157      -86013.443 5
  21855275.306     4407078.608 5   3452961.82521
  20479183.8534  -20568089.41847 -15960962.54163
 91  4 25 22 31 29.9970000  0  5G13G 2G15G19G 6
  22822624.892    -1971161.434 5   -305851.52221
  19881062.8144  -21247400.99748 -16511951.66163
  23322147.532     -114509.410 5        -0.07731
  21860734.103     4435763.214 5   3475313.42521
  20473510.587   -20597910.117 7 -15984199.40423
 91  4 25 22 31 44.9970000  0  5G13G 2G15G19G 6
  22810193.1424   -2036480.84845   -356749.59561
  19879898.0404  -21253520.90448 -16516720.41463
  23316739.5714    -142920.65045    -22138.68261
  21866200.345     4464501.109 5   3497706.55021
  20467839.985   -20627700.527 7 -16007412.66523
 91  4 25 22 31 59.9970000  0  5G13G 2G15G19G 6
  22797769.907    -2101765.872 5   -407620.93921
  19878744.1344  -21259585.47848 -16521446.05063
  23311350.642     -171239.574 5    -44205.35921
  21871679.9854    4493299.24045   3520146.61961
  20462178.517   -20657453.372 7 -16030596.65823
 91  4 25 22 32 14.9970000  0  5G13G 2G15G19G 6
  22785352.8064   -2167018.11345   -458466.66561
  19877599.9854  -21265596.86548 -16526130.23864
  23305980.7744    -199467.73045    -66201.29361
  21877171.392     4522155.811 5   3542632.21421
  20456524.0094  -20687170.37947 -16053752.72663
 91  4 25 22 32 29.9970000  0  5G13G 2G15G19G 6
  22772940.8924   -2232243.46045   -509291.48561
  19876466.3064  -21271561.40948 -16530777.93164
  23300626.5174    -227611.05646    -88131.17461
  21882674.603     4551064.408 5   3565158.36821
  20450874.1964  -20716857.54047 -16076885.54163
 91  4 25 22 32 44.9970000  0  5G13G 2G15G19G 6
  22760532.1264   -2297440.84245   -560094.48761
  19875338.5324  -21277478.49648 -16535388.63664
  23295285.2124    -255668.88845   -109994.41761
  21888185.6894    4580025.53345   3587725.44461
  20445229.821   -20746514.084 7 -16099994.49623
 91  4 25 22 32 59.9970000  0  5G13G 2G15G19G 6
  22748132.939    -2362608.457 5   -610874.31521
  19874224.1964  -21283346.65848 -16539961.23063
  23289963.1104    -283639.37445   -131789.60061
  21893705.2124    4609040.67645   3610334.61261
  20439593.8534  -20776138.37947 -16123078.31863
 91  4 25 22 33 14.9970000  0  5G13G 2G15G19G 6
  22735742.696    -2427738.072 5   -661624.51021
  19873117.8994  -21289158.34448 -16544489.81264
  23284654.3454    -311514.29345   -153510.27661
  21899240.1894    4638117.49045   3632991.83161
  20433962.251   -20805722.486 7 -16146130.82623
 91  4 25 22 33 29.9970000  0  5G13G 2G15G19G 6
  22723349.5404   -2492840.41045   -712353.47561
  19872020.4394  -21294924.54448 -16548982.94764
  23279366.689     -339304.189 5   -175164.72321
  21904782.0094    4667244.99045   3655688.55861
  20428339.3534  -20835277.22547 -16169160.45063
 91  4 25 22 33 44.9970000  0  5G13G 2G15G19G 6
  22710969.079    -2557918.709 5   -763063.68221
  19870930.9394  -21300648.89748 -16553443.47863
  23274093.470     -367012.425 5   -196755.52921
  21910335.9784    4696419.53745   3678421.93561
  20422718.939   -20864805.745 7 -16192169.64523
 91  4 25 22 33 59.9970000  0  5G13G 2G15G19G 6
  22698588.282    -2622975.177 5   -813756.85221
  19869849.8684  -21306334.13748 -16557873.53263
  23268839.4934    -394641.32145   -218284.53161
  21915891.5564    4725638.55045   3701189.97061
  20417105.3994  -20894310.48747 -16215160.31363
 91  4 25 22 34 14.9970000  0  5G13G 2G15G19G 6
  22686210.446    -2688013.959 5   -864436.30221
  19868773.7044  -21311985.16348 -16562276.92164
  23263595.1424    -422195.40345   -239755.23661
  21921461.556     4754897.334 5   3723988.97521
  20411495.439   -20923796.154 7 -16238136.11323
 91  4 25 22 34 29.9970000  0  5G13G 2G15G19G 6
  22673838.3684   -2753023.14145   -915092.65561
  19867706.8454  -21317590.58548 -16566644.77663
  23258365.962     -449662.676 5   -261158.29521
  21927039.329     4784207.234 5   3746827.82121
  20405888.2744  -20953251.06847 -16261087.95763
 91  4 25 22 34 44.9970000  0  5G13G 2G15G19G 6
  22661472.235    -2818009.405 5   -965731.19621
  19866648.3534  -21323157.33948 -16570982.50264
  23253158.665     -477049.957 5   -282499.02721
  21932623.0874    4813561.31045   3769701.10261
  20400288.5874  -20982681.85647 -16284021.00163
 91  4 25 22 34 59.9970000  0  5G13G 2G15G19G 6
  22649106.946    -2882968.122 5  -1016348.22621
  19865594.7284  -21328681.22348 -16575286.82063
  23247964.790     -504352.637 5   -303773.81121
  21938218.5714    4842963.84245   3792612.12661
  20394694.7434  -21012084.01447 -16306931.74563
 91  4 25 22 35 14.9970000  0  5G13G 2G15G19G 6
  22636750.806    -2947898.052 5  -1066942.88721
  19864554.2904  -21334161.34448 -16579557.03464
  23242782.735     -531569.438 5   -324981.68321
  21943825.5244    4872415.64946   3815561.56161
  20389103.5244  -21041456.38547 -16329819.26163
 91  4 25 22 35 29.9970000  0  5G13G 2G15G19G 6
  22624405.1814   -3012804.22145  -1117518.95261
  19863518.407   -21339603.382 8 -16583797.57123
  23237618.1574    -558705.44445   -346126.64161
  21949437.2044    4901911.04946   3838544.96161
  20383518.2674  -21070804.40647 -16352687.81663
 91  4 25 22 35 44.9970000  0  5G13G 2G15G19G 6
  22612055.7284   -3077688.37345  -1168077.94461
  19862489.8684  -21345009.33748 -16588009.99464
  23232466.0094    -585762.43945   -367210.02061
  21955057.4074    4931448.23746   3861560.91461
  20377940.2824  -21100129.69847 -16375538.65463
 91  4 25 22 35 59.9970000  0  5G13G 2G15G19G 6
  22599714.970    -3142547.535 5  -1218617.41921
  19861467.2044  -21350376.83548 -16592192.45464
  23227334.446     -612737.828 5   -388229.76021
  21960689.1264    4961029.54946   3884611.25661
  20372362.0244  -21129429.62647 -16398369.72563
 91  4 25 22 36 14.9970000  0  5G13G 2G15G19G 6
  22587375.8924   -3207381.07045  -1269136.94561
  19860452.4154  -21355705.68648 -16596344.80164
  23222220.126     -639630.976 5   -409185.44521
  21966324.4314    4990655.07046   3907696.04661
  20366793.6344  -21158703.97647 -16421180.87263
 91  4 25 22 36 29.9970000  0  5G13G 2G15G19G 6
  22575044.2594   -3272186.61945  -1319634.68061
  19859446.3764  -21360994.15548 -16600465.67564
  23217120.673     -666439.422 5   -430075.13821
  21971971.610     5020326.787 6   3930816.83021
  20361227.493   -21187950.311 7 -16443970.17923
 91  4 25 22 36 44.9970000  0  5G13G 2G15G19G 6
  22562715.399    -3336970.098 5  -1370115.21321
  19858447.7124  -21366248.66048 -16604560.09164
  23212032.009     -693169.146 5   -450903.47821
  21977623.9934    5050038.36146   3953968.67361
  20355665.0244  -21217174.71647 -16466742.40463
 91  4 25 22 36 59.9970000  0  5G13G 2G15G19G 6
  22550394.720    -3401733.173 5  -1420579.78921
  19857452.1104  -21371471.13348 -16608629.54564
  23206959.399     -719821.786 5   -471671.75521
  21983286.212     5079787.899 6   3977150.10221
  20350109.3144  -21246378.96547 -16489498.92163
 91  4 25 22 37 14.9970000  0  5G13G 2G15G19G 6
  22538075.9784   -3466468.40945  -1471022.69861
  19856466.5174  -21376654.57847 -16612668.58563
  23201904.0094    -746390.41245   -492374.55961
  21988957.2434    5109582.13146   4000366.35761
  20344555.7434  -21275556.05047 -16512234.27163
 91  4 25 22 37 29.9970000  0  5G13G 2G15G19G 6
  22525759.431    -3531178.023 5  -1521445.66421
  19855488.3924  -21381801.73948 -16616679.35364
  23196862.329     -772877.460 5   -513013.81021
  21994632.3994    5139418.40346   4023615.35761
  20339008.6574  -21304708.28547 -16534950.26463
 91  4 25 22 37 44.9970000  0  5G13G 2G15G19G 6
  22513451.415    -3595858.389 5  -1571845.81221
  19854516.7204  -21386909.69748 -16620659.57363
  23191838.1034    -799279.26445   -533586.64561
  22000319.2984    5169299.87346   4046899.59161
  20333467.4464  -21333832.41147 -16557644.35163
 91  4 25 22 37 59.9970000  0  5G13G 2G15G19G 6
  22501149.603    -3660515.544 5  -1622227.88521
  19853550.3064  -21391984.71648 -16624614.11964
  23186830.696     -825601.630 5   -554097.55721
  22006011.165     5199220.441 6   4070214.28121
  20327928.5244  -21362934.25247 -16580321.07263
 91  4 25 22 38 14.9970000  0  5G13G 2G15G19G 6
  22488847.2124   -3725141.48945  -1672585.64861
  19852591.9464  -21397018.88248 -16628536.83863
  23181838.915     -851836.631 5   -574540.39821
  22011714.5794    5229187.58746   4093565.26561
  20322395.454   -21392005.963 7 -16602974.31523
 91  4 25 22 38 29.9970000  0  5G13G 2G15G19G 6
  22476552.8994   -3789742.91145  -1722924.31361
  19851640.7984  -21402019.72548 -16632433.58463
  23176861.712     -877991.222 5   -594920.58121
  22017426.5094    5259194.02546   4116946.86161
  20316870.3994  -21421054.46447 -16625609.46963
 91  4 25 22 38 44.9970000  0  5G13G 2G15G19G 6
  22464263.0714   -3854319.11045  -1773243.32561
  19850696.1654  -21406987.30048 -16636304.41463
  23171902.7284    -904064.76845   -615237.60961
  22023144.5404    5289239.97246   4140359.26061
  20311345.0014  -21450079.51447 -16648226.35663
 91  4 25 22 38 59.9970000  0  5G13G 2G15G19G 6
  22451984.4154   -3918870.89745  -1823543.29061
  19849756.5174  -21411922.57948 -16640150.08063
  23166951.181     -930058.510 5   -635492.45621
  22028867.829     5319324.057 6   4163801.36121
  20305824.5404  -21479082.11747 -16670825.74263
 91  4 25 22 39 14.9970000  0  5G13G 2G15G19G 6
  22439704.3144   -3983400.63645  -1873826.10361
  19848822.2124  -21416828.25348 -16643972.68064
  23162021.181     -955974.549 5   -655686.73921
  22034601.3454    5349443.60346   4187271.10061
  20300311.0564  -21508064.41447 -16693409.31163
 91  4 25 22 39 29.9970000  0  5G13G 2G15G19G 6
  22427430.9074   -4047901.13045  -1924086.12661
  19847896.4704  -21421697.33448 -16647766.76163
  23157104.2744    -981805.44645   -675814.71161
  22040338.314     5379605.813 6   4210774.07721
  20294800.407   -21537019.478 7 -16715971.66123
 91  4 25 22 39 44.9970000  0  5G13G 2G15G19G 6
  22415166.2044   -4112371.51545  -1974322.65061
  19846977.8924  -21426529.93348 -16651532.41864
  23152205.071    -1007550.707 5   -695875.93821
  22046089.579     5409810.739 6   4234310.34921
  20289296.024   -21565946.834 7 -16738512.41023
 91  4 25 22 39 59.9970000  0  5G13G 2G15G19G 6
  22402898.126    -4176821.202 5  -2024543.06621
  19846063.7594  -21431335.76948 -16655277.22664
  23147315.3064   -1033219.90245   -715877.88461
  22051840.0874    5440048.55246   4257872.24261
  20283793.4544  -21594855.72547 -16761038.78663
 91  4 25 22 40 14.9970000  0  5G13G 2G15G19G 6
  22390643.212    -4241243.517 5  -2074742.20621
  19845155.1034  -21436108.78048 -16658996.44864
  23142453.0874   -1058806.51445   -735815.49261
  22057603.8064    5470325.29246   4281464.46961
  20278299.0174  -21623739.99947 -16783545.96863
 91  4 25 22 40 29.9970000  0  5G13G 2G15G19G 6
  22378387.962    -4305628.388 5  -2124912.12221
  19844252.4624  -21440839.19547 -16662682.47664
  23137598.376    -1084300.535 5   -755680.93521
  22063372.407     5500650.780 6   4305094.67321
  20272808.1654  -21652589.56647 -16806026.11063
 91  4 25 22 40 44.9970000  0  5G13G 2G15G19G 6
  22366142.7904   -4369985.85145  -2175060.68161
  19843358.6894  -21445537.62048 -16666343.58564
  23132762.2984   -1109711.99045   -775482.03961
  22069152.9394    5531014.30946   4328754.52762
  20267323.790   -21681414.635 7 -16828487.15723
 91  4 25 22 40 59.9970000  0  5G13G 2G15G19G 6
  22353898.345    -4434318.215 5  -2225189.68721
  19842469.3214  -21450206.82648 -16669981.92664
  23127946.3374   -1135043.27645   -795220.69061
  22074936.431     5561413.357 6   4352442.05522
  20261844.2904  -21710217.69047 -16850931.05863
 91  4 25 22 41 14.9970000  0  5G13G 2G15G19G 6
  22341660.657    -4498621.526 5  -2275296.05321
  19841587.5564  -21454843.33548 -16673594.78364
  23123144.5484   -1160290.56345   -814893.86061
  22080729.556     5591851.593 6   4376160.11822
  20256366.1184  -21738995.00747 -16873354.89963
 91  4 25 22 41 29.9970000  0  5G13G 2G15G19G 6
  22329430.329    -4562893.973 5  -2325378.35221
  19840711.5794  -21459445.60848 -16677180.96364
  23118349.751    -1185452.286 5   -834500.39821
  22086526.314     5622330.244 6   4399909.66822
  20250895.7124  -21767744.84347 -16895757.33363
 91  4 25 22 41 44.9970000  0  5G13G 2G15G19G 6
  22317207.181    -4627134.681 5  -2375435.94121
  19839842.5094  -21464013.32448 -16680740.21764
  23113582.946    -1210527.813 5   -854039.73821
  22092338.3144    5652849.80746   4423691.10262
  20245428.3374  -21796466.47347 -16918137.78563
 91  4 25 22 41 59.9970000  0  5G13G 2G15G19G 6
  22304987.228    -4691342.167 5  -2425467.63121
  19838980.5644  -21468545.16948 -16684271.51864
  23108825.243    -1235515.443 5   -873510.60221
  22098151.149     5683411.373 6   4447505.26222
  20239968.5954  -21825158.59847 -16940495.24963
 91  4 25 22 42 14.9970000  0  5G13G 2G15G19G 6
  22292777.470    -4755516.731 5  -2475473.67821
  19838123.8924  -21473041.96848 -16687775.51064
  23104090.681    -1260415.744 5   -892913.40021
  22103976.6264    5714014.03546   4471351.44862
  20234514.259   -21853821.718 7 -16962830.10823
 91  4 25 22 42 29.9970000  0  5G13G 2G15G19G 6
  22280571.173    -4819659.670 5  -2525455.05721
  19837273.5564  -21477505.57747 -16691253.64164
  23099364.0094   -1285229.96745   -912249.16061
  22109805.7514    5744656.10746   4495228.35462
  20229065.8454  -21882457.15647 -16985143.39563
 91  4 25 22 42 44.9970000  0  5G13G 2G15G19G 6
  22268370.970    -4883768.848 5  -2575410.15221
  19836434.0874  -21481934.53948 -16694704.77864
  23094658.3534   -1309956.03945   -931516.20761
  22115647.3924    5775339.29846   4519137.29862
  20223622.314   -21911063.099 7 -17007433.69823
 91  4 25 22 42 59.9970000  0  5G13G 2G15G19G 6
  22256175.189    -4947844.237 5  -2625338.89321
  19835597.1654  -21486329.23148 -16698129.20964
  23089970.2594   -1334594.12045   -950714.69661
  22121491.4314    5806063.10546   4543077.89162
  20218185.829   -21939639.569 7 -17029701.03523
 91  4 25 22 43 14.9970000  0  5G13G 2G15G19G 6
  22243990.064    -5011884.097 5  -2675239.94121
  19834767.0714  -21490688.39548 -16701525.95664
  23085296.7204   -1359142.45845   -969843.23261
  22127344.6034    5836828.78546   4567051.10262
  20212752.8454  -21968185.18147 -17051944.32963
 91  4 25 22 43 29.9970000  0  5G13G 2G15G19G 6
  22231809.157    -5075892.226 5  -2725116.29021
  19833944.3064  -21495016.14648 -16704898.23064
  23080639.399    -1383605.175 5   -988905.06121
  22133208.0094    5867632.26646   4591053.78462
  20207325.1654  -21996703.79247 -17074166.57763
 91  4 25 22 43 44.9970000  0  5G13G 2G15G19G 6
  22219639.610    -5139854.638 5  -2774956.97721
  19833128.8844  -21499299.13448 -16708235.61764
  23076005.9624   -1407968.60445  -1007889.53561
  22139080.321     5898486.918 6   4615096.32322
  20201904.0564  -22025181.72147 -17096357.14163
 91  4 25 22 43 59.9970000  0  5G13G 2G15G19G 6
  22207466.9074   -5203791.92645  -2824778.11361
  19832318.4854  -21503558.26648 -16711554.41864
  23071386.1424   -1432253.05045  -1026812.46561
  22144958.1344    5929371.89446   4639162.50062
  20196491.228   -22053639.585 7 -17118532.05623
 91  4 25 22 44 14.9970000  0  5G13G 2G15G19G 6
  22195310.603    -5267686.672 5  -2874566.08721
  19831516.6894  -21507776.65748 -16714841.47364
  23066784.9784   -1456441.43645  -1045660.51961
  22150844.6424    5960304.13645   4663265.50962
  20191082.814   -22082060.071 7 -17140677.84423
 91  4 25 22 44 29.9970000  0  5G13G 2G15G19G 6
  22183157.157    -5331552.448 5  -2924331.49121
  19830717.6104  -21511968.33448 -16718107.70664
  23062194.079    -1480547.303 5  -1064444.30021
  22156733.0794    5991269.60945   4687394.41162
  20185679.7744  -22110456.87047 -17162805.18563
 91  4 25 22 44 44.9970000  0  5G13G 2G15G19G 6
  22171008.3924   -5395376.65745  -2974064.50061
  19829927.2044  -21516121.10548 -16721343.62664
  23057626.3214   -1504558.17445  -1083154.02861
  22162638.9784    6022280.51245   4711558.70862
  20180282.6034  -22138817.74647 -17184904.52763
 91  4 25 22 44 59.9970000  0  5G13G 2G15G19G 6
  22158873.501    -5459159.026 5  -3023764.92321
  19829143.8534  -21520235.06048 -16724549.29964
  23053075.399    -1528473.832 5  -1101789.57921
  22168547.7904    6053336.73545   4735758.32962
  20174892.915   -22167142.326 7 -17206975.60023
 91  4 25 22 45 14.9970000  0  5G13G 2G15G19G 6
  22146742.3454   -5522898.66745  -3073432.03361
  19828368.5954  -21524309.95148 -16727724.53564
  23048541.7354   -1552293.64745  -1120350.42761
  22174466.532     6084438.472 5   4759993.39221
  20169509.3454  -22195430.04447 -17229017.94463
 91  4 25 22 45 29.9970000  0  5G13G 2G15G19G 6
  22134624.759    -5586600.608 5  -3123069.77921
  19827600.2044  -21528351.29348 -16730873.62264
  23044026.6104   -1576022.71745  -1138840.58161
  22180390.993     6115580.354 5   4784259.75721
  20164132.9854  -22223686.17347 -17251035.67363
 91  4 25 22 45 44.9970000  0  5G13G 2G15G19G 6
  22122507.5954   -5650256.65645  -3172671.76061
  19826840.1344  -21532351.15848 -16733990.39164
  23039532.9854   -1599652.85545  -1157253.63961
  22186329.5174    6146770.03445   4808563.36561
  20158762.9704  -22251902.57047 -17273022.43763
 91  4 25 22 45 59.9970000  0  5G13G 2G15G19G 6
  22110404.2594   -5713872.26645  -3222242.24961
  19826085.6424  -21536315.35647 -16737079.37064
  23035052.9854   -1623189.50345  -1175593.85261
  22192273.509     6178001.752 5   4832899.72021
  20153401.3144  -22280084.68047 -17294982.48763
 91  4 25 22 46 14.9970000  0  5G13G 2G15G19G 6
  22098309.267    -5777439.172 5  -3271774.76221
  19825338.9314  -21540236.34447 -16740134.68264
  23030595.571    -1646624.742 5  -1193855.03821
  22198223.1034    6209283.25645   4857274.88361
  20148045.0404  -22308224.59647 -17316909.66663
 91  4 25 22 46 29.9970000  0  5G13G 2G15G19G 6
  22086220.618    -5840965.746 5  -3321275.88421
  19824599.4544  -21544122.80247 -16743163.08864
  23026155.353    -1669966.938 5  -1212043.70221
  22204181.2674    6240605.65045   4881681.91761
  20142698.1574  -22336330.77247 -17338810.54764
 91  4 25 22 46 44.9970000  0  5G13G 2G15G19G 6
  22074138.1574   -5904448.92745  -3370743.17261
  19823867.2124  -21547971.77047 -16746162.27564
  23021730.5244   -1693212.91745  -1230157.43561
  22210151.4154    6271971.93645   4906123.14161
  20137355.5484  -22364400.11247 -17360682.73763
 91  4 25 22 46 59.9970000  0  5G13G 2G15G19G 6
  22062069.0014   -5967882.81045  -3420172.03461
  19823141.9544  -21551778.10747 -16749128.24864
  23017322.2044   -1716356.99245  -1248191.73961
  22216128.9074    6303387.56845   4930602.81461
  20132024.1184  -22392426.90247 -17382521.76564
 91  4 25 22 47 14.9970000  0  5G13G 2G15G19G 6
  22050005.6734   -6031263.88145  -3469559.78261
  19822427.8144  -21555539.08148 -16752058.87263
  23012940.0794   -1739396.31745  -1266144.43861
  22222118.5954    6334855.19345   4955123.01161
  20126697.3144  -22420408.14047 -17404325.29363
 91  4 25 22 47 29.9970000  0  5G13G 2G15G19G 6
  22037953.0404   -6094592.22845  -3518906.39561
  19821718.8764  -21559254.83048 -16754954.25763
  23008573.5174   -1762330.75045  -1284015.41961
  22228116.071     6366374.478 5   4979683.44221
  20121381.5794  -22448343.86847 -17426093.36363
 91  4 25 22 47 44.9970000  0  5G13G 2G15G19G 6
  22025910.9234   -6157871.28845  -3568214.67461
  19821021.2434  -21562929.62948 -16757817.72864
  23004232.634    -1785163.837 6  -1301807.42121
  22234124.5014    6397941.38345   5004280.98561
  20116074.0564  -22476237.61747 -17447828.72363
 91  4 25 22 47 59.9970000  0  5G13G 2G15G19G 6
  22013879.181    -6221097.240 5  -3617481.54621
  19820330.3604  -21566559.83048 -16760646.45564
  22999899.7674   -1807891.93145  -1319517.60461
  22240140.360     6429559.323 5   5028918.30021
  20110774.5094  -22504085.85847 -17469528.61663
 91  4 25 22 48 14.9970000  0  5G13G 2G15G19G 6
  22001860.829    -6284255.303 5  -3666695.48821
  19819649.7594  -21570131.21448 -16763429.33764
  22995603.681    -1830500.282 5  -1337134.48521
  22246171.7284    6461242.75845   5053606.64461
  20105487.5094  -22531873.86047 -17491181.57863
 91  4 25 22 48 29.9970000  0  5G13G 2G15G19G 6
  21989854.2674   -6347357.93145  -3715866.21861
  19818979.3604  -21573656.39048 -16766176.22763
  22991319.3454   -1853001.56745  -1354667.92561
  22252209.5874    6492978.93745   5078336.10061
  20100207.243   -22559614.085 7 -17512797.31323
 91  4 25 22 48 44.9960000  0  5G13G 2G15G19G 6
  21977859.2544   -6410391.89045  -3764983.47061
  19818318.1684  -21577126.43748 -16768880.15464
  22987064.731    -1875385.084 5  -1372109.59421
  22258257.770     6524774.160 5   5103111.55621
  20094940.527   -22587295.814 7 -17534367.46823
 91  4 25 22 48 59.9960000  0  5G13G 2G15G19G 6
  21965876.832    -6473359.478 5  -3814048.99921
  19817670.0354  -21580536.47548 -16771537.32663
  22982825.035    -1897648.081 5  -1389457.37521
  22264324.7464    6556638.28245   5127940.71861
  20089683.988   -22614916.882 7 -17555890.35723
 91  4 25 22 49 14.9960000  0  5G13G 2G15G19G 6
  21953906.7854   -6536259.90945  -3863062.21061
  19817030.7154  -21583890.23748 -16774150.64363
  22978612.801    -1919792.878 5  -1406713.05021
  22270401.481     6588565.287 5   5152818.84521
  20084438.8094  -22642479.11847 -17577367.39663
 91  4 25 22 49 29.9960000  0  5G13G 2G15G19G 6
  21941952.3874   -6599088.24746  -3912019.25361
  19816404.9574  -21587183.22048 -16776716.60363
  22974419.496    -1941814.599 5  -1423872.77721
  22276487.199     6620559.571 5   5177749.41721
  20079205.902   -22669977.720 7 -17598794.85423
 91  4 25 22 49 44.9960000  0  5G13G 2G15G19G 6
  21930009.879    -6661848.500 6  -3960923.22921
  19815788.6844  -21590419.89348 -16779238.68464
  22970250.168    -1963717.017 5  -1440939.58121
  22282589.801     6652616.732 5   5202728.98221
  20073984.106   -22697416.799 7 -17620175.92823
 91  4 25 22 49 59.9960000  0  5G13G 2G15G19G 6
  21918077.7384   -6724543.59845  -4009776.42761
  19815181.3794  -21593603.37548 -16781719.31464
  22966106.199    -1985503.371 5  -1457915.92421
  22288700.316     6684733.631 5   5227755.08321
  20068773.715   -22724799.226 7 -17641512.85523
 91  4 25 22 50 14.9960000  0  5G13G 2G15G19G 6
  21906160.551    -6787162.057 5  -4058569.93521
  19814590.0904  -21596722.51448 -16784149.80764
  22961986.1134   -2007162.20345  -1474792.90861
  22294824.684     6716921.401 5   5252836.41821
  20063575.074   -22752113.527 7 -17662796.70823
 91  4 25 22 50 29.9960000  0  5G13G 2G15G19G 6
  21894261.3714   -6849705.29345  -4107304.79561
  19814008.2774  -21599779.57948 -16786531.93264
  22957890.9024   -2028695.05245  -1491571.72461
  22300959.2464    6749177.70245   5277971.13961
  20058389.6214  -22779361.80947 -17684029.10963
 91  4 25 22 50 44.9960000  0  5G13G 2G15G19G 6
  21882372.5354   -6912179.57145  -4155985.93961
  19813437.4884  -21602781.13448 -16788870.79864
  22953805.5824   -2050108.51545  -1508257.52261
  22307112.981     6781495.981 5   5303154.16921
  20053216.277   -22806550.091 7 -17705214.75623
 91  4 25 22 50 59.9960000  0  5G13G 2G15G19G 6
  21870499.207    -6974581.182 6  -4204610.47921
  19812875.6454  -21605723.92748 -16791163.88164
  22949763.059    -2071398.900 5  -1524847.40721
  22313279.6684    6813879.32945   5328387.87861
  20048055.465   -22833675.135 7 -17726351.12923
 91  4 25 22 51 14.9960000  0  5G13G 2G15G19G 6
  21858637.5824   -7036912.37646  -4253180.13161
  19812327.5434  -21608610.63348 -16793413.25464
  22945731.043    -2092568.770 5  -1541343.36421
  22319452.012     6846325.436 5   5353670.52021
  20042906.4574  -22860739.11147 -17747439.91263
 91  4 25 22 51 29.9960000  0  5G13G 2G15G19G 6
  21846790.8094   -7099166.39746  -4301689.64561
  19811790.2234  -21611434.88148 -16795613.95964
  22941726.2854   -2113611.30145  -1557740.12461
  22325637.887     6878840.539 5   5379006.91921
  20037768.9494  -22887735.39047 -17768475.94463
 91  4 25 22 51 44.9960000  0  5G13G 2G15G19G 6
  21834957.957    -7161351.897 6  -4350145.76421
  19811261.6134  -21614205.56148 -16797772.92764
  22937747.934    -2134534.964 5  -1574044.24121
  22331834.215     6911415.536 5   5404390.01021
  20032641.129   -22914672.635 7 -17789465.98323
 91  4 25 22 51 59.9960000  0  5G13G 2G15G19G 6
  21823134.5594   -7223462.55346  -4398543.57361
  19810746.7854  -21616916.97648 -16799885.71464
  22933790.887    -2155333.723 5  -1590251.03021
  22338047.902     6944056.244 5   5429824.30321
  20027528.863   -22941544.727 7 -17810405.24823
 91  4 25 22 52 14.9960000  0  5G13G 2G15G19G 6
  21811327.9184   -7285502.56946  -4446886.32861
  19810241.0354  -21619573.83848 -16801955.98764
  22929852.3014   -2176012.00345  -1606363.95961
  22344266.8874    6976758.05045   5455306.19461
  20022426.0514  -22968356.00347 -17831297.12463
 91  4 25 22 52 29.9960000  0  5G13G 2G15G19G 6
  21799536.4024   -7347472.56946  -4495174.52461
  19809746.7074  -21622177.15948 -16803984.54264
  22925944.0044   -2196570.48645  -1622383.53061
  22350503.0124    7009519.90445   5480834.87561
  20017335.9104  -22995107.18947 -17852142.17963
 91  4 25 22 52 44.9960000  0  5G13G 2G15G19G 6
  21787759.465    -7409371.936 6  -4543407.71121
  19809260.6374  -21624726.75648 -16805971.23764
  22922057.395    -2217008.935 5  -1638309.57321
  22356747.363     7042341.821 5   5506410.35721
  20012255.5274  -23021797.99047 -17872940.17563
 91  4 25 22 52 59.9960000  0  5G13G 2G15G19G 6
  21775994.2934   -7471188.88046  -4591576.63661
  19808787.3014  -21627211.37648 -16807907.30564
  22918184.684    -2237315.569 5  -1654132.90821
  22363006.551     7075235.160 5   5532041.48121
  20007190.9964  -23048416.71147 -17893682.00964
 91  4 25 22 53 14.9960000  0  5G13G 2G15G19G 6
  21764246.066    -7532929.956 6  -4639686.46721
  19808325.5984  -21629638.13148 -16809798.27764
  22914349.7934   -2257497.20845  -1669858.84861
  22369283.7154    7108192.96145   5557722.83361
  20002137.5664  -23074970.10847 -17914372.93364
 91  4 25 22 53 29.9960000  0  5G13G 2G15G19G 6
  21752509.106    -7594595.407 6  -4687737.36421
  19807875.4024  -21632007.43948 -16811644.48764
  22910525.316    -2277554.172 5  -1685487.63421
  22375563.4414    7141214.46145   5583453.83261
  19997097.5514  -23101458.43747 -17935013.15464
 91  4 25 22 53 44.9960000  0  5G13G 2G15G19G 6
  21740793.0354   -7656186.52746  -4735730.34361
  19807435.4414  -21634321.27148 -16813447.47064
  22906737.621    -2297488.089 5  -1701020.51821
  22381859.512     7174297.774 5   5609232.98821
  19992070.1294  -23127883.32347 -17955603.94164
 91  4 25 22 53 59.9960000  0  5G13G 2G15G19G 6
  21729083.6844   -7717703.60746  -4783665.63261
  19807005.7314  -21636580.16948 -16815207.64564
  22902970.598    -2317299.258 5  -1716457.77821
  22388168.949     7207442.345 5   5635059.87521
  19987051.6214  -23154245.03147 -17976145.50264
 91  4 25 22 54 14.9960000  0  5G13G 2G15G19G 6
  21717393.410    -7779148.939 6  -4831545.01021
  19806584.4264  -21638786.54748 -16816926.89664
  22899225.4264   -2336989.84146  -1731801.05861
  22394484.441     7240645.532 5   5660932.43321
  19982047.2234  -23180545.77047 -17996639.55164
 91  4 25 22 54 29.9960000  0  5G13G 2G15G19G 6
  21705715.098    -7840520.199 6  -4879366.65721
  19806176.5664  -21640938.72648 -16818603.92165
  22895495.926    -2356557.910 5  -1747048.87721
  22400813.504     7273909.126 5   5686852.07321
  19977054.7704  -23206783.42347 -18017084.43964
 91  4 25 22 54 44.9960000  0  5G13G 2G15G19G 6
  21694050.5274   -7901812.69146  -4927126.94261
  19805777.2854  -21643032.71948 -16820235.59964
  22891797.801    -2375998.856 5  -1762197.63921
  22407159.6994    7307237.11145   5712821.86461
  19972074.3954  -23232953.72047 -18037476.84564
 91  4 25 22 54 59.9960000  0  5G13G 2G15G19G 6
  21682402.5824   -7963025.32846  -4974824.99561
  19805390.3874  -21645067.77948 -16821821.35864
  22888124.418    -2395311.581 6  -1777246.50321
  22413511.7934    7340630.35545   5738842.52061
  19967106.6844  -23259055.51047 -18057815.86664
 91  4 25 22 55 14.9960000  0  5G13G 2G15G19G 6
  21670769.1844   -8024161.54046  -5022463.49961
  19805014.5204  -21647047.71348 -16823364.16064
  22884469.895    -2414499.725 5  -1792198.29421
  22419878.184     7374085.122 5   5764911.11721
  19962152.5744  -23285092.26347 -18078104.21164
 91  4 25 22 55 29.9960000  0  5G13G 2G15G19G 6
  21659147.8794   -8085225.94946  -5070046.05261
  19804644.6524  -21648977.67448 -16824868.02564
  22880837.6684   -2433568.16445  -1807056.78261
  22426255.3484    7407596.18745   5791023.59661
  19957210.2854  -23311068.89947 -18098345.72064
 91  4 25 22 55 44.9960000  0  5G13G 2G15G19G 6
  21647543.270    -8146214.792 6  -5117569.72221
  19804288.6994  -21650854.29748 -16826330.31864
  22877237.3404   -2452513.36945  -1821819.23061
  22432644.059     7441166.828 5   5817182.50121
  19952276.9104  -23336981.69147 -18118537.47664
 91  4 25 22 55 59.9960000  0  5G13G 2G15G19G 6
  21635951.762    -8207121.509 6  -5165029.39921
  19803943.9574  -21652671.33348 -16827746.19364
  22873656.5274   -2471328.81745  -1836480.59261
  22439043.785     7474803.152 5   5843392.57421
  19947360.6914  -23362824.36947 -18138674.59164
 91  4 25 22 56 14.9960000  0  5G13G 2G15G19G 6
  21624375.863    -8267953.505 6  -5212430.86321
  19803605.6604  -21654436.72748 -16829121.81964
  22870099.3244   -2490022.17645  -1851046.82261
  22445456.1684    7508497.11245   5869647.56461
  19942453.6134  -23388604.40447 -18158762.89164
 91  4 25 22 56 29.9960000  0  5G13G 2G15G19G 6
  21612816.7704   -8328706.02446  -5259770.36361
  19803282.1604  -21656145.94348 -16830453.67664
  22866559.9024   -2508588.71045  -1865514.24161
  22451884.5204    7542253.20145   5895950.96861
  19937562.4344  -23414317.11147 -18178798.73364
 91  4 25 22 56 44.9960000  0  5G13G 2G15G19G 6
  21601267.121    -8389378.072 6  -5307047.21421
  19802965.4344  -21657798.65148 -16831741.49764
  22863058.0354   -2527027.50746  -1879882.11361
  22458317.840     7576072.108 5   5922303.32021
  19932683.0594  -23439961.54147 -18198781.37064
 91  4 25 22 56 59.9960000  0  5G13G 2G15G19G 6
  21589741.207    -8449964.309 6  -5354257.15521
  19802663.4024  -21659389.78848 -16832981.34464
  22859573.176    -2545333.423 5  -1894146.42721
  22464763.0594    7609958.82745   5948708.52161
  19927817.0354  -23465532.45347 -18218706.72464
 91  4 25 22 57 14.9960000  0  5G13G 2G15G19G 6
  21578226.4264   -8510466.54146  -5401401.65761
  19802373.4574  -21660921.77048 -16834175.09364
  22856111.8404   -2563508.52245  -1908308.82261
  22471225.3714    7643910.84645   5975164.60461
  19922963.9264  -23491031.88747 -18238576.37964
 91  4 25 22 57 29.9960000  0  5G13G 2G15G19G 6
  21566729.3404   -8570886.50746  -5448482.06261
  19802091.9964  -21662396.88548 -16835324.53364
  22852681.934    -2581554.981 5  -1922370.98221
  22477697.848     7677925.792 5   6001669.71121
  19918124.7854  -23516461.92947 -18258391.96564
 91  4 25 22 57 44.9960000  0  5G13G 2G15G19G 6
  21555250.3094   -8631220.14046  -5495495.19061
  19801822.8874  -21663811.05548 -16836426.48364
  22849267.3794   -2599468.24345  -1936329.35061
  22484185.754     7712007.716 5   6028227.00821
  19913298.9884  -23541818.23547 -18278150.09063
 91  4 25 22 57 59.9960000  0  5G13G 2G15G19G 6
  21543782.4184   -8691476.76546  -5542448.30761
  19801564.3714  -21665174.15948 -16837488.63564
  22845888.082    -2617258.036 5  -1950191.51921
  22490680.1524    7746146.56445   6054828.66861
  19908487.5594  -23567110.50847 -18297858.32463
 91  4 25 22 58 14.9960000  0  5G13G 2G15G19G 6
  21532332.496    -8751644.902 6  -5589332.47021
  19801315.5904  -21666475.19948 -16838502.42864
  22842528.4734   -2634912.84545  -1963948.51061
  22497188.262     7780353.404 5   6081483.30221
  19903688.2234  -23592327.06347 -18317507.55563
 91  4 25 22 58 29.9960000  0  5G13G 2G15G19G 6
  21520895.848    -8811738.177 6  -5636158.29221
  19801077.8014  -21667728.12148 -16839478.73064
  22839190.457    -2652446.520 6  -1977611.09021
  22503712.535     7814614.296 5   6108180.05021
  19898902.0354  -23617481.85447 -18337108.65663
 91  4 25 22 58 44.9960000  0  5G13G 2G15G19G 6
  21509477.2384   -8871747.94846  -5682919.05461
  19800848.6844  -21668924.95847 -16840411.33164
  22835876.8404   -2669850.89246  -1991172.94361
  22510238.0044    7848936.88644   6134924.87361
  19894127.0274  -23642566.55347 -18356655.14463
 91  4 25 22 58 59.9960000  0  5G13G 2G15G19G 6
  21498074.5594   -8931676.02546  -5729616.16261
  19800631.4574  -21670067.80947 -16841301.86364
  22832593.3484   -2687127.77945  -2004635.41961
  22516778.801     7883319.314 3   6161716.33121
  19889367.9964  -23667583.04147 -18376148.48164
 91  4 25 22 59 14.9960000  0  5G13G 2G15G19G 6
  21486682.895    -8991530.721 6  -5776256.09121
  19800425.0594  -21671165.23448 -16842156.99864
  22829330.793    -2704285.661 5  -2018005.17521
  22523332.426     7917753.079 3   6188547.79121
  19884616.5124  -23692539.43247 -18395594.99364
 91  4 25 22 59 29.9960000  0  5G13G 2G15G19G 6
  21475307.965    -9051308.421 6  -5822836.00721
  19800222.4104  -21672214.05648 -16842974.26264
  22826081.785    -2721321.091 5  -2031279.52621
  22529900.473     7952240.989 4   6215421.45421
  19879881.340   -23717432.358 7 -18414992.05324
 91  4 25 22 59 44.9960000  0  5G13G 2G15G19G 6
  21463945.902    -9111003.063 6  -5869351.22321
  19800035.3954  -21673208.90948 -16843749.47564
  22822866.4734   -2738228.12046  -2044453.80861
  22536476.2314    7986788.69944   6242341.72261
  19875157.988   -23742255.986 7 -18434335.11223
 91  4 25 22 59 59.9960000  0  5G13G 2G15G19G 6
  21452601.5514   -9170623.89246  -5915808.91861
  19799854.3874  -21674159.20448 -16844489.96264
  22819673.621    -2755016.087 5  -2057535.32821
  22543057.426     8021386.751 4   6269301.21621
  19870445.3874  -23767019.49347 -18453631.32464
 91  4 25 23  0 14.9960000  0  5G13G 2G15G19G 6
  21441271.168    -9230167.808 6  -5962206.67521
  19799680.5354  -21675062.12447 -16845193.53464
  22816500.5744   -2771681.86145  -2070521.63061
  22549651.4414    8056037.96244   6296302.14061
  19865744.262   -23791719.806 7 -18472878.29824
 91  4 25 23  0 29.9960000  0  5G13G 2G15G19G 6
  21429955.1994   -9289638.70446  -6008547.52861
  19799518.0824  -21675922.25547 -16845863.76464
  22813349.3714   -2788229.88345  -2083416.16461
  22556250.1064    8090737.73645   6323340.89261
  19861053.395   -23816361.230 7 -18492079.38324
 91  4 25 23  0 44.9960000  0  5G13G 2G15G19G 6
  21418650.3164   -9349038.09346  -6054832.66961
  19799362.9024  -21676741.44247 -16846502.09364
  22810223.027    -2804661.640 6  -2096220.10621
  22562866.5434    8125483.97545   6350415.84261
  19856377.129   -23840945.305 7 -18511235.77824
 91  4 25 23  0 59.9960000  0  5G13G 2G15G19G 6
  21407361.637    -9408366.784 6  -6101062.71121
  19799213.6764  -21677521.07547 -16847109.59764
  22807118.7234   -2820978.13446  -2108934.25061
  22569488.4414    8160275.25545   6377525.87161
  19851709.8014  -23865472.98747 -18530348.23364
 91  4 25 23  1 14.9960000  0  5G13G 2G15G19G 6
  21396086.7314   -9467617.75246  -6147232.21061
  19799074.9414  -21678254.55147 -16847681.13464
  22804039.356    -2837172.689 5  -2121553.36321
  22576119.316     8195118.243 5   6404676.19621
  19847055.465   -23889937.413 7 -18549411.40024
 91  4 25 23  1 29.9960000  0  5G13G 2G15G19G 6
  21384822.6134   -9526798.35446  -6193346.86261
  19798940.4814  -21678949.72147 -16848222.81964
  22800978.1764   -2853252.94845  -2134083.42661
  22582753.5664    8230004.93645   6431860.59861
  19842409.574   -23914346.085 7 -18568431.12424
 91  4 25 23  1 44.9960000  0  5G13G 2G15G19G 6
  21373575.5204   -9585906.44946  -6239405.03561
  19798818.1994  -21679604.77747 -16848733.25464
  22797941.4734   -2869216.71045  -2146522.71461
  22589404.4654    8264937.20945   6459080.50861
  19837775.7934  -23938696.98847 -18587405.82764
 91  4 25 23  1 59.9960000  0  5G13G 2G15G19G 6
  21362341.7074   -9644948.03446  -6285411.36061
  19798701.1214  -21680226.16047 -16849217.44664
  22794920.6134   -2885070.28245  -2158876.12461
  22596060.520     8299908.458 5   6486330.78421
  19833152.285   -23962996.115 7 -18606340.18623
 91  4 25 23  2 14.9960000  0  5G13G 2G15G19G 6
  21351117.6914   -9703916.21146  -6331360.50261
  19798588.4494  -21680807.13847 -16849670.15464
  22791932.551    -2900806.720 5  -2171138.23321
  22602722.1684    8334925.44745   6513616.70661
  19828538.582   -23987236.712 7 -18625228.93724
 91  4 25 23  2 29.9960000  0  5G13G 2G15G19G 6
  21339909.5514   -9762819.60446  -6377259.16261
  19798486.5434  -21681356.63447 -16850098.33164
  22788952.8874   -2916434.82645  -2183315.97261
  22609391.215     8369979.244 5   6540931.30621
  19823935.793   -24011427.299 7 -18644078.71923
 91  4 25 23  2 44.9960000  0  5G13G 2G15G19G 6
  21328715.379    -9821652.773 6  -6423103.09821
  19798385.6134  -21681869.91847 -16850498.29264
  22786003.231    -2931949.411 6  -2195405.25621
  22616071.082     8405074.574 5   6568278.26421
  19819341.754   -24035562.760 7 -18662885.55423
 91  4 25 23  2 59.9960000  0  5G13G 2G15G19G 6
  21317532.848    -9880420.528 6  -6468896.08221
  19798294.5354  -21682352.26247 -16850874.13964
  22783072.1524   -2947355.32146  -2207409.85961
  22622750.793     8440206.145 5   6595653.47821
  19814760.316   -24059648.084 7 -18681653.31724
 91  4 25 23  3 14.9960000  0  5G13G 2G15G19G 6
  21306361.340    -9939122.292 6  -6514637.62021
  19798207.8404  -21682802.99448 -16851225.36464
  22780160.2074   -2962651.91046  -2219329.27061
  22629449.5124    8475374.22945   6623057.12961
  19810183.801   -24083682.466 7 -18700381.39124
 91  4 25 23  3 29.9960000  0  5G13G 2G15G19G 6
  21295201.356    -9997763.202 6  -6560331.76021
  19798126.1294  -21683228.05847 -16851556.57964
  22777268.6524   -2977844.58846  -2231167.71061
  22636149.027     8510573.254 5   6650484.90321
  19805620.801   -24107671.316 7 -18719073.98324
 91  4 25 23  3 44.9960000  0  5G13G 2G15G19G 6
  21284054.9814  -10056344.85846  -6605979.71361
  19798051.1294  -21683629.66947 -16851869.52264
  22774395.621    -2992935.568 6  -2242926.89521
  22642851.7854    8545800.87945   6677934.94961
  19801063.1764  -24131616.49447 -18737732.53664
 91  4 25 23  3 59.9960000  0  5G13G 2G15G19G 6
  21272918.856   -10114859.229 6  -6651575.25221
  19797980.0204  -21683999.84047 -16852157.96164
  22771544.863    -3007916.713 6  -2254600.48421
  22649557.6684    8581064.97145   6705413.43461
  19796518.441   -24155509.846 7 -18756350.70624
 91  4 25 23  4 14.9960000  0  5G13G 2G15G19G 6
  21261796.8164  -10173305.34846  -6697117.59661
  19797915.0664  -21684337.96347 -16852421.43064
  22768714.4494   -3022787.41946  -2266188.04361
  22656278.363     8616366.106 5   6732920.77121
  19791981.785   -24179350.539 7 -18774927.85024
 91  4 25 23  4 29.9960000  0  5G13G 2G15G19G 6
  21250687.121   -10231685.039 6  -6742608.17721
  19797860.4654  -21684646.37747 -16852661.74564
  22765911.356    -3037549.493 6  -2277690.94021
  22663002.1914    8651701.73845   6760454.96561
  19787454.996   -24203140.526 7 -18793465.48124
 91  4 25 23  4 44.9960000  0  5G13G 2G15G19G 6
  21239589.746   -10289996.169 6  -6788045.33821
  19797804.3404  -21684923.39847 -16852877.60464
  22763122.0434   -3052200.90246  -2289107.59261
  22669733.684     8687073.592 5   6788017.37721
  19782936.0594  -24226877.97047 -18811962.15764
 91  4 25 23  4 59.9960000  0  5G13G 2G15G19G 6
  21228509.613   -10348239.592 6  -6833429.75021
  19797759.6134  -21685170.28847 -16853069.98164
  22760352.3874   -3066742.74346  -2300438.87961
  22676470.387     8722480.351 5   6815607.02021
  19778429.402   -24250563.717 7 -18830418.56723
 91  4 25 23  5 14.9960000  0  5G13G 2G15G19G 6
  21217440.0044  -10406410.28346  -6878757.48161
  19797718.5904  -21685382.66547 -16853235.46564
  22757606.8244   -3081170.50446  -2311681.29761
  22683218.223     8757926.554 5   6843227.38821
  19773932.535   -24274192.957 7 -18848830.93623
 91  4 25 23  5 29.9960000  0  5G13G 2G15G19G 6
  21206380.707   -10464511.139 6  -6924030.79221
  19797685.4964  -21685563.58847 -16853376.44264
  22754884.0274   -3095487.13346  -2322837.10661
  22689971.395     8793408.878 5   6870875.90121
  19769445.668   -24297768.636 7 -18867201.57123
 91  4 25 23  5 44.9960000  0  5G13G 2G15G19G 6
  21195337.621   -10522547.099 6  -6969253.54021
  19797654.5274  -21685718.35748
  22752179.8564   -3109697.59446  -2333910.18661
  22696726.7074    8828921.93645   6898548.37361
  19764967.3714  -24321295.63747 -18885534.26863
 91  4 25 23  5 59.9960000  0  5G13G 2G15G19G 6
  21184308.574   -10580508.631 6  -7014418.28921
  19797631.4734  -21685837.96147
  22749497.020    -3123792.446 6  -2344893.15821
  22703491.293     8864474.780 5   6926251.85721
  19760501.777   -24344764.647 7 -18903821.79024
 91  4 25 23  6 14.9960000  0  5G13G 2G15G19G 6
  21173293.1374  -10638395.90646  -7059525.16561
  19797616.0044  -21685922.73148
  22746840.6214   -3137771.87946  -2355786.22661
  22710265.215     8900067.137 5   6953986.10821
  19756047.902   -24368175.746 7 -18922064.17623
 91  4 25 23  6 29.9960000  0  5G13G 2G15G19G 6
  21162291.8484  -10696205.19946  -7104571.30261
  19797607.2774  -21685969.39748
  22744199.6764   -3151632.56346  -2366586.76661
  22717044.7234    8935702.17645   6981753.63261
  19751603.4344  -24391525.29847 -18940258.60163
 91  4 25 23  6 44.9960000  0  5G13G 2G15G19G 6
  21151306.082   -10753941.594 6  -7149560.62421
  19797603.3324  -21685983.41247
  22741583.2774   -3165379.75446  -2377298.83961
  22723834.473     8971374.365 5   7009550.10021
  19747173.660   -24414818.611 7 -18958409.21223
 91  4 25 23  6 59.9960000  0  5G13G 2G15G19G 6
  21140333.449   -10811598.655 6  -7194488.12521
  19797609.3244  -21685958.92247
  22738991.9734   -3179007.43545  -2387917.77961
  22730629.957     9007089.352 5   7037379.92921
  19742752.9024  -24438049.53347 -18976511.19664
 91  4 25 23  7 14.9960000  0  5G13G 2G15G19G 6
  21129374.176   -10869181.932 6  -7239358.13521
  19797618.7624  -21685901.65848
  22736416.9814   -3192521.01745  -2398447.84861
  22737436.2314    9042841.28145   7065238.53061
  19738340.316   -24461223.403 7 -18994568.73324
 91  4 25 23  7 29.9960000  0  5G13G 2G15G19G 6
  21118431.574   -10926693.620 6  -7284172.37021
  19797636.7704  -21685814.63348
  22733866.0824   -3205923.13945  -2408891.04161
  22744245.465     9078627.366 5   7093123.77121
  19733943.3484  -24484342.72747 -19012583.76464
 91  4 25 23  7 44.9960000  0  5G13G 2G15G19G 6
  21107500.1374  -10984128.57846  -7328926.81361
  19797659.1764  -21685692.96748
  22731342.3014   -3219208.90045  -2419243.58661
  22751065.996     9114452.491 4   7121039.41021
  19729554.8244  -24507402.54947 -19030552.42563
 91  4 25 23  7 59.9960000  0  5G13G 2G15G19G 6
  21096585.129   -11041496.748 6  -7373629.19821
  19797686.277   -21685546.891 8
  22728825.4654   -3232388.37645  -2429513.29061
  22757885.0044    9150305.93344   7148977.12161
  19725177.1134  -24530412.82247 -19048482.47664
 91  4 25 23  8 14.9960000  0  5G13G 2G15G19G 6
  21085683.027   -11098782.716 6  -7418267.53721
  19797720.543   -21685361.196 8
  22726344.3484   -3245445.79646  -2439687.90361
  22764712.2624    9186203.09543   7176948.90161
  19720808.2314  -24553357.91847 -19066361.74263
 91  4 25 23  8 29.9960000  0  5G13G 2G15G19G 6
  21074796.801   -11155989.478 6  -7462844.15721
  19797762.9104  -21685139.43148 -16853045.85665
  22723883.9104   -3258384.74546  -2449770.19161
  22771556.207     9222140.389 3   7204951.95721
  19716455.0044  -24576241.16047 -19084192.81264
 91  4 25 23  8 44.9960000  0  5G13G 2G15G19G 6
  21063925.0744  -11213117.00046  -7507359.03461
  19797814.8564  -21684882.01948 -16852845.27464
  22721442.2154   -3271205.69246  -2459760.52061
  22778401.191     9258117.230 4   7232985.81321
  19712111.6294  -24599062.78447 -19101975.86464
 91  4 25 23  8 59.9960000  0  5G13G 2G15G19G 6
  21053071.6764  -11270161.75946  -7551809.41561
  19797868.8404  -21684585.93548 -16852614.55265
  22719024.199    -3283905.136 6  -2469656.16121
  22785254.637     9294136.768 4   7261052.96121
  19707781.676   -24621819.222 7 -19119708.12624
 91  4 25 23  9 14.9960000  0  5G13G 2G15G19G 6
  21042229.9734  -11327123.09746  -7596194.82361
  19797934.8094  -21684250.92848 -16852353.50664
  22716636.137    -3296482.543 6  -2479456.71821
  22792116.5904    9330199.01844   7289153.38661
  19703464.7074  -24644510.11947 -19137389.31964
 91  4 25 23  9 29.9960000  0  5G13G 2G15G19G 6
  21031408.410   -11384003.161 6  -7640516.88221
  19798006.5354  -21683879.07748 -16852063.74664
  22714267.098    -3308940.030 6  -2489163.83521
  22798989.7384    9366301.80345   7317285.39561
  19699158.4964  -24667137.33347 -19155020.88464
 91  4 25 23  9 44.9960000  0  5G13G 2G15G19G 6
  21020599.1844  -11440798.67846  -7684773.05961
  19798084.0434  -21683467.71048 -16851743.19364
  22711918.9264   -3321274.69246  -2498775.23361
  22805865.1294    9402447.83345   7345451.10661
  19694864.277   -24689697.750 7 -19172600.40523
 91  4 25 23  9 59.9960000  0  5G13G 2G15G19G 6
  21009804.8404  -11497512.28246  -7728965.41461
  19798166.1294  -21683019.72448 -16851394.10564
  22709590.981    -3333489.290 6  -2508293.07821
  22812751.066     9438634.133 5   7373648.17321
  19690582.410   -24712193.998 7 -19190129.92423
 91  4 25 23 10 14.9960000  0  5G13G 2G15G19G 6
  20999033.309   -11554142.203 6  -7773092.55621
  19798261.9104  -21682533.63748 -16851015.33364
  22707291.691    -3345581.831 5  -2517715.81721
  22819646.1604    9474862.09345   7401877.71561
  19686315.4884  -24734624.28247 -19207608.04064
 91  4 25 23 10 29.9960000  0  5G13G 2G15G19G 6
  20988270.2704  -11610692.49946  -7817157.66261
  19798358.4814  -21682014.25148 -16850610.60964
  22705013.0984   -3357557.18745  -2527047.26461
  22826544.473     9511126.720 5   7430135.82421
  19682057.8954  -24756993.17647 -19225038.31864
 91  4 25 23 10 44.9960000  0  5G13G 2G15G19G 6
  20977526.2464  -11667157.87846  -7861156.58961
  19798463.7154  -21681456.53548 -16850176.02164
  22702760.231    -3369410.313 5  -2536283.45121
  22833456.895     9547433.133 4   7458426.50921
  19677813.309   -24779295.278 7 -19242416.55524
 91  4 25 23 10 59.9960000  0  5G13G 2G15G19G 6
  20966794.5514  -11723538.13546  -7905089.19561
  19798576.7934  -21680860.68548 -16849711.71764
  22700523.9264   -3381141.29345  -2545424.44761
  22840373.598     9583781.057 4   7486749.54121
  19673581.9884  -24801530.52947 -19259742.69464
 91  4 25 23 11 14.9960000  0  5G13G 2G15G19G 6
  20956082.8794  -11779834.89646  -7948956.73061
  19798698.8954  -21680228.55548 -16849219.14064
  22698312.6994   -3392751.44845  -2554471.29161
  22847294.777     9620168.542 4   7515103.40021
  19669364.2544  -24823700.37847 -19277017.87064
 91  4 25 23 11 29.9960000  0  5G13G 2G15G19G 6
  20945383.2154  -11836053.73146  -7992763.54961
  19798823.6844  -21679566.24348 -16848703.04864
  22696125.981    -3404246.769 5  -2563428.67021
  22854226.043     9656589.551 4   7543483.38421
  19665157.1064  -24845810.69247 -19294246.65864
 91  4 25 23 11 44.9960000  0  5G13G 2G15G19G 6
  20934705.6294  -11892182.44746  -8036500.14561
  19798959.1994  -21678861.86247 -16848154.17664
  22693966.324    -3415615.205 6  -2572287.17921
  22861170.504     9693055.729 4   7571898.57921
  19660965.1064  -24867849.38947 -19311419.63964
 91  4 25 23 11 59.9960000  0  5G13G 2G15G19G 6
  20924040.590   -11948229.076 6  -8080172.75621
  19799099.3014  -21678123.97547 -16847579.19764
  22691821.8794   -3426864.96146  -2581053.21761
  22868112.606     9729558.480 4   7600342.24721
  19656781.0354  -24889824.50047 -19328543.06964
 91  4 25 23 12 14.9960000  0  5G13G 2G15G19G 6
  20913390.3874  -12004188.36646  -8123777.42761
  19799247.981   -21677347.732 7 -16846974.41222
  22689705.527    -3437991.072 6  -2589722.96621
  22875067.2234    9766102.69144   7628818.16361
  19652613.8244  -24911731.00847 -19345613.12862
 91  4 25 23 12 29.9960000  0  5G13G 2G15G19G 6
  20902757.293   -12060065.963 6  -8167318.25021
  19799401.684   -21676539.132 7 -16846344.23724
  22687612.707    -3448999.335 6  -2598300.72921
  22882027.918     9802682.208 5   7657321.73621
  19648457.4734  -24933574.45147 -19362633.88164
 91  4 25 23 12 44.9960000  0  5G13G 2G15G19G 6
  20892140.6454  -12115854.85146  -8210790.05461
  19799560.1454  -21675691.55747 -16845683.78464
  22685537.4104   -3459883.41645  -2606781.83761
  22888996.9344    9839303.50245   7685857.77361
  19644312.113   -24955348.192 7 -19379600.40824
 91  4 25 23 12 59.9960000  0  5G13G 2G15G19G 6
  20881538.9884  -12171565.36046  -8254200.78361
  19799728.5744  -21674815.52248 -16845001.16064
  22683489.066    -3470653.268 5  -2615173.91921
  22895971.0824    9875956.19445   7714418.27261
  19640181.707   -24977062.454 7 -19396520.59924
 91  4 25 23 13 14.9960000  0  5G13G 2G15G19G 6
  20870951.895   -12227194.665 6  -8297548.21521
  19799900.1994  -21673908.43047 -16844294.33364
  22681460.770    -3481306.075 5  -2623474.77321
  22902950.3484    9912642.63645   7743005.07661
  19636060.981   -24998714.240 7 -19413392.09623
 91  4 25 23 13 29.9960000  0  5G13G 2G15G19G 6
  20860385.613   -12282734.059 6  -8340825.61321
  19800080.6374  -21672962.13748 -16843556.95864
  22679458.363    -3491833.752 5  -2631678.13921
  22909939.0044    9949370.86945   7771624.45761
  19631951.777   -25020295.130 7 -19430208.35123
 91  4 25 23 13 44.9960000  0  5G13G 2G15G19G 6
  20849832.6454  -12338188.39446  -8384036.71361
  19800267.8484  -21671981.96948 -16842793.18764
  22677480.387    -3502241.350 5  -2639787.94921
  22916937.566     9986135.462 5   7800272.15321
  19627860.645   -25041810.248 7 -19446973.35323
 91  4 25 23 13 59.9960000  0  5G13G 2G15G19G 6
  20839295.1844  -12393554.59846  -8427179.14361
  19800462.9344  -21670964.94748 -16842000.70464
  22675521.738    -3512525.959 5  -2647801.91621
  22923939.9964   10022939.32544   7828950.44361
  19623777.996   -25063256.283 7 -19463684.52723
 91  4 25 23 14 14.9960000  0  5G13G 2G15G19G 6
  20828776.809   -12448826.471 6  -8470248.08221
  19800662.7464  -21669905.37648 -16841175.06364
  22673589.4494   -3522681.54545  -2655715.35061
  22930950.699    10059788.094 4   7857663.74321
  19619710.957   -25084627.248 7 -19480337.19823
 91  4 25 23 14 29.9960000  0  5G13G 2G15G19G 6
  20818274.5434  -12504020.00146  -8513255.96361
  19800871.8404  -21668819.48748 -16840328.91565
  22671681.4264   -3532723.99345  -2663540.63561
  22937969.668    10096665.449 4   7886399.31321
  19615657.113   -25105938.988 7 -19496943.72823
 91  4 25 23 14 44.9960000  0  5G13G 2G15G19G 6
  20807789.4494  -12559123.58646  -8556193.76561
  19801083.2464  -21667695.97948 -16839453.45465
  22669793.004    -3542641.917 6  -2671268.90021
  22944994.0824   10133582.61443   7915165.86961
  19611613.371   -25127180.137 7 -19513495.25023
 91  4 25 23 14 59.9960000  0  5G13G 2G15G19G 6
  20797320.5354  -12614135.20346  -8599059.89761
  19801306.1764  -21666533.42348 -16838547.56165
  22667926.777    -3552433.580 6  -2678898.77221
  22952026.926    10170541.058 4   7943964.60221
  19607586.535   -25148348.630 7 -19529990.15824
 91  4 25 23 15 14.9960000  0  5G13G 2G15G19G 6
  20786872.613   -12669044.562 6  -8641846.36021
  19801534.5824  -21665321.95448 -16837603.55964
  22666090.1604   -3562089.06945  -2686422.52661
  22959073.2314   10207550.52044   7972803.10661
  19603572.879   -25169434.415 7 -19546420.62124
 91  4 25 23 15 29.9960000  0  5G13G 2G15G19G 6
  20776438.0354  -12723862.86746  -8684561.86061
  19801774.7934  -21664073.17148 -16836630.48164
  22664277.2854   -3571619.84345  -2693849.07461
  22966122.824    10244599.339 4   8001672.27821
  19599573.527   -25190448.792 7 -19562795.44224
 91  4 25 23 15 44.9960000  0  5G13G 2G15G19G 6
  20766026.4184  -12778589.09246  -8727205.61861
  19802018.3874  -21662786.26248 -16835627.69364
  22662486.2544   -3581025.07545  -2701177.81961
  22973182.426    10281688.074 4   8030572.54321
  19595588.863   -25211390.835 7 -19579113.89224
 91  4 25 23 15 59.9960000  0  5G13G 2G15G19G 6
  20755629.598   -12833224.576 6  -8769778.66221
  19802270.3564  -21661463.30548 -16834596.81164
  22660719.9494   -3590306.71145  -2708410.26061
  22980250.941    10318814.675 3   8059502.34821
  19591616.809   -25232262.171 7 -19595377.24424
 91  4 25 23 16 14.9960000  0  5G13G 2G15G19G 6
  20745248.6994  -12887759.00546  -8812272.96161
  19802530.1214  -21660093.94748 -16833529.77664
  22658979.2934   -3599454.22445  -2715538.18161
  22987320.8874   10355989.25843   8088469.49361
  19587663.762   -25253052.270 7 -19611577.30824
 91  4 25 23 16 29.9960000  0  5G13G 2G15G19G 6
  20734892.746   -12942194.214 6  -8854689.96121
  19802801.1134  -21658680.45148 -16832428.34964
  22657269.324    -3608469.814 5  -2722563.30521
  22994399.309    10393209.522 3   8117472.28121
  19583721.066   -25273763.071 7 -19627715.57724
 91  4 25 23 16 44.9960000  0  5G13G 2G15G19G 6
  20724551.4184  -12996532.58646  -8897031.48761
  19803074.6914  -21657225.71148 -16831294.78364
  22655568.4344   -3617356.11745  -2729487.69561
  23001492.324    10430472.584 3   8146508.38621
  19579794.606   -25294397.244 7 -19643794.13724
 91  4 25 23 16 59.9960000  0  5G13G 2G15G19G 6
  20714232.027   -13050771.691 6  -8939295.67121
  19803361.4494  -21655727.39648 -16830127.26464
  22653910.1134   -3626110.27446  -2736309.11661
  23008593.8164   10467780.76344   8175579.71261
  19575882.176   -25314952.013 7 -19659810.82724
 91  4 25 23 17 14.9960000  0  5G13G 2G15G19G 6
  20703927.090   -13104910.360 6  -8981481.59521
  19803655.8954  -21654184.81448 -16828925.24964
  22652270.3874   -3634731.93246  -2743027.29061
  23015702.856    10505134.629 4   8204686.61121
  19571986.441   -25335426.361 7 -19675764.84624
 91  4 25 23 17 29.9960000  0  5G13G 2G15G19G 6
  20693641.621   -13158957.384 6  -9023596.11121
  19803955.7854  -21652607.02448 -16827695.80464
  22650651.6134   -3643229.95446  -2749649.11861
  23022814.5354   10542525.01244   8233821.94261
  19568102.231   -25355829.283 7 -19691663.19923
 91  4 25 23 17 44.9960000  0  5G13G 2G15G19G 6
  20683380.121   -13212897.294 6  -9065627.16121
  19804265.3094  -21650978.61248 -16826426.91264
  22649063.2234   -3651588.91646  -2756162.58761
  23029941.6524   10579967.04644   8262997.48661
  19564238.387   -25376145.049 7 -19707493.64423
 91  4 25 23 17 59.9960000  0  5G13G 2G15G19G 6
  20673132.277   -13266736.502 6  -9107579.73121
  19804582.9344  -21649306.46648 -16825123.93764
  22647498.4494   -3659815.39546  -2762572.84761
  23037071.684    10617453.970 4   8292208.00121
  19560385.856   -25396380.243 7 -19723261.30923
 91  4 25 23 18 14.9960000  0  5G13G 2G15G19G 6
  20662909.332   -13320478.054 6  -9149456.21221
  19804909.1294  -21647594.21148 -16823789.71264
  22645954.1064   -3667912.78245  -2768882.47661
  23044219.566    10654981.981 4   8321450.57221
  19556549.434   -25416538.205 7 -19738968.78723
 91  4 25 23 18 29.9960000  0  5G13G 2G15G19G 6
  20652701.2074  -13374114.01046  -9191250.40661
  19805242.6214  -21645834.34548 -16822418.38664
  22644438.6454   -3675873.60645  -2775085.71661
  23051367.6914   10692558.52745   8350730.96361
  19552731.223   -25436611.070 7 -19754609.95923
 91  4 25 23 18 44.9960000  0  5G13G 2G15G19G 6
  20642514.457   -13427646.099 6  -9232963.66821
  19805585.9884  -21644028.84247 -16821011.50264
  22642948.4574   -3683699.75345  -2781184.00061
  23058525.0664   10730181.35044   8380047.42661
  19548926.707   -25456600.557 7 -19770186.15823
 91  4 25 23 18 59.9960000  0  5G13G 2G15G19G 6
  20632348.1134  -13481070.12846  -9274592.72261
  19805941.3164  -21642173.78048 -16819565.99864
  22641488.0514   -3691387.01045  -2787174.05661
  23065693.6214   10767854.36344   8409402.98361
  19545138.527   -25476502.333 7 -19785694.01423
 91  4 25 23 19 14.9960000  0  5G13G 2G15G19G 6
  20622204.0434  -13534381.16346  -9316133.72661
  19806303.0744  -21640264.87647 -16818078.54164
  22640052.1604   -3698930.83145  -2793052.36961
  23072872.7234   10805581.82843   8438801.00461
  19541370.652   -25496311.959 7 -19801130.06723
 91  4 25 23 19 29.9960000  0  5G13G 2G15G19G 6
  20612079.3014  -13587590.47946  -9357595.46261
  19806674.3484  -21638313.50247 -16816557.98864
  22638638.9884   -3706342.69145  -2798827.84361
  23080053.262    10843352.158 2   8468232.39121
  19537615.949   -25516040.565 7 -19816502.98623
 91  4 25 23 19 44.9960000  0  5G13G 2G15G19G 6
  20601974.9184  -13640691.53346  -9398972.85161
  19807054.3404  -21636313.41647 -16814999.48164
  22637256.6134   -3713616.42845  -2804495.68061
  23087250.6064   10881171.70642   8497702.13461
  19533879.941   -25535681.631 7 -19831807.68423
 91  4 25 23 19 59.9960000  0  5G13G 2G15G19G 6
  20591887.895   -13693684.580 6  -9440266.07321
  19807445.6214  -21634265.17948 -16813403.45465
  22635897.918    -3720752.367 5  -2810056.13721
  23094462.715    10919039.773 3   8527209.69521
  19530158.543   -25555235.419 7 -19847044.38323
 91  4 25 23 20 14.9960000  0  5G13G 2G15G19G 6
  20581824.5434  -13746570.76746  -9481476.03461
  19807844.4104  -21632170.25947 -16811771.04764
  22634567.7774   -3727751.70645  -2815510.15761
  23101683.3484   10956954.74944   8556753.79561
  19526453.020   -25574702.976 7 -19862213.89023
 91  4 25 23 20 29.9960000  0  5G13G 2G15G19G 6
  20571780.707   -13799350.638 6  -9522603.14721
  19808250.4884  -21630029.54547 -16810102.95564
  22633259.4494   -3734615.40445  -2820858.49461
  23108901.801    10994915.742 5   8586333.77921
  19522765.684   -25594085.108 7 -19877316.82323
 91  4 25 23 20 44.9960000  0  5G13G 2G15G19G 6
  20561755.6294  -13852027.47146  -9563649.97461
  19808665.4264  -21627847.04047 -16808402.30164
  22631976.8954   -3741347.16446  -2826104.02361
  23116135.5904   11032918.66045   8615946.41561
  19519092.145   -25613385.307 7 -19892355.92023
 91  4 25 23 20 59.9960000  0  5G13G 2G15G19G 6
  20551754.6134  -13904583.11746  -9604602.36661
  19809093.1064  -21625604.71348 -16806655.03464
  22630729.7544   -3747928.72846  -2831232.50761
  23123377.5434   11070981.20545   8645605.51661
  19515437.949   -25632585.501 7 -19907317.09223
 91  4 25 23 21 14.9960000  0  5G13G 2G15G19G 6
  20541774.1454  -13957037.77846  -9645476.06761
  19809529.5824  -21623322.84448 -16804876.95064
  22629495.3244   -3754380.51345  -2836259.88161
  23130626.5594   11109083.06044   8675295.23761
  19511798.5274  -25651705.61147 -19922215.85363
 91  4 25 23 21 29.9960000  0  5G13G 2G15G19G 6
  20531811.1684  -14009387.22046  -9686267.78561
  19809970.6764  -21620997.69948 -16803065.15264
  22628295.1374   -3760698.75845  -2841183.18661
  23137889.0744   11147227.75145   8705018.33761
  19508176.441   -25670741.728 7 -19937049.16823
 91  4 25 23 21 44.9960000  0  5G13G 2G15G19G 6
  20521872.316   -14061618.033 6  -9726967.06621
  19810424.2704  -21618616.15948 -16801209.40064
  22627119.5124   -3766870.09245  -2845992.01361
  23145157.1214   11185428.44744   8734785.10961
  19504571.223   -25689680.277 7 -19951806.46023
 91  4 25 23 21 59.9960000  0  5G13G 2G15G19G 6
  20511949.2154  -14113753.67146  -9767592.18261
  19810880.6764  -21616201.93048 -16799328.18364
  22625972.9884   -3772918.05845  -2850704.70761
  23152432.4184   11223661.18244   8764576.81761
  19500982.246   -25708544.749 7 -19966506.02823
 91  4 25 23 22 14.9960000  0  5G13G 2G15G19G 6
  20502050.4104  -14165785.11746  -9808136.11061
  19811348.6684  -21613746.56548 -16797414.91164
  22624848.520    -3778833.937 5  -2855314.50521
  23159720.6134   11261934.56344   8794400.19661
  19497407.488   -25727326.195 7 -19981140.90323
 91  4 25 23 22 29.9960000  0  4G13G 2G15G 6
  20492169.9024  -14217706.10846  -9848593.96361
  19811827.2774  -21611243.94248 -16795464.80764
  22623749.559    -3784611.806 5  -2859816.73121
  19493853.074   -25746018.460 7 -19995706.28423
 91  4 25 23 22 44.9960000  0  4G13G 2G15G 6
  20482311.7314  -14269521.29246  -9888969.37761
  19812311.1844  -21608699.12547 -16793481.83064
  22622671.5124   -3790256.68446  -2864215.32761
  19490311.598   -25764626.318 7 -20010205.89023
 91  4 25 23 22 59.9960000  0  4G13G 2G15G 6
  20472471.2774  -14321225.75546  -9929258.50561
  19812803.0274  -21606107.64847 -16791462.49564
  22621624.8094   -3795763.52646  -2868506.37461
  19486787.699   -25783144.981 7 -20024635.99523
 91  4 25 23 23 14.9960000  0  4G13G 2G15G 6
  20462652.3874  -14372820.86146  -9969462.43161
  19813305.2154  -21603470.99147 -16789407.96064
  22620600.4264   -3801134.04846  -2872691.18361
  19483280.902   -25801575.661 7 -20038997.54623
 91  4 25 23 23 29.9960000  0  4G13G 2G15G 6
  20452852.5904  -14424307.08146 -10009581.51161
  19813815.2934  -21600790.03247 -16787318.90265
  22619605.9414   -3806368.95946  -2876770.34361
  19479789.582   -25819919.123 7 -20053291.12623
 91  4 25 23 23 44.9960000  0  4G13G 2G15G 6
  20443077.2234  -14475687.59646 -10049618.21661
  19814332.3404  -21598068.29448 -16785198.07365
  22618636.0514   -3811471.89145  -2880746.65061
  19476314.481   -25838178.467 7 -20067519.17023
 91  4 25 23 23 59.9960000  0  4G13G 2G15G 6
  20433320.5124  -14526963.71646 -10089573.58061
  19814857.9734  -21595307.23848 -16783046.60265
  22617693.2384   -3816444.27445  -2884621.21961
  19472855.199   -25856354.977 7 -20081682.66923
 91  4 25 23 24 14.9960000  0  4G13G 2G15G 6
  20423584.1454  -14578128.24646 -10129441.98761
  19815393.7544  -21592500.32548 -16780859.39665
  22616768.887    -3821279.164 5  -2888388.65221
  19469412.770   -25874441.641 7 -20095776.15123
 91  4 25 23 24 29.9960000  0  4G13G 2G15G 6
  20413868.8564  -14629187.37346 -10169228.26161
  19815934.6294  -21589653.75848 -16778641.28964
  22615878.551    -3825982.697 5  -2892053.73721
  19465987.981   -25892444.498 7 -20109804.33323
 91  4 25 23 24 44.9960000  0  4G13G 2G15G 6
  20404172.434   -14680133.747 6 -10208926.67621
  19816484.5354  -21586760.52848 -16776386.82364
  22615002.5594   -3830548.09345  -2895611.18161
  19462579.645   -25910356.220 7 -20123761.50723
 91  4 25 23 24 59.9960000  0  4G13G 2G15G 6
  20394500.356   -14730967.220 6 -10248537.12221
  19817045.1524  -21583820.98348 -16774096.26364
  22614162.1294   -3834975.45645  -2899061.07561
  19459189.176   -25928176.923 7 -20137647.74823
 91  4 25 23 25 14.9960000  0  4G13G 2G15G 6
  20384849.457   -14781688.461 6 -10288060.10821
  19817613.0434  -21580835.93548 -16771770.24964
  22613343.9264   -3839265.22045  -2902403.75361
  19455813.441   -25945907.220 7 -20151463.54923
 91  4 25 23 25 29.9960000  0  4G13G 2G15G 6
  20375218.848   -14832297.843 6 -10327495.93621
  19818188.9884  -21577805.86648 -16769409.15364
  22612557.699    -3843418.095 5  -2905639.76221
  19452458.059   -25963547.280 7 -20165209.02823
 91  4 25 23 25 44.9960000  0  4G13G 2G15G 6
  20365608.527   -14882791.153 6 -10366841.31721
  19818774.8484  -21574727.32648 -16767010.28964
  22611792.0354   -3847430.39245  -2908766.23861
  19449119.481   -25981093.345 7 -20178881.26423
 91  4 25 23 25 59.9960000  0  4G13G 2G15G 6
  20356021.231   -14933172.250 6 -10406099.26321
  19819369.1454  -21571604.35948 -16764576.80764
  22611058.6294   -3851306.34546  -2911786.47361
  19445797.129   -25998549.293 7 -20192483.28623
 91  4 25 23 26 14.9960000  0  4G13G 2G15G 6
  20346456.043   -14983435.179 6 -10445265.13121
  19819975.2774  -21568431.26648 -16762104.26464
  22610341.965    -3855039.944 5  -2914695.78421
  19442493.965   -26015908.993 7 -20206010.29923
 91  4 25 23 26 29.9960000  0  4G13G 2G15G 6
  20336913.809   -15033587.130 7 -10484344.52321
  19820584.9814  -21565215.55248 -16759598.51164
  22609658.0664   -3858638.84745  -2917500.12361
  19439206.879   -26033179.791 7 -20219468.04923
 91  4 25 23 26 44.9960000  0  4G13G 2G15G 6
  20327390.2704  -15083626.41247 -10523336.11761
  19821206.1374  -21561955.83948 -16757058.47164
  22608999.5664   -3862101.42245  -2920198.23061
  19435937.098   -26050360.002 7 -20232855.20723
 91  4 25 23 26 59.9960000  0  4G13G 2G15G 6
  20317890.543   -15133549.383 7 -10562237.08621
  19821835.1764  -21558648.70348 -16754481.47864
  22608363.6604   -3865424.34945  -2922787.52961
  19432686.215   -26067445.917 7 -20246168.88523
 91  4 25 23 27 14.9960000  0  4G13G 2G15G 6
  20308412.254   -15183354.047 7 -10601045.85621
  19822473.0514  -21555292.48948 -16751866.24764
  22607764.1914   -3868605.91645  -2925266.65761
  19429453.488   -26084435.693 7 -20259407.65623
 91  4 25 23 27 29.9960000  0  4G13G 2G15G 6
  20298956.6374  -15233043.91247 -10639765.18361
  19823119.7774  -21551891.12848 -16749215.83864
  22607181.7704   -3871649.60945  -2927638.38561
  19426238.941   -26101332.834 7 -20272574.24323
 91  4 25 23 27 44.9960000  0  4G13G 2G15G 6
  20289522.7154  -15282620.81147 -10678396.47561
  19823774.8484  -21548446.48448 -16746531.69464
  22606635.301    -3874557.527 5  -2929904.27421
  19423039.723   -26118139.098 7 -20285670.01823
 91  4 25 23 27 59.9960000  0  4G13G 2G15G 6
  20280113.387   -15332075.127 7 -10716932.25321
  19824441.3954  -21544949.13548 -16743806.48764
  22606106.3794   -3877320.26345  -2932057.04061
  19419860.340   -26134844.822 7 -20298687.45024
 91  4 25 23 28 14.9960000  0  4G13G 2G15G 6
  20270725.988   -15381404.191 7 -10755370.42621
  19825118.0434  -21541397.11148 -16741038.67364
  22605605.277    -3879935.504 5  -2934094.91921
  19416701.363   -26151447.603 7 -20311624.66724
 91  4 25 23 28 29.9960000  0  4G13G 2G15G 6
  20261359.387   -15430618.628 7 -10793719.28921
  19825801.5044  -21537801.32448 -16738236.76264
  22605137.2624   -3882414.34645  -2936026.47661
  19413558.371   -26167958.099 7 -20324489.97024
 91  4 25 23 28 44.9960000  0  4G13G 2G15G 6
  20252015.426   -15479711.136 7 -10831973.13821
  19826495.9264  -21534154.64948 -16735395.19764
  22604691.621    -3884749.539 5  -2937846.11521
  19410436.340   -26184369.042 7 -20337277.70024
 91  4 25 23 28 59.9960000  0  4G13G 2G15G 6
  20242697.543   -15528680.697 6 -10870131.18021
  19827198.6844  -21530456.50948 -16732513.52964
  22604277.348    -3886940.192 5  -2939553.14121
  19407333.363   -26200679.511 7 -20349987.14324
 91  4 25 23 29 14.9960000  0  4G13G 2G15G 6
  20233403.574   -15577529.750 6 -10908195.33021
  19827913.7234  -21526709.38148 -16729593.69264
  22603880.926    -3888989.201 5  -2941149.78721
  19404245.684   -26216891.936 7 -20362620.18624
 91  4 25 23 29 29.9960000  0  4G13G 2G15G 6
  20224128.473   -15626259.474 7 -10946166.49321
  19828635.6684  -21522914.90448 -16726636.95364
  22603521.8014   -3890897.95945  -2942637.14361
  19401180.8954  -26233007.36347 -20375177.65164
 91  4 25 23 29 44.9960000  0  4G13G 2G15G 6
  20214881.184   -15674859.767 7 -10984036.79821
  19829367.4654  -21519063.10048 -16723635.54864
  22603188.0044   -3892656.29445  -2944007.28161
  19398133.371   -26249015.755 7 -20387651.70124
 91  4 25 23 29 59.9960000  0  4G13G 2G15G 6
  20205656.723   -15723332.610 7 -11021807.79421
  19830110.6914  -21515156.27048 -16720591.26364
  22602877.301    -3894266.282 5  -2945261.82721
  19395109.527   -26264919.066 7 -20400043.88024
 91  4 25 23 30 14.9960000  0  4G13G 2G15G 6
  20196455.668   -15771678.447 6 -11059479.82521
  19830865.0124  -21511195.06048 -16717504.60864
  22602602.238    -3895728.902 5  -2946401.53021
  19392103.457   -26280717.762 7 -20412354.53624
 91  4 25 23 30 29.9960000  0  4G13G 2G15G 6
  20187282.207   -15819892.445 6 -11097049.12221
  19831630.1684  -21507175.15548 -16714372.21564
  22602349.5274   -3897039.67645  -2947422.92261
  19389116.856   -26296407.115 7 -20424579.99324
 91  4 25 23 30 44.9960000  0  4G13G 2G15G 6
  20178134.0044  -15867970.87646 -11134512.77961
  19832406.1294  -21503093.16148 -16711191.43664
  22602133.1214   -3898195.28045  -2948323.39761
  19386152.520   -26311983.543 7 -20436717.45424
 91  4 25 23 30 59.9960000  0  4G13G 2G15G 6
  20169006.973   -15915928.591 6 -11171882.38121
  19833191.6524  -21498964.13048 -16707974.00664
  22601937.8634   -3899210.77045  -2949114.69661
  19383207.426   -26327461.925 7 -20448778.51523
 91  4 25 23 31 14.9960000  0  4G13G 2G15G 6
  20159906.6604  -15963751.03946 -11209146.58461
  19833989.6134  -21494773.57948 -16704708.63764
  22601771.981    -3900071.757 5  -2949785.59121
  19380284.863   -26342827.616 7 -20460751.75723
 91  4 25 23 31 29.9960000  0  4G13G 2G15G 6
  20150830.8564  -16011446.76846 -11246312.05261
  19834798.5354  -21490530.50648 -16701402.34564
  22601639.0354   -3900786.91745  -2950342.87361
  19377379.371   -26358089.168 7 -20472643.85223
 91  4 25 23 31 44.9960000  0  4G13G 2G15G 6
  20141781.238   -16059002.656 6 -11283368.54421
  19835617.8164  -21486222.09648 -16698045.14064
  22601538.4344   -3901343.28245  -2950776.43461
  19374497.324   -26373233.593 7 -20484444.67923
 91  4 25 23 31 59.9960000  0  4G13G 2G15G 6
  20132756.973   -16106423.132 6 -11320319.52021
  19836447.9654  -21481853.05948 -16694640.69364
  22601458.7704   -3901745.66445  -2951090.00061
  19371637.668   -26388265.272 7 -20496157.65623
 91  4 25 23 32 14.9960000  0  4G13G 2G15G 6
  20123756.207   -16153720.277 7 -11357174.39622
  19837289.2074  -21477435.79948 -16691198.67664
  22601408.4344   -3902006.46145  -2951293.25861
  19368795.418   -26403196.442 7 -20507792.31823
 91  4 25 23 32 29.9960000  0  4G13G 2G15G 6
  20114783.551   -16200873.290 7 -11393916.95321
  19838141.2934  -21472949.77748 -16687703.07464
  22601387.1764   -3902105.22045
  19365977.910   -26418006.336 7 -20519332.47424
 91  4 25 23 32 44.9960000  0  4G13G 2G15G 6
  20105836.496   -16247890.382 7 -11430553.60421
  19839008.1214  -21468403.40048 -16684160.43664
  22601401.7854   -3902050.03945
  19363177.832   -26432702.930 7 -20530784.35423
 91  4 25 23 32 59.9960000  0  4G13G 2G15G 6
  20096918.793   -16294765.792 7 -11467079.84621
  19839883.9734  -21463791.03048 -16680566.37864
  22601437.6764   -3901835.27145
  19360407.207   -26447280.557 7 -20542143.52224
 91  4 25 23 33 14.9960000  0  4G13G 2G15G 6
  20088026.988   -16341492.807 7 -11503490.46921
  19840777.7464  -21459106.26948 -16676915.91764
  22601510.2384   -3901454.76745
  19357655.824   -26461732.545 7 -20553404.79024
 91  4 25 23 33 29.9960000  0  4G13G 2G15G 6
  20079162.020   -16388078.954 7 -11539791.31821
  19841679.9574  -21454357.02748 -16673215.20564
  22601615.668    -3900916.575 5  -2950444.03821
  19354927.738   -26476066.587 7 -20564574.15724
 91  4 25 23 33 44.9960000  0  4G13G 2G15G 6
  20070322.606   -16434523.571 7 -11575981.88621
  19842595.7314  -21449542.94648 -16669463.96964
  22601751.2464   -3900220.11345  -2949901.35161
  19352224.004   -26490281.915 7 -20575651.01724
 91  4 25 23 33 59.9960000  0  4G13G 2G15G 6
  20061508.996   -16480830.735 7 -11612065.34221
  19843525.8014  -21444668.49948 -16665665.68864
  22601907.7934   -3899369.44046  -2949238.49161
  19349538.832   -26504382.646 7 -20586638.57824
 91  4 25 23 34 14.9960000  0  4G13G 2G15G 6
  20052725.231   -16526991.281 7 -11648034.55421
  19844465.9574  -21439724.55248 -16661813.26164
  22602103.316    -3898355.822 6  -2948448.67221
  19346879.176   -26518359.591 7 -20597529.69124
 91  4 25 23 34 29.9960000  0  4G13G 2G15G 6
  20043969.871   -16573005.070 7 -11683889.41321
  19845418.1294  -21434711.26848 -16657906.80064
  22602323.4814   -3897179.43145  -2947532.01261
  19344244.801   -26532212.659 7 -20608324.27424
 91  4 25 23 34 44.9960000  0  4G13G 2G15G 6
  20035242.574   -16618869.341 7 -11719627.75721
  19846386.0594  -21429626.41248 -16653944.57364
  22602584.3634   -3895837.66246  -2946486.50361
  19341631.973   -26545939.163 7 -20619020.23224
 91  4 25 23 34 59.9960000  0  4G13G 2G15G 6
  20026544.129   -16664577.322 7 -11755244.32221
  19847369.8404  -21424463.34848 -16649921.40164
  22602869.496    -3894324.198 5  -2945307.21021
  19339045.254   -26559532.352 7 -20629612.30924
 91  4 25 23 35 14.9960000  0  4G13G 2G15G 6
  20017872.863   -16710137.247 7 -11790745.51321
  19848365.0664  -21419230.27648 -16645843.67864
  22603190.590    -3892647.377 5  -2944000.63321
  19336482.371   -26573000.323 7 -20640106.81424
 91  4 25 23 35 29.9960000  0  4G13G 2G15G 6
  20009232.356   -16755551.999 7 -11826133.59021
  19849374.0984  -21413930.31248 -16641713.83164
  22603536.090    -3890810.153 5  -2942569.05621
  19333941.856   -26586346.021 7 -20650506.04124
 91  4 25 23 35 44.9960000  0  4G13G 2G15G 6
  20000620.020   -16800814.666 7 -11861403.15721
  19850396.4184  -21408556.97548 -16637526.81464
  22603915.3014   -3888806.05345  -2941007.40961
  19331427.645   -26599562.594 7 -20660804.64524
 91  4 25 23 35 59.9960000  0  4G13G 2G15G 6
  19992036.277   -16845922.264 7 -11896551.88921
  19851435.6524  -21403107.57448 -16633280.52364
  22604331.1454   -3886632.35345  -2939313.63161
  19328938.770   -26612646.989 7 -20671000.25924
 91  4 25 23 36 14.9960000  0  4G13G 2G15G 6
  19983482.441   -16890867.346 7 -11931573.98621
  19852486.9414  -21397574.58348 -16628969.10364
  22604776.9344   -3884281.54645  -2937481.84861
  19326473.902   -26625591.635 7 -20681086.98124
 91  4 25 23 36 29.9960000  0  4G13G 2G15G 6
  19974961.231   -16935651.532 7 -11966470.71121
  19853556.129   -21391960.136 8 -16624594.19624
  22605257.340    -3881755.768 5  -2935513.72721
  19324037.106   -26638398.379 7 -20691066.24324
 91  4 25 23 36 44.9960000  0  4G13G 2G15G 6
  19966467.215   -16980272.373 7 -12001240.15821
  19854639.3484  -21386262.25348 -16620154.28264
  22605770.5274   -3879052.95845  -2933407.63861
  19321627.449   -26651064.854 7 -20700936.20324
 91  4 25 23 36 59.9960000  0  4G13G 2G15G 6
  19958006.941   -17024732.919 7 -12035884.69521
  19855738.4654  -21380484.29448 -16615651.97664
  22606321.301    -3876176.147 5  -2931165.99321
  19319242.652   -26663594.110 7 -20710699.24224
 91  4 25 23 37 14.9960000  0  4G13G 2G15G 6
  19949578.223   -17069037.299 7 -12070407.54521
  19856851.4344  -21374630.44047 -16611090.52464
  22606906.348    -3873129.985 5  -2928792.36821
  19316885.895   -26675990.298 7 -20720358.58623
 91  4 25 23 37 29.9960000  0  4G13G 2G15G 6
  19941178.848   -17113175.133 7 -12104800.62121
  19857982.7384  -21368690.41348 -16606461.92764
  22607516.7774   -3869904.10145  -2926278.69461
  19314551.746   -26688242.880 7 -20729906.03524
 91  4 25 23 37 44.9960000  0  4G13G 2G15G 6
  19932809.356   -17157152.506 7 -12139068.65521
  19859127.4964  -21362670.56048 -16601771.12464
  22608162.863    -3866504.886 5  -2923629.96321
  19312246.613   -26700357.922 7 -20739346.30823
 91  4 25 23 37 59.9960000  0  4G13G 2G15G 6
  19924469.731   -17200976.858 7 -12173217.45821
  19860285.9814  -21356578.55948 -16597024.10764
  22608843.934    -3862939.973 5  -2920852.13021
  19309965.9734  -26712342.83547 -20748685.19763
 91  4 25 23 38 14.9960000  0  4G13G 2G15G 6
  19916163.356   -17244628.802 7 -12207231.91521
  19861463.5594  -21350395.33048 -16592206.00564
  22609558.316    -3859190.487 6  -2917930.47521
  19307713.527   -26724178.325 7 -20757907.63823
 91  4 25 23 38 29.9960000  0  4G13G 2G15G 6
  19907888.9964  -17288110.99347 -12241114.10161
  19862659.2154  -21344123.79448 -16587319.09564
  22610301.707    -3855259.210 5  -2914867.17021
  19305492.863   -26735867.063 7 -20767015.72923
 91  4 25 23 38 44.9960000  0  4G13G 2G15G 6
  19899645.613   -17331431.520 7 -12274870.31721
  19863866.7774  -21337771.99948 -16582369.64164
  22611085.9964   -3851154.23146  -2911668.48561
  19303292.238   -26747416.947 7 -20776015.62123
 91  4 25 23 38 59.9960000  0  4G13G 2G15G 6
  19891433.270   -17374583.608 7 -12308495.27921
  19865092.2624  -21331333.57848 -16577352.68564
  22611898.481    -3846869.167 6  -2908329.50721
  19301122.660   -26758821.624 7 -20784902.36423
 91  4 25 23 39 14.9960000  0  4G13G 2G15G 6
  19883254.0204  -17417566.88747 -12341988.70761
  19866333.3324  -21324808.52647 -16572268.22964
  22612747.816    -3842404.058 6  -2904850.22321
  19298979.762   -26770080.411 7 -20793675.42423
 91  4 25 23 39 29.9960000  0  4G13G 2G15G 6
  19875107.199   -17460380.484 7 -12375349.90921
  19867591.8094  -21318196.31848 -16567115.85564
  22613632.3244   -3837758.30945  -2901230.17861
  19296864.816   -26781192.654 7 -20802334.29923
 91  4 25 23 39 44.9960000  0  4G13G 2G15G 6
  19866991.457   -17503025.829 7 -12408580.00821
  19868865.1764  -21311498.51647 -16561896.78564
  22614552.160    -3832933.657 5  -2897470.70621
  19294778.848   -26792159.753 7 -20810880.07423
 91  4 25 23 39 59.9960000  0  4G13G 2G15G 6
  19858909.3794  -17545498.68147 -12441675.70561
  19870156.0984  -21304710.81447 -16556607.66864
  22615505.418    -3827925.956 5  -2893568.62221
  19292719.449   -26802977.194 7 -20819309.22923
 91  4 25 23 40 14.9960000  0  4G13G 2G15G 6
  19850861.4414  -17587796.18647 -12474634.76761
  19871466.9814  -21297830.69647 -16551246.53864
  22616489.3164   -3822732.55645  -2889521.81561
  19290689.824   -26813642.285 7 -20827619.67623
 91  4 25 23 40 29.9960000  0  4G13G 2G15G 6
  19842842.293   -17629924.924 7 -12507462.31421
  19872792.0824  -21290865.36347 -16545819.00264
  22617510.4184   -3817360.43145  -2885335.74361
  19288688.379   -26824161.674 7 -20835816.58423
 91  4 25 23 40 44.9960000  0  4G13G 2G15G 6
  19834857.8484  -17671881.31847 -12540155.56562
  19874134.0984  -21283810.94547 -16540322.04864
  22618570.770    -3811806.090 5  -2881007.70621
  19286713.981   -26834531.694 7 -20843897.10223
 91  4 25 23 40 59.9960000  0  4G13G 2G15G 6
  19826906.8244  -17713669.40347 -12572717.67061
  19875491.8794  -21276671.77447 -16534759.05964
  22619666.145    -3806073.916 5  -2876541.08821
  19284767.512   -26844756.266 7 -20851864.29023
 91  4 25 23 41 14.9960000  0  4G13G 2G15G 6
  19818988.035   -17755283.486 7 -12605144.19121
  19876870.1914  -21269442.46847 -16529125.83264
  22620787.5664   -3800158.46945  -2871931.67661
  19282849.824   -26854829.793 7 -20859713.78123
 91  4 25 23 41 29.9960000  0  4G13G 2G15G 6
  19811101.1764  -17796732.44847 -12637442.04461
  19878258.9654  -21262132.36547 -16523429.64464
  22621948.6764   -3794069.21045  -2867186.81161
  19280962.4814  -26864761.42647 -20867452.70963
 91  4 25 23 41 44.9960000  0  4G13G 2G15G 6
  19803245.0044  -17838020.10247 -12669614.20962
  19879665.1064  -21254745.28547 -16517673.47964
  22623136.371    -3787809.861 5  -2862309.40921
  19279099.707   -26874554.671 7 -20875083.79223
 91  4 25 23 41 59.9960000  0  4G13G 2G15G 6
  19795419.3794  -17879134.90147 -12701651.67161
  19881087.3714  -21247269.82647 -16511848.44764
  22624364.2074   -3781368.97945  -2857290.58461
  19277262.762   -26884198.067 7 -20882598.11623
 91  4 25 23 42 14.9960000  0  4G13G 2G15G 6
  19787627.559   -17920082.594 7 -12733558.92122
  19882526.3484  -21239712.04447 -16505959.25864
  22625623.7234   -3774752.74345  -2852135.10061
  19275456.535   -26893697.174 7 -20890000.00223
 91  4 25 23 42 29.9960000  0  4G13G 2G15G 6
  19779865.254   -17960870.518 7 -12765341.67822
  19883978.6764  -21232079.61247 -16500011.90364
  22626912.465    -3767968.815 5  -2846848.95021
  19273673.4734  -26903059.62947 -20897295.40763
 91  4 25 23 42 44.9960000  0  4G13G 2G15G 6
  19772134.4814  -18001498.90847 -12797000.12062
  19885446.2074  -21224372.83247 -16494006.61664
  22628237.7074   -3761017.79745  -2841432.57661
  19271917.3244  -26912285.63947 -20904484.49163
 91  4 25 23 42 59.9950000  0  4G13G 2G15G 6
  19764435.030   -18041962.227 7 -12828529.93622
  19886927.1404  -21216589.61047 -16487941.76664
  22629588.3744   -3753897.65945  -2835884.41361
  19270189.4834  -26921371.65447 -20911564.49563
 91  4 25 23 43 14.9950000  0  4G13G 2G15G 6
  19756766.5074  -18082265.61247 -12859935.13562
  19888423.8044  -21208728.79647 -16481816.45664
  22630975.7264   -3746607.09245  -2830203.44361
  19268486.5624  -26930318.58247 -20918536.11563
 91  4 25 23 43 29.9950000  0  4G13G 2G15G 6
  19749125.3514  -18122412.83547 -12891218.65161
  19889931.2334  -21200797.51247 -16475636.23364
  22632401.405    -3739153.292 5  -2824395.29721
  19266809.2964  -26939132.11547 -20925403.79463
 91  4 25 23 43 44.9950000  0  4G13G 2G15G 6
  19741515.2024  -18162408.50447 -12922384.07262
  19891453.1794  -21192800.77547 -16469405.01064
  22633849.1084   -3731541.17445  -2818463.80361
  19265157.5304  -26947817.18347 -20932171.37263
 91  4 25 23 43 59.9950000  0  4G13G 2G15G 6
  19733932.0234  -18202255.10247 -12953433.32861
  19892988.3124  -21184741.17147 -16463124.79864
  22635322.499    -3723773.710 6  -2812411.29321
  19263527.3124  -26956376.07147 -20938840.62663
 91  4 25 23 44 14.9950000  0  4G13G 2G15G 6
  19726376.4444  -18241954.02747 -12984367.52262
  19894532.9764  -21176620.30647 -16456796.85064
  22636830.8984   -3715852.38345  -2806238.85761
  19261922.6324  -26964810.10947 -20945412.59363
 91  4 25 23 44 29.9950000  0  4G13G 2G15G 6
  19718851.2024  -18281505.65947 -13015186.94262
  19896089.3744  -21168439.02147
  22638365.483    -3707777.938 5
  19260342.929   -26973119.910 7 -20951887.75323
 91  4 25 23 44 44.9950000  0  4G13G 2G15G 6
  19711350.6634  -18320925.00447 -13045903.27662
  19897654.9834  -21160212.39848
  22639930.694    -3699565.951 5
  19258781.366   -26981320.388 7 -20958277.72223
 91  4 25 23 44 59.9950000  0  4G13G 2G15G 6
  19703873.0934  -18360208.91147 -13076514.08262
  19899229.6404  -21151937.35248 -16437563.37464
  22641514.398    -3691213.226 5  -2787039.60421
  19257242.1014  -26989408.29847 -20964579.98163
 91  4 25 23 45 14.9950000  0  4G13G 2G15G 6
  19696423.2184  -18399366.94847 -13107026.80262
  19900812.3514  -21143623.68948 -16431085.19764
  22643131.976    -3682729.517 5  -2780428.96421
  19255723.273   -26997393.179 7 -20970801.95423
 91  4 25 23 45 29.9950000  0  4G13G 2G15G 6
  19688996.2804  -18438402.40347 -13137444.00662
  19902399.3124  -21135274.85347 -16424579.60764
  22644772.7654   -3674118.26745  -2773718.90661
  19254221.8434  -27005278.36747 -20976946.24863
 91  4 25 23 45 44.9950000  0  4G13G 2G15G 6
  19681588.6714  -18477322.14147 -13167771.04062
  19903994.1554  -21126897.93747 -16418052.14464
  22646437.991    -3665386.943 5  -2766915.29821
  19252741.062   -27013070.655 7 -20983018.14823
 91  4 25 23 45 59.9950000  0  4G13G 2G15G 6
  19674202.1244  -18516136.82147 -13198016.21562
  19905591.7964  -21118503.77347 -16411511.23464
  22648116.2574   -3656545.96245  -2760026.25061
  19251272.093   -27020780.565 7 -20989025.85423
 91  4 25 23 46 14.9950000  0  4G13G 2G15G 6
  19666837.6164  -18554843.74447 -13228177.42562
  19907193.0074  -21110089.75347 -16404954.85464
  22649821.398    -3647593.227 6  -2753050.12221
  19249823.0854  -27028405.35747 -20994967.23663
 91  4 25 23 46 29.9950000  0  4G13G 2G15G 6
  19659488.5384  -18593450.42347 -13258260.52262
  19908796.0774  -21101663.60747 -16398389.02664
  22651546.8514   -3638536.43946  -2745992.90761
  19248384.4134  -27035952.77947 -21000848.33663
 91  4 25 23 46 44.9950000  0  4G13G 2G15G 6
  19652159.2414  -18631970.10747 -13288275.82362
  19910399.8514  -21093238.75747 -16391824.20664
  22653284.1484   -3629389.17846  -2738865.21261
  19246962.226   -27043435.973 7 -21006679.38123
 91  4 25 23 46 59.9950000  0  4G13G 2G15G 6
  19644845.9524  -18670407.84347 -13318227.26862
  19912001.0234  -21084820.43848 -16385264.47664
  22655044.921    -3620156.737 5  -2731671.12421
  19245548.210   -27050859.774 7 -21012464.14923
 91  4 25 23 47 14.9950000  0  4G13G 2G15G 6
  19637548.9834  -18708759.17547 -13348111.39062
  19913602.9834  -21076404.31447 -16378706.45464
  22656816.858    -3610834.955 5  -2724407.43221
  19244148.327   -27058219.836 7 -21018199.24823
 91  4 25 23 47 29.9950000  0  4G13G 2G15G 6
  19630262.7494  -18747044.02547 -13377943.70262
  19915200.6484  -21068010.55048 -16372165.85364
  22658601.968    -3601443.962 5  -2717089.79721
  19242755.108   -27065535.999 7 -21023900.13723
 91  4 25 23 47 44.9950000  0  4G13G 2G15G 6
  19622990.6404  -18785263.00247 -13407724.69362
  19916794.4834  -21059640.10148 -16365643.42664
  22660403.515    -3591984.744 5  -2709719.00521
  19241370.702   -27072809.116 7 -21029567.48123
 91  4 25 23 47 59.9950000  0  4G13G 2G15G 6
  19615728.1944  -18823420.23547 -13437457.56362
  19918379.4444  -21051297.13847 -16359142.41064
  22662214.335    -3582461.374 5  -2702298.23021
  19239994.569   -27080043.163 7 -21035204.38623
 91  4 25 23 48 14.9950000  0  4G13G 2G15G 6
  19608476.1404  -18861533.41447 -13467156.10962
  19919959.2964  -21042999.78847 -16352676.94164
  22664039.3824   -3572892.22745  -2694841.78061
  19238621.374   -27087255.932 7 -21040824.71123
 91  4 25 23 48 29.9950000  0  4G13G 2G15G 6
  19601233.8044  -18899589.06147 -13496809.82361
  19921530.8904  -21034734.47447 -16346236.43864
  22665867.2964   -3563263.74545  -2687339.10361
  19237256.327   -27094433.745 7 -21046417.80123
 91  4 25 23 48 44.9950000  0  4G13G 2G15G 6
  19594000.7264  -18937602.04447 -13526430.29361
  19923096.4994  -21026515.88347 -16339832.34264
  22667705.8274   -3553591.00745  -2679801.92361
  19235894.921   -27101591.226 7 -21051995.04923
 91  4 25 23 48 59.9950000  0  4G13G 2G15G 6
  19586772.7494  -18975578.59747 -13556022.38461
  19924650.7184  -21018350.88247 -16333470.00664
  22669555.718    -3543881.023 5  -2672235.73321
  19234536.6244  -27108734.84147 -21057561.48863
 91  4 25 23 49 14.9950000  0  4G13G 2G15G 6
  19579552.2734  -19013521.90047 -13585588.56161
  19926193.9444  -21010242.81148 -16327152.02464
  22671412.554    -3534137.072 5  -2664643.05321
  19233178.483   -27115867.783 7 -21063119.60923
 91  4 25 23 49 29.9950000  0  4G13G 2G15G 6
  19572339.1324  -19051427.49247 -13615125.34962
  19927726.4134  -21002187.28347 -16320874.99464
  22673268.288    -3524354.520 5  -2657020.32221
  19231822.5074  -27122985.48947 -21068665.86463
 91  4 25 23 49 44.9950000  0  4G13G 2G15G 6
  19565130.5384  -19089296.52647 -13644633.65161
  19929247.9134  -20994185.58748 -16314639.90264
  22675137.163    -3514534.716 5  -2649368.55321
  19230471.3984  -27130088.96847 -21074201.03263
 91  4 25 23 49 59.9950000  0  4G13G 2G15G 6
  19557932.4134  -19127133.02847 -13674116.60361
  19930760.2654  -20986242.04648 -16308450.12864
  22677018.0074   -3504682.28745  -2641691.33861
  19229122.577   -27137182.438 7 -21079728.39523
 91  4 25 23 50 14.9950000  0  4G13G 2G15G 6
  19550740.7654  -19164930.80847 -13703569.38162
  19932260.6324  -20978350.39747 -16302300.78764
  22678900.6634   -3494791.09045  -2633983.94761
  19227775.155   -27144259.535 7 -21085242.99623
 91  4 25 23 50 29.9950000  0  4G13G 2G15G 6
  19543554.0464  -19202699.36047 -13732999.38461
  19933752.2494  -20970520.39747 -16296199.48364
  22680786.2104   -3484871.05345  -2626254.09161
  19226427.7654  -27151329.82147 -21090752.29963
 91  4 25 23 50 44.9950000  0  4G13G 2G15G 6
  19536373.1484  -19240434.76347 -13762403.56562
  19935229.8044  -20962748.37847 -16290143.36764
  22682678.2334   -3474918.49245  -2618498.87261
  19225085.898   -27158389.237 7 -21096253.12723
 91  4 25 23 50 59.9950000  0  4G13G 2G15G 6
  19529198.7964  -19278139.71447 -13791784.00962
  19936697.3514  -20955037.35647 -16284134.77563
  22684578.1554   -3464936.57445  -2610720.79161
  19223743.7334  -27165440.75947 -21101747.80663
 91  4 25 23 51 14.9950000  0  4G13G 2G15G 6
  19522027.5154  -19315815.29747 -13821141.57562
  19938153.0934  -20947388.61747 -16278174.71364
  22686484.9214   -3454926.95745  -2602921.11561
  19222403.5694  -27172485.49247 -21107237.19663
 91  4 25 23 51 29.9950000  0  4G13G 2G15G 6
  19514863.7024  -19353458.98247 -13850474.28762
  19939598.1014  -20939799.39547 -16272261.03764
  22688395.062    -3444886.954 5  -2595097.77821
  19221063.773   -27179520.493 7 -21112718.99723
 91  4 25 23 51 44.9950000  0  4G13G 2G15G 6
  19507703.9444  -19391071.69847 -13879782.86362
  19941030.7264  -20932270.62647 -16266394.46364
  22690311.171    -3434817.607 5  -2587251.56221
  19219727.140   -27186546.580 7 -21118193.85723
 91  4 25 23 51 59.9950000  0  4G13G 2G15G 6
  19500556.3044  -19428649.26247 -13909064.05462
  19942451.3664  -20924798.35547 -16260571.90864
  22692238.5154   -3424714.94145  -2579379.38561
  19218393.8584  -27193559.57247 -21123658.51863
 91  4 25 23 52 14.9950000  0  4G13G 2G15G 6
  19493410.0464  -19466189.17247 -13938315.89862
  19943862.7414  -20917380.61647 -16254791.85264
  22694160.546    -3414577.095 5  -2571479.80921
  19217063.3744  -27200557.25247 -21129111.24463
 91  4 25 23 52 29.9950000  0  4G13G 2G15G 6
  19486273.913   -19503699.388 7 -13967544.61022
  19945263.1014  -20910025.38247 -16249060.49964
  22696096.3044   -3404412.05045  -2563559.00461
  19215731.327   -27207547.294 7 -21134558.02023
 91  4 25 23 52 44.9950000  0  4G13G 2G15G 6
  19479143.5154  -19541170.98647 -13996743.22262
  19946652.1014  -20902723.88247 -16243371.01764
  22698033.0304   -3394211.44645  -2555610.50161
  19214404.6244  -27214520.95947 -21139992.03663
 91  4 25 23 52 59.9950000  0  4G13G 2G15G 6
  19472020.671   -19578610.613 7 -14025916.92922
  19948032.1874  -20895482.94048 -16237728.72364
  22699984.358    -3383981.790 5  -2547639.36221
  19213080.1014  -27221484.70247 -21145418.31763
 91  4 25 23 53 14.9950000  0  4G13G 2G15G 6
  19464903.2494  -19616014.98947 -14055063.16562
  19949396.4914  -20888299.22648 -16232131.01864
  22701934.5464   -3373720.17145  -2539643.29761
  19211755.7734  -27228435.14547 -21150834.24163
 91  4 25 23 53 29.9950000  0  4G13G 2G15G 6
  19457792.0234  -19653371.61447 -14084172.19262
  19950757.3274  -20881160.44648 -16226568.33063
  22703900.085    -3363414.438 5  -2531612.89421
  19210439.0774  -27235359.82247 -21156230.08363
 91  4 25 23 53 44.9950000  0  4G13G 2G15G 6
  19450692.194   -19690687.393 7 -14113249.39622
  19952103.3904  -20874073.29047 -16221045.86764
  22705863.733    -3353071.437 5  -2523553.44721
  19209124.054   -27242265.418 7 -21161611.05323
 91  4 25 23 53 59.9950000  0  4G13G 2G15G 6
  19443599.663   -19727959.457 7 -14142292.53622
  19953445.1944  -20867035.29247 -16215561.71664
  22707845.273    -3342688.666 5  -2515463.02121
  19207815.3584  -27249149.17747 -21166975.01363
 91  4 25 23 54 14.9950000  0  4G13G 2G15G 6
  19436515.4914  -19765182.29747 -14171297.31562
  19954774.6164  -20860041.42648 -16210111.94864
  22709829.8744   -3332261.20845  -2507337.77161
  19206511.499   -27256005.788 7 -21172317.81123
 91  4 25 23 54 29.9950000  0  4G13G 2G15G 6
  19429440.6014  -19802355.11547 -14200263.11262
  19956097.7104  -20853090.80248 -16204695.87164
  22711819.2574   -3321788.47845  -2499177.22561
  19205209.718   -27262834.276 7 -21177638.69523
 91  4 25 23 54 44.9950000  0  4G13G 2G15G 6
  19422378.7804  -19839473.65147 -14229186.62162
  19957411.6014  -20846179.20848 -16199310.21564
  22713816.4134   -3311266.54345  -2490978.31661
  19203917.7264  -27269630.26047 -21182934.25863
 91  4 25 23 54 59.9950000  0  4G13G 2G15G 6
  19415326.6944  -19876535.45447 -14258065.91362
  19958720.3044  -20839304.31148 -16193953.14664
  22715836.8744   -3300693.12745  -2482739.34061
  19202631.069   -27276391.251 7 -21188202.54923
 91  4 25 23 55 14.9950000  0  4G13G 2G15G 6
  19408284.3824  -19913538.80947 -14286899.66962
  19960022.5544  -20832464.87748 -16188623.71764
  22717853.233    -3290066.963 5  -2474459.23021
  19201350.788   -27283115.751 7 -21193442.40423
 91  4 25 23 55 29.9950000  0  4G13G 2G15G 6
  19401254.062   -19950489.366 7 -14315692.28222
  19961316.1484  -20825666.29048 -16183326.11864
  22719890.015    -3279393.331 5  -2466142.16621
  19200078.0464  -27289809.05947 -21198657.96063
 91  4 25 23 55 44.9950000  0  4G13G 2G15G 6
  19394233.7494  -19987375.21447 -14344434.46962
  19962604.1714  -20818896.77648 -16178051.16963
  22721926.476    -3268660.728 5  -2457779.11921
  19198812.937   -27296459.099 7 -21203839.79223
 91  4 25 23 55 59.9950000  0  4G13G 2G15G 6
  19387229.038   -20024190.839 7 -14373121.94422
  19963888.8664  -20812151.16447 -16172794.85063
  22723986.577    -3257863.873 5  -2449366.01321
  19197554.5074  -27303060.56247 -21208983.77963
 91  4 25 23 56 14.9950000  0  4G13G 2G15G 6
  19380234.0544  -20060943.26147 -14401760.16362
  19965165.0154  -20805436.34647 -16167562.52363
  22726053.194    -3247010.080 5  -2440908.53721
  19196307.8744  -27309620.29647 -21214095.24963
 91  4 25 23 56 29.9950000  0  4G13G 2G15G 6
  19373255.3514  -20097627.09747 -14430344.94162
  19966438.5854  -20798747.22347 -16162350.22063
  22728124.452    -3236094.366 5  -2432402.80921
  19195067.726   -27316132.929 7 -21219170.01523
 91  4 25 23 56 44.9950000  0  3G13G 2G 6
  19366287.6874  -20134235.83947 -14458871.20362
  19967707.1404  -20792077.44647 -16157152.99663
  19193839.601   -27322591.985 7 -21224203.03123
 91  4 25 23 56 59.9950000  0  3G13G 2G 6
  19359334.5074  -20170773.96647 -14487342.43762
  19968973.0934  -20785431.35348 -16151974.22163
  19192619.257   -27329001.560 7 -21229197.49223
 91  4 25 23 57 14.9950000  0  3G13G 2G 6
  19352395.8124  -20207232.31547 -14515751.51362
  19970234.5544  -20778799.82348 -16146806.80063
  19191409.2884  -27335352.77947 -21234146.48063
 91  4 25 23 57 29.9950000  0  3G13G 2G 6
  19345473.7884  -20243609.10147 -14544097.03262
  19971495.2734  -20772181.41148 -16141649.59363
  19190214.312   -27341643.817 7 -21239048.57723
 91  4 25 23 57 44.9950000  0  3G13G 2G 6
  19338567.5074  -20279903.62247 -14572378.44562
  19972751.1244  -20765575.82948 -16136502.39063
  19189028.9684  -27347874.22847 -21243903.43163
 91  4 25 23 57 59.9950000  0  3G13G 2G 6
  19331677.0774  -20316110.11447 -14600591.26462
  19974007.1714  -20758976.87548 -16131360.35463
  19187856.0624  -27354037.66847 -21248706.10463
 91  4 25 23 58 14.9950000  0  3G13G 2G 6
  19324803.7884  -20352225.03547 -14628732.73162
  19975262.5384  -20752381.39347 -16126221.01963
  19186695.6874  -27360130.76047 -21253453.95563
 91  4 25 23 58 29.9950000  0  3G13G 2G 6
  19317950.1084  -20388252.88947 -14656806.35062
  19976514.4524  -20745794.01947 -16121088.00764
  19185547.679   -27366157.986 7 -21258150.48223
 91  4 25 23 58 44.9950000  0  3G13G 2G 6
  19311110.4994  -20424186.52247 -14684806.55862
  19977768.6794  -20739207.72547 -16115955.83764
  19184414.3434  -27372112.03547 -21262789.99363
 91  4 25 23 58 59.9950000  0  3G13G 2G 6
  19304292.5464  -20460021.10447 -14712729.58262
  19979023.6484  -20732617.51348 -16110820.60464
  19183296.0384  -27377987.92147 -21267368.59763
 91  4 25 23 59 14.9950000  0  3G13G 2G 6
  19297491.4374  -20495761.96947 -14740579.57362
  19980276.6164  -20726028.94147 -16105686.66064
  19182192.3984  -27383791.04447 -21271890.49463
 91  4 25 23 59 29.9950000  0  3G13G 2G 6
  19290707.2104  -20531408.58847 -14768356.12762
  19981529.7734  -20719441.56547 -16100553.64364
  19181103.1014  -27389520.84147 -21276355.26863
 91  4 25 23 59 44.9950000  0  3G13G 2G 6
  19283942.1794  -20566958.33147 -14796057.19562
  19982782.6944  -20712853.00247 -16095419.69964
  19180027.710   -27395174.678 7 -21280760.84023
 91  4 25 23 59 59.9950000  0  3G13G 2G 6
  19277200.7804  -20602391.74647 -14823667.61862
  19984042.0074  -20706243.91047 -16090269.76164
  19178969.0934  -27400733.16547 -21285092.12563
 91  4 26  0  0 14.9950000  0  3G13G 2G 6
  19270478.6404  -20637719.66647 -14851195.84262
  19985300.9214  -20699625.27948 -16085112.38964
  19177927.1714  -27406207.18647 -21289357.59063
 91  4 26  0  0 29.9950000  0  3G13G 2G 6
  19263774.366   -20672942.968 7 -14878642.54322
  19986562.3514  -20692997.86948 -16079948.17864
  19176903.0694  -27411597.43147 -21293557.77263
 91  4 26  0  0 44.9950000  0  3G13G 2G 6
  19257092.343   -20708055.498 7 -14906002.92622
  19987826.3984  -20686355.65148 -16074772.42264
  19175893.6164  -27416897.59247 -21297687.76063
 91  4 26  0  0 59.9950000  0  3G13G 2G 6
  19250432.6794  -20743052.53647 -14933273.32062
  19989094.9834  -20679693.92548 -16069581.47264
  19174903.5074  -27422102.67347 -21301743.65663
 91  4 26  0  1 14.9950000  0  3G13G 2G 6
  19243792.8584  -20777940.96247 -14960459.07962
  19990364.7264  -20673019.76648 -16064380.82764
  19173927.4294  -27427219.70747 -21305730.95063
 91  4 26  0  1 29.9950000  0  3G13G 2G 6
  19237175.890   -20812716.361 7 -14987556.76722
  19991639.1714  -20666328.74248 -16059167.04464
  19172972.163   -27432244.209 7 -21309646.13623
 91  4 26  0  1 44.9950000  0  3G13G 2G 6
  19230581.726   -20847373.303 7 -15014562.15522
  19992914.3434  -20659615.44548 -16053935.90364
  19172033.5624  -27437170.57747 -21313484.85763
 91  4 26  0  1 59.9950000  0  3G13G 2G 6
  19224008.593   -20881910.638 7 -15041474.33422
  19994197.4834  -20652878.62148 -16048686.43364
  19171116.8584  -27441997.62447 -21317246.18263
 91  4 26  0  2 14.9950000  0  3G13G 2G 6
  19217460.280   -20916328.914 7 -15068293.74922
  19995483.1084  -20646119.18047 -16043419.33264
  19170217.0154  -27446725.82447 -21320930.48663
 91  4 26  0  2 29.9950000  0  3G13G 2G 6
  19210933.593   -20950624.449 7 -15095017.51822
  19996774.2964  -20639333.44847 -16038131.74963
  19169336.2264  -27451351.60247 -21324534.98363
 91  4 26  0  2 44.9950000  0  3G13G 2G 6
  19204431.257   -20984795.948 7 -15121644.63822
  19998071.2884  -20632520.04347 -16032822.60063
  19168474.8904  -27455873.36747 -21328058.42863
 91  4 26  0  2 59.9950000  0  3G13G 2G 6
  19197952.093   -21018837.360 7 -15148170.38722
  19999372.4684  -20625673.17247 -16027487.37463
  19167636.7334  -27460285.20347 -21331496.22063
 91  4 26  0  3 14.9950000  0  3G13G 2G 6
  19191497.874   -21052756.396 7 -15174600.78922
  20000681.3194  -20618800.87848 -16022132.33863
  19166816.7104  -27464594.92147 -21334854.43563
 91  4 26  0  3 29.9950000  0  3G13G 2G 6
  19185064.1244  -21086555.84347 -15200937.99262
  20001992.1554  -20611905.78348 -16016759.53363
  19166014.6944  -27468805.02647 -21338135.02963
 91  4 26  0  3 44.9950000  0  3G13G 2G 6
  19178657.7334  -21120223.01247 -15227172.12162
  20003312.6014  -20604975.54648 -16011359.34663
  19165235.9214  -27472903.13747 -21341328.35963
 91  4 26  0  3 59.9950000  0  3G13G 2G 6
  19172276.796   -21153758.751 7 -15253303.83922
  20004636.3584  -20598010.69347 -16005932.17662
  19164477.7964  -27476889.74147 -21344434.79762
 91  4 26  0  4 14.9950000  0  3G13G 2G 6
  19165921.062   -21187163.339 7 -15279333.36122
  20005971.2334  -20591011.35547 -16000478.14163
  19163738.7264  -27480764.78347 -21347454.30263
 91  4 26  0  4 29.9950000  0  3G13G 2G 6
  19159587.2574  -21220440.05847 -15305263.24762
  20007307.2654  -20583981.14248 -15995000.04863
  19163022.2104  -27484531.77147 -21350389.61463
 91  4 26  0  4 44.9950000  0  3G13G 2G 6
  19153280.788   -21253591.297 7 -15331095.35922
  20008649.991   -20576922.811 8 -15989500.03323
  19162326.116   -27488193.122 7 -21353242.60323
 91  4 26  0  4 59.9950000  0  3G13G 2G 6
  19146996.140   -21286607.289 7 -15356822.08422
  20009999.9214  -20569826.43047 -15983970.37563
  19161651.0074  -27491739.05647 -21356005.66163
 91  4 26  0  5 14.9950000  0  3G13G 2G 6
  19140737.952   -21319494.665 7 -15382448.59022
  20011356.9214  -20562698.69447 -15978416.29263
  19160997.0624  -27495175.95547 -21358683.76163
 91  4 26  0  5 29.9950000  0  3G13G 2G 6
  19134506.819   -21352242.503 7 -15407966.36722
  20012721.7334  -20555528.70748 -15972829.28263
  19160366.3904  -27498492.90247 -21361268.38863
